[[{"header":{"parameterUnit":"m.s-1","parameterCategory":1,"la1":30.6,"la2":28.766,"lo1":-90.7593,"lo2":-88.6598,"dy":0.0162,"dx":0.0183,"nx":116,"ny":114,"refTime":"2023-07-13T12:00:00:Z","depth":0,"parameterNumber":2,"parameterNumberName":"U-component_of_WINDS"},"data":[0.0,0.0,0.0,0.0,0.0,0.0,0.0,0.0,0.0,0.0,0.0,0.0,0.0,0.0,0.0,0.0,0.0,0.0,0.0,0.0,0.0,0.0,0.0,0.0,0.0,0.0,0.0,0.0,0.0,0.0,0.0,0.0,0.0,0.0,0.0,0.0,0.0,0.0,0.0,0.0,0.0,0.0,0.0,0.0,0.0,0.0,0.0,0.0,0.0,0.0,0.0,0.0,0.0,0.0,0.0,0.0,0.0,0.0,0.0,0.0,0.0,0.0,0.0,0.0,0.0,0.0,0.0,0.0,0.0,0.0,0.0,0.0,0.0,0.0,0.0,0.0,0.0,0.0,0.0,0.0,0.0,0.0,0.0,0.0,0.0,0.0,0.0,0.0,0.0,0.0,0.0,0.0,0.0,0.0,0.0,0.0,0.0,0.0,0.0,0.0,0.0,0.0,0.0,0.0,0.0,0.0,0.0,0.0,0.0,0.0,0.0,0.0,0.0,0.0,0.0,0.0,0.0,0.0,0.0,0.0,0.0,0.0,0.0,0.0,0.0,0.0,0.0,0.0,0.0,0.0,0.0,0.0,0.0,0.0,0.0,0.0,0.0,0.0,0.0,0.0,0.0,0.0,0.0,0.0,0.0,0.0,0.0,0.0,0.0,0.0,0.0,0.0,0.0,0.0,0.0,0.0,0.0,0.0,0.0,0.0,0.0,0.0,0.0,0.0,0.0,0.0,0.0,0.0,0.0,0.0,0.0,0.0,0.0,0.0,0.0,0.0,0.0,0.0,0.0,0.0,0.0,0.0,0.0,0.0,0.0,0.0,0.0,0.0,0.0,0.0,0.0,0.0,0.0,0.0,0.0,0.0,0.0,0.0,0.0,0.0,0.0,0.0,0.0,0.0,0.0,0.0,0.0,0.0,0.0,0.0,0.0,0.0,0.0,0.0,0.0,0.0,0.0,0.0,0.0,0.0,0.0,0.0,0.0,0.0,0.0,0.0,0.0,0.0,0.0,0.0,0.0,0.0,0.0,0.0,0.0,0.0,0.0,0.0,0.0,0.0,0.0,0.0,0.0,0.0,0.0,0.0,0.0,0.0,0.0,0.0,0.0,0.0,0.0,0.0,0.0,0.0,0.0,0.0,0.0,0.0,0.0,0.0,0.0,0.0,0.0,0.0,0.0,0.0,0.0,0.0,0.0,0.0,0.0,0.0,0.0,0.0,0.0,0.0,0.0,0.0,0.0,0.0,0.0,0.0,0.0,0.0,0.0,0.0,0.0,0.0,0.0,0.0,0.0,0.0,0.0,0.0,0.0,0.0,0.0,0.0,0.0,0.0,0.0,0.0,0.0,0.0,0.0,0.0,0.0,0.0,0.0,0.0,0.0,0.0,0.0,0.0,0.0,0.0,0.0,0.0,0.0,0.0,0.0,0.0,0.0,0.0,0.0,0.0,0.0,0.0,0.0,0.0,0.0,0.0,0.0,0.0,0.0,0.0,0.0,0.0,0.0,0.0,0.0,0.0,0.0,0.0,0.0,0.0,0.0,0.0,0.0,0.0,0.0,0.0,0.0,0.0,0.0,0.0,0.0,0.0,0.0,0.0,0.0,0.0,0.0,0.0,0.0,0.0,0.0,0.0,0.0,0.0,0.0,0.0,0.0,0.0,0.0,0.0,0.0,0.0,0.0,0.0,0.0,0.0,0.0,0.0,0.0,0.0,0.0,0.0,0.0,0.0,0.0,0.0,0.0,0.0,0.0,0.0,0.0,0.0,0.0,0.0,0.0,0.0,0.0,0.0,0.0,0.0,0.0,0.0,0.0,0.0,0.0,0.0,0.0,0.0,0.0,0.0,0.0,0.0,0.0,0.0,0.0,0.0,0.0,0.0,0.0,0.0,0.0,0.0,0.0,0.0,0.0,0.0,0.0,0.0,0.0,0.0,0.0,0.0,0.0,0.0,0.0,0.0,0.0,0.0,0.0,0.0,0.0,0.0,0.0,0.0,0.0,0.0,0.0,0.0,0.0,0.0,0.0,0.0,0.0,0.0,0.0,0.0,0.0,0.0,0.0,0.0,0.0,0.0,0.0,0.0,0.0,0.0,0.0,0.0,0.0,0.0,0.0,0.0,0.0,0.0,0.0,0.0,0.0,0.0,0.0,0.0,0.0,0.0,0.0,0.0,0.0,0.0,0.0,0.0,0.0,0.0,0.0,0.0,0.0,0.0,0.0,0.0,0.0,0.0,0.0,0.0,0.0,0.0,0.0,0.0,0.0,0.0,0.0,0.0,0.0,0.0,0.0,0.0,0.0,0.0,0.0,0.0,0.0,0.0,0.0,0.0,0.0,0.0,0.0,0.0,0.0,0.0,0.0,0.0,0.0,0.0,0.0,0.0,0.0,0.0,0.0,0.0,0.0,0.0,0.0,0.0,0.0,0.0,0.0,0.0,0.0,0.0,0.0,0.0,0.0,0.0,0.0,0.0,0.0,0.0,0.0,0.0,0.0,0.0,0.0,0.0,0.0,0.0,0.0,0.0,0.0,0.0,0.0,0.0,0.0,0.0,0.0,0.0,0.0,0.0,0.0,0.0,0.0,0.0,0.0,0.0,0.0,0.0,0.0,0.0,0.0,0.0,0.0,0.0,0.0,0.0,0.0,0.0,0.0,0.0,0.0,0.0,0.0,0.0,0.0,0.0,0.0,0.0,0.0,0.0,0.0,0.0,0.0,0.0,0.0,0.0,0.0,0.0,0.0,0.0,0.0,0.0,0.0,0.0,0.0,0.0,0.0,0.0,0.0,0.0,0.0,0.0,0.0,0.0,0.0,0.0,0.0,0.0,0.0,0.0,0.0,0.0,0.0,0.0,0.0,0.0,0.0,0.0,0.0,0.0,0.0,0.0,0.0,0.0,0.0,0.0,0.0,0.0,0.0,0.0,0.0,0.0,0.0,0.0,0.0,0.0,0.0,0.0,0.0,0.0,0.0,0.0,0.0,0.0,0.0,0.0,0.0,0.0,0.0,0.0,0.0,0.0,0.0,0.0,0.0,0.0,0.0,0.0,0.0,0.0,0.0,0.0,0.0,0.0,0.0,0.0,0.0,0.0,0.0,0.0,0.0,0.0,0.0,0.0,0.0,0.0,0.0,0.0,0.0,0.0,0.0,0.0,0.0,0.0,0.0,0.0,0.0,0.0,0.0,0.0,0.0,0.0,0.0,0.0,0.0,0.0,0.0,0.0,0.0,0.0,0.0,0.0,0.0,0.0,0.0,0.0,0.0,0.0,0.0,0.0,0.0,0.0,0.0,0.0,0.0,0.0,0.0,0.0,0.0,0.0,0.0,0.0,0.0,0.0,0.0,0.0,0.0,0.0,0.0,0.0,0.0,0.0,0.0,0.0,0.0,0.0,0.0,0.0,0.0,0.0,0.0,0.0,0.0,0.0,0.0,0.0,0.0,0.0,0.0,0.0,0.0,0.0,0.0,0.0,0.0,0.0,0.0,0.0,0.0,0.0,0.0,0.0,0.0,0.0,0.0,0.0,0.0,0.0,0.0,0.0,0.0,0.0,0.0,0.0,0.0,0.0,0.0,0.0,0.0,0.0,0.0,0.0,0.0,0.0,0.0,0.0,0.0,0.0,0.0,0.0,0.0,0.0,0.0,0.0,0.0,0.0,0.0,0.0,0.0,0.0,0.0,0.0,0.0,0.0,0.0,0.0,0.0,0.0,0.0,0.0,0.0,0.0,0.0,0.0,0.0,0.0,0.0,0.0,0.0,0.0,0.0,0.0,0.0,0.0,0.0,0.0,0.0,0.0,0.0,0.0,0.0,0.0,0.0,0.0,0.0,0.0,0.0,0.0,0.0,0.0,0.0,0.0,0.0,0.0,0.0,0.0,0.0,0.0,0.0,0.0,0.0,0.0,0.0,0.0,0.0,0.0,0.0,0.0,0.0,0.0,0.0,0.0,0.0,0.0,0.0,0.0,0.0,0.0,0.0,0.0,0.0,0.0,0.0,0.0,0.0,0.0,0.0,0.0,0.0,0.0,0.0,0.0,0.0,0.0,0.0,0.0,0.0,0.0,0.0,0.0,0.0,0.0,0.0,0.0,0.0,0.0,0.0,0.0,0.0,0.0,0.0,0.0,0.0,0.0,0.0,0.0,0.0,0.0,0.0,0.0,0.0,0.0,0.0,0.0,0.0,0.0,0.0,0.0,0.0,0.0,0.0,0.0,0.0,0.0,0.0,0.0,0.0,0.0,0.0,0.0,0.0,0.0,0.0,0.0,0.0,0.0,0.0,0.0,0.0,0.0,0.0,0.0,0.0,0.0,0.0,0.0,0.0,0.0,0.0,0.0,0.0,0.0,0.0,0.0,0.0,0.0,0.0,0.0,0.0,0.0,0.0,0.0,0.0,0.0,0.0,0.0,0.0,0.0,0.0,0.0,0.0,0.0,0.0,0.0,0.0,0.0,0.0,0.0,0.0,0.0,0.0,0.0,0.0,0.0,0.0,0.0,0.0,0.0,0.0,0.0,0.0,0.0,0.0,0.0,0.0,0.0,0.0,0.0,0.0,0.0,0.0,0.0,0.0,0.0,0.0,0.0,0.0,0.0,0.0,0.0,0.0,0.0,0.0,0.0,0.0,0.0,0.0,0.0,0.0,0.0,0.0,0.0,0.0,0.0,0.0,0.0,0.0,0.0,0.0,0.0,0.0,0.0,0.0,0.0,0.0,0.0,0.0,0.0,0.0,0.0,0.0,0.0,0.0,0.0,0.0,0.0,0.0,0.0,0.0,0.0,0.0,0.0,0.0,0.0,0.0,0.0,0.0,0.0,0.0,0.0,0.0,0.0,0.0,0.0,0.0,0.0,0.0,0.0,0.0,0.0,0.0,0.0,0.0,0.0,0.0,0.0,0.0,0.0,0.0,0.0,0.0,0.0,0.0,0.0,0.0,0.0,0.0,0.0,0.0,0.0,0.0,0.0,0.0,0.0,0.0,0.0,0.0,0.0,0.0,0.0,0.0,0.0,0.0,0.0,0.0,0.0,0.0,0.0,0.0,0.0,0.0,0.0,0.0,0.0,0.0,0.0,0.0,0.0,0.0,0.0,0.0,0.0,0.0,0.0,0.0,0.0,0.0,0.0,0.0,0.0,0.0,0.0,0.0,0.0,0.0,0.0,0.0,0.0,0.0,0.0,0.0,0.0,0.0,0.0,0.0,0.0,0.0,0.0,0.0,0.0,0.0,0.0,0.0,0.0,0.0,0.0,0.0,0.0,0.0,0.0,0.0,0.0,0.0,0.0,0.0,0.0,0.0,0.0,0.0,0.0,0.0,0.0,0.0,0.0,0.0,0.0,0.0,0.0,0.0,0.0,0.0,0.0,0.0,0.0,0.0,0.0,0.0,0.0,0.0,0.0,0.0,0.0,0.0,0.0,0.0,0.0,0.0,0.0,0.0,0.0,0.0,0.0,0.0,0.0,0.0,0.0,0.0,0.0,0.0,0.0,0.0,0.0,0.0,0.0,0.0,0.0,0.0,0.0,0.0,0.0,0.0,0.0,0.0,0.0,0.0,0.0,0.0,0.0,0.0,0.0,0.0,0.0,0.0,0.0,0.0,0.0,0.0,0.0,0.0,0.0,0.0,0.0,0.0,0.0,0.0,0.0,0.0,0.0,0.0,0.0,0.0,0.0,0.0,0.0,0.0,0.0,0.0,0.0,0.0,0.0,0.0,0.0,0.0,0.0,0.0,0.0,0.0,0.0,0.0,0.0,0.0,0.0,0.0,0.0,0.0,0.0,0.0,0.0,0.0,0.0,0.0,0.0,0.0,0.0,0.0,0.0,0.0,0.0,0.0,0.0,0.0,0.0,0.0,0.0,0.0,0.0,0.0,0.0,0.0,0.0,0.0,0.0,0.0,0.0,0.0,0.0,0.0,0.0,0.0,0.0,0.0,0.0,0.0,0.0,0.0,0.0,0.0,0.0,0.0,0.0,0.0,0.0,0.0,0.0,0.0,0.0,0.0,0.0,0.0,0.0,0.0,0.0,0.0,0.0,0.0,0.0,0.0,0.0,0.0,0.0,0.0,0.0,0.0,0.0,0.0,0.0,0.0,0.0,-0.9533,-0.955,0.0,0.0,0.0,0.0,0.0,0.0,0.0,0.0,0.0,0.0,0.0,0.0,0.0,0.0,0.0,0.0,0.0,0.0,0.0,0.0,0.0,0.0,0.0,0.0,0.0,0.0,0.0,0.0,0.0,0.0,0.0,0.0,0.0,0.0,0.0,0.0,0.0,0.0,0.0,0.0,0.0,0.0,0.0,0.0,0.0,0.0,0.0,0.0,0.0,0.0,0.0,0.0,0.0,0.0,0.0,0.0,0.0,0.0,0.0,0.0,0.0,0.0,0.0,0.0,0.0,0.0,0.0,0.0,0.0,0.0,0.0,0.0,0.0,0.0,0.0,0.0,0.0,0.0,0.0,0.0,0.0,0.0,0.0,0.0,0.0,0.0,0.0,0.0,0.0,0.0,0.0,0.0,0.0,0.0,0.0,0.0,0.0,0.0,0.0,0.0,0.0,0.0,0.0,0.0,0.0,0.0,0.0,0.0,0.0,0.0,0.0,0.0,0.0,0.0,-0.8662,-0.8763,0.0,0.0,0.0,0.0,0.0,0.0,0.0,0.0,0.0,0.0,0.0,0.0,0.0,0.0,0.0,0.0,0.0,0.0,0.0,0.0,0.0,0.0,0.0,0.0,0.0,0.0,0.0,0.0,0.0,0.0,0.0,0.0,0.0,0.0,0.0,0.0,0.0,0.0,0.0,0.0,0.0,0.0,0.0,0.0,0.0,0.0,0.0,0.0,0.0,0.0,0.0,0.0,0.0,0.0,0.0,0.0,0.0,0.0,0.0,0.0,0.0,0.0,0.0,0.0,0.0,0.0,0.0,0.0,0.0,0.0,0.0,0.0,0.0,0.0,0.0,0.0,0.0,0.0,0.0,0.0,0.0,0.0,0.0,0.0,0.0,0.0,0.0,0.0,0.0,0.0,0.0,0.0,0.0,0.0,0.0,0.0,0.0,0.0,0.0,0.0,0.0,0.0,0.0,0.0,0.0,0.0,0.0,0.0,-0.7139,-0.7272,-0.7302,-0.7428,-0.7516,-0.7636,-0.8044,-0.8054,-0.7749,-0.7168,0.0,0.0,0.0,0.0,0.0,0.0,0.0,0.0,0.0,0.0,0.0,0.0,0.0,0.0,0.0,0.0,0.0,0.0,0.0,0.0,0.0,0.0,0.0,0.0,0.0,0.0,0.0,0.0,0.0,0.0,0.0,0.0,0.0,0.0,0.0,0.0,0.0,0.0,-1.0577,-1.1056,-1.1563,-1.1984,0.0,0.0,0.0,0.0,0.0,0.0,0.0,0.0,0.0,0.0,0.0,0.0,0.0,0.0,0.0,0.0,0.0,0.0,0.0,0.0,0.0,0.0,0.0,0.0,0.0,0.0,0.0,0.0,0.0,0.0,0.0,0.0,0.0,0.0,0.0,0.0,0.0,0.0,0.0,0.0,0.0,0.0,0.0,0.0,-0.8563,-0.8086,0.0,0.0,0.0,0.0,0.0,0.0,0.0,0.0,0.0,0.0,0.0,0.0,0.0,-0.6958,-0.7337,-0.7264,-0.7348,-0.7665,-0.7702,-0.7794,-0.7923,-0.7943,-0.8092,-0.8333,-0.8477,0.0,-0.7625,-0.7444,0.0,0.0,0.0,0.0,0.0,0.0,0.0,0.0,0.0,0.0,0.0,0.0,0.0,0.0,0.0,0.0,0.0,0.0,0.0,0.0,0.0,0.0,0.0,0.0,0.0,0.0,0.0,0.0,0.0,0.0,0.0,0.0,0.0,0.0,0.0,0.0,-1.0053,-1.0722,-1.1309,-1.1897,-1.2485,-1.3033,-1.2485,-1.2265,-1.2271,-1.1757,0.0,0.0,0.0,0.0,0.0,0.0,0.0,0.0,0.0,0.0,0.0,0.0,0.0,0.0,0.0,0.0,0.0,0.0,0.0,0.0,0.0,0.0,0.0,0.0,0.0,0.0,0.0,0.0,0.0,0.0,0.0,0.0,0.0,0.0,0.0,0.0,0.0,0.0,0.0,-0.943,-0.8799,-0.8444,-0.7972,-0.7667,0.0,0.0,0.0,0.0,0.0,0.0,0.0,0.0,0.0,-0.7429,-0.7267,-0.7353,-0.7614,-0.7804,-0.8038,-0.8316,-0.8404,-0.8479,-0.8547,-0.8547,-0.8659,-0.8859,-0.8859,-0.8713,-0.8442,-0.8041,-0.7689,-0.7394,0.0,0.0,0.0,0.0,-0.7255,-0.7326,0.0,0.0,0.0,0.0,0.0,0.0,0.0,0.0,0.0,0.0,0.0,0.0,0.0,0.0,0.0,-1.2307,0.0,0.0,0.0,0.0,0.0,0.0,0.0,0.0,0.0,0.0,0.0,0.0,-1.0911,-1.1557,-1.2225,-1.2812,-1.3407,-1.3975,-1.3834,-1.348,-1.2959,-1.2579,-1.2084,0.0,0.0,0.0,0.0,0.0,0.0,0.0,0.0,0.0,0.0,0.0,0.0,0.0,0.0,0.0,0.0,0.0,0.0,0.0,0.0,0.0,0.0,0.0,0.0,0.0,0.0,0.0,0.0,0.0,0.0,0.0,0.0,0.0,0.0,0.0,0.0,0.0,0.0,-0.9215,-0.888,-0.8441,-0.7673,-0.7143,0.0,0.0,0.0,0.0,0.0,0.0,-0.6803,-0.7166,-0.7404,-0.7482,-0.7845,-0.8079,-0.8153,-0.8486,-0.875,-0.894,-0.9055,-0.913,-0.9164,-0.9164,-0.9245,-0.9381,-0.934,-0.9323,-0.9276,-0.8686,-0.8197,-0.7824,-0.7824,-0.778,-0.7719,-0.7756,-0.7814,-0.7868,0.0,0.0,0.0,0.0,0.0,0.0,0.0,0.0,0.0,0.0,0.0,0.0,0.0,0.0,-1.3475,-1.3361,-1.2911,-1.2206,0.0,0.0,0.0,0.0,0.0,0.0,0.0,0.0,0.0,-1.148,-1.1723,-1.2278,-1.316,-1.3748,-1.4329,-1.491,-1.517,-1.5117,-1.4736,-1.3407,-1.2872,-1.3026,0.0,0.0,0.0,0.0,0.0,0.0,0.0,0.0,0.0,0.0,0.0,0.0,0.0,0.0,0.0,0.0,0.0,0.0,0.0,0.0,0.0,0.0,0.0,0.0,0.0,0.0,0.0,0.0,0.0,0.0,0.0,0.0,0.0,0.0,0.0,0.0,0.0,0.0,0.0,-0.6959,-0.6868,0.0,0.0,0.0,0.0,-0.7061,-0.7088,-0.7285,-0.7723,-0.7902,-0.8123,-0.8404,-0.8577,-0.8801,-0.9083,-0.9106,-0.9269,-0.9564,-0.9571,-0.9646,-0.9778,-0.9778,-0.9859,-0.9995,-0.9849,-0.9788,-0.9741,-0.9147,-0.872,-0.8438,-0.8438,-0.8265,-0.8035,-0.818,-0.8147,-0.8028,0.0,0.0,0.0,0.0,0.0,0.0,0.0,0.0,0.0,0.0,0.0,0.0,0.0,-1.3627,-1.3642,-1.305,-1.3248,-1.2972,-1.1733,0.0,0.0,0.0,0.0,0.0,0.0,0.0,0.0,0.0,-1.2439,-1.3086,-1.3781,-1.4182,-1.4676,-1.5244,-1.5351,-1.5444,-1.5464,-1.4556,-1.3801,-1.3146,-1.2432,-1.1737,0.0,0.0,0.0,0.0,0.0,0.0,0.0,0.0,0.0,0.0,0.0,0.0,0.0,0.0,0.0,0.0,0.0,0.0,0.0,0.0,0.0,0.0,0.0,0.0,0.0,0.0,0.0,0.0,0.0,0.0,0.0,0.0,0.0,0.0,0.0,0.0,0.0,-0.7919,-0.761,0.0,-0.7275,-0.74,-0.756,-0.7709,-0.7987,-0.8221,-0.8381,-0.8716,-0.8998,-0.9201,-0.9347,-0.9476,-0.9581,-0.968,-0.9734,-0.9744,-0.9744,-0.9825,-0.9968,-0.9968,-1.0053,-1.0195,-1.0141,-1.0117,-1.0093,-0.9781,-0.9361,-0.8903,-0.8811,-0.8713,-0.8625,-0.8679,-0.8622,-0.8553,0.0,0.0,0.0,0.0,0.0,0.0,0.0,0.0,0.0,0.0,0.0,-1.2725,-1.2814,-1.3738,-1.4007,-1.3235,-1.368,-1.3383,-1.1918,0.0,0.0,0.0,0.0,0.0,0.0,0.0,0.0,0.0,0.0,0.0,-1.4242,-1.4636,-1.5023,-1.5404,-1.5605,-1.5745,-1.5818,-1.5631,-1.4816,-1.3607,-1.3106,-1.2612,-1.2078,0.0,0.0,0.0,0.0,0.0,0.0,0.0,0.0,0.0,0.0,0.0,0.0,0.0,0.0,0.0,0.0,0.0,0.0,0.0,0.0,0.0,0.0,0.0,0.0,0.0,0.0,0.0,0.0,0.0,0.0,0.0,0.0,0.0,0.0,-0.958,-0.9035,-0.8609,-0.8301,-0.817,-0.8119,-0.8204,-0.835,-0.8554,-0.8845,-0.9059,-0.9157,-0.9442,-0.9676,-0.9829,-0.9927,-0.9978,-0.9978,-1.0076,-1.0076,-0.9978,-0.9978,-1.0029,-1.0127,-1.0127,-1.0181,-1.028,-1.028,-1.028,-1.0266,-1.0114,-0.9815,-0.9442,-0.9303,-0.9074,-0.899,-0.9167,-0.9108,-0.9033,0.0,0.0,0.0,0.0,0.0,0.0,0.0,0.0,0.0,0.0,-1.2603,-1.2568,-1.3418,-1.4277,-1.4585,-1.3991,-1.4131,-1.3462,-1.1573,-1.0947,0.0,0.0,0.0,0.0,0.0,0.0,0.0,0.0,0.0,0.0,0.0,-1.5124,-1.5398,-1.5438,-1.6012,-1.6112,-1.5879,-1.646,-1.5892,-1.4576,-1.4249,-1.3935,-1.3492,0.0,0.0,0.0,0.0,0.0,0.0,0.0,0.0,0.0,0.0,0.0,0.0,0.0,0.0,0.0,0.0,0.0,0.0,0.0,0.0,0.0,0.0,0.0,0.0,0.0,0.0,0.0,0.0,0.0,0.0,0.0,0.0,0.0,-1.0046,-0.9538,-0.9112,-0.8965,-0.8938,-0.8906,-0.8764,-0.9011,-0.9306,-0.9608,-0.9635,-0.9761,-1.0046,-1.0059,-1.0127,-1.0283,-1.0283,-1.028,-1.028,-1.0283,-1.0283,-1.028,-1.028,-1.0283,-1.0287,-1.0287,-1.029,-1.0293,-1.0293,-1.0293,-1.0283,-1.0127,-1.0063,-1.0049,-0.991,-0.956,-0.9212,-0.9503,-0.9591,-0.9329,0.0,0.0,0.0,0.0,0.0,0.0,0.0,0.0,0.0,0.0,-1.2686,-1.291,-1.3447,-1.4277,-1.4819,-1.4772,-1.4425,-1.3755,-1.2666,0.0,0.0,0.0,0.0,0.0,0.0,0.0,0.0,0.0,0.0,0.0,0.0,0.0,-1.5504,-1.5725,-1.6106,-1.6226,-1.6179,-1.6547,-1.66,-1.6326,-1.5184,-1.4543,-1.4162,0.0,0.0,0.0,0.0,0.0,0.0,0.0,0.0,0.0,0.0,0.0,0.0,0.0,0.0,0.0,0.0,0.0,0.0,0.0,0.0,0.0,0.0,0.0,0.0,0.0,0.0,0.0,0.0,0.0,0.0,0.0,-0.9122,-0.9096,-0.9362,-0.944,-0.9442,-0.9258,-0.9319,-0.9493,-0.9666,-0.9758,-0.9883,-1.008,-1.0192,-1.0287,-1.0365,-1.0273,-1.0283,-1.0429,-1.0334,-1.028,-1.028,-1.0382,-1.0382,-1.028,-1.028,-1.0334,-1.0432,-1.0432,-1.0493,-1.0599,-1.0599,-1.0599,-1.0588,-1.0432,-1.0368,-1.0337,-0.9988,-0.9684,-0.9372,-0.7084,-0.7712,-0.9039,0.0,0.0,0.0,0.0,0.0,0.0,0.0,0.0,0.0,0.0,-1.2603,-1.291,-1.2969,-1.3896,-1.4478,-1.439,-1.4112,-1.3588,-1.271,0.0,0.0,0.0,0.0,0.0,0.0,0.0,0.0,0.0,0.0,0.0,0.0,0.0,-1.5665,-1.5845,-1.6266,-1.6386,-1.6306,-1.6847,-1.7174,-1.7255,-1.6406,-1.5959,-1.5645,-1.4215,-1.3828,-1.3948,-1.2875,-1.2948,-1.3413,-1.257,0.0,0.0,0.0,0.0,0.0,0.0,0.0,0.0,0.0,0.0,0.0,0.0,0.0,0.0,0.0,0.0,0.0,0.0,0.0,0.0,0.0,0.0,0.0,0.0,-0.887,-0.8906,-0.9253,-0.9459,-0.9583,-0.9595,-0.9798,-0.9981,-1.0212,-1.0236,-1.03,-1.0453,-1.0541,-1.0585,-1.0585,-1.051,-1.0473,-1.049,-1.0473,-1.0432,-1.0371,-1.0514,-1.0544,-1.0466,-1.0466,-1.0507,-1.0585,-1.0585,-1.0602,-1.0629,-1.0694,-1.0683,-1.0619,-1.0527,-1.049,-1.0456,0.0,0.0,0.0,0.0,-0.5806,-0.8802,0.0,0.0,0.0,0.0,0.0,0.0,0.0,0.0,0.0,0.0,0.0,-1.277,-1.2335,-1.3253,-1.3781,-1.3512,-1.3512,-1.3116,0.0,0.0,0.0,0.0,0.0,0.0,0.0,0.0,0.0,0.0,0.0,0.0,0.0,0.0,0.0,-1.5852,-1.644,-1.656,-1.638,-1.7261,-1.7655,-1.7682,-1.7682,-1.7662,-1.7455,-1.5792,-1.5478,-1.5684,-1.3762,-1.37,-1.4276,-1.3379,0.0,0.0,0.0,0.0,0.0,0.0,0.0,0.0,0.0,0.0,0.0,0.0,0.0,0.0,0.0,0.0,0.0,0.0,0.0,0.0,0.0,0.0,0.0,0.0,-0.8826,-0.8886,-0.9608,-0.9724,-0.9825,-1.007,-1.0219,-1.0361,-1.0504,-1.0517,-1.0575,-1.0711,-1.0721,-1.0721,-1.0721,-1.0704,0.0,0.0,0.0,-1.0629,-1.0493,-1.0643,-1.0721,-1.0721,-1.0721,-1.0721,-1.0721,-1.0721,-1.0646,-1.0524,-1.066,-1.0643,-1.0517,-1.0517,-1.0507,-1.0463,-0.9936,-0.7538,-0.4001,-0.1114,-0.371,-0.794,0.0,0.0,0.0,0.0,0.0,0.0,0.0,0.0,0.0,-1.2495,-1.2759,-1.2989,-1.2861,-1.2665,-1.2949,-1.3961,-1.3428,-1.295,0.0,0.0,0.0,0.0,0.0,0.0,0.0,0.0,0.0,0.0,0.0,0.0,0.0,0.0,0.0,-1.5852,-1.644,-1.6673,-1.668,-1.7575,-1.8096,-1.8317,-1.8317,-1.817,-1.7842,-1.6774,-1.644,-1.6446,-1.5543,-1.5602,-1.6092,-1.5186,-1.5285,-1.5504,-1.4496,0.0,0.0,0.0,0.0,0.0,0.0,0.0,0.0,0.0,0.0,0.0,0.0,0.0,0.0,0.0,0.0,0.0,0.0,0.0,0.0,-0.8758,-0.9226,-0.9741,-1.0249,-1.0429,-1.048,-1.0412,-1.0432,-1.051,-1.0663,-1.0677,-1.0687,-1.0717,-1.0721,-1.0721,-1.0721,-1.0602,-1.0521,-1.0493,-1.0521,-1.0521,-1.049,-1.0643,-1.0721,-1.0721,-1.0721,0.0,-1.0721,-1.0721,-1.0704,-1.0677,-1.0707,-1.0704,-1.0677,-1.0677,-1.0602,-1.0466,-0.9953,-0.6123,-0.0864,-0.0246,-0.0863,-0.247,0.0,0.0,0.0,0.0,0.0,0.0,0.0,0.0,0.0,0.0,-1.3238,-1.3521,-1.3537,-1.3474,-1.3725,-1.4371,-1.3782,0.0,0.0,0.0,0.0,0.0,0.0,0.0,0.0,0.0,0.0,0.0,0.0,0.0,0.0,0.0,0.0,-1.5852,-1.644,-1.6707,-1.6754,-1.7502,-1.7989,-1.827,-1.827,-1.8357,-1.839,-1.7488,-1.7054,-1.6894,-1.6593,-1.6587,-1.666,-1.6373,-1.6373,-1.6359,-1.5631,-1.5197,-1.451,0.0,0.0,0.0,0.0,0.0,0.0,0.0,0.0,0.0,0.0,0.0,0.0,0.0,0.0,-0.8694,0.0,0.0,-0.9327,-0.9514,-0.9866,-1.029,-1.0666,-1.0846,-1.0914,-1.0836,-1.0826,-1.0856,-1.0934,-1.0941,-1.0941,-1.0941,-1.0877,-1.0833,-1.0833,-1.0687,-1.0571,-1.0493,-1.0565,-1.0568,-1.049,-1.0643,-1.0721,-1.0721,-1.0721,-1.0721,-1.0721,-1.0721,-1.0721,-1.0721,-1.0721,-1.0721,-1.0714,-1.0636,-1.0521,-1.0368,-1.0178,-0.7015,-0.2234,-0.0617,-0.2094,-0.5315,0.0,0.0,0.0,0.0,0.0,0.0,0.0,0.0,0.0,0.0,0.0,-1.3962,-1.4094,-1.4302,-1.4406,0.0,0.0,0.0,0.0,0.0,0.0,0.0,0.0,0.0,0.0,0.0,0.0,0.0,0.0,0.0,0.0,0.0,0.0,-1.5939,-1.6466,-1.674,-1.6834,-1.7422,-1.7816,-1.805,-1.811,-1.8384,-1.8677,-1.7949,-1.7562,-1.7388,-1.7215,-1.6921,-1.6667,-1.6967,-1.6867,-1.6613,-1.6547,-1.6286,-1.5399,-1.2462,-1.2466,0.0,0.0,0.0,0.0,0.0,0.0,0.0,0.0,0.0,-0.8733,-0.8925,-0.865,-0.8547,-0.9205,-0.9374,-0.9632,-1.03,-1.0527,-1.0717,-1.0995,-1.1134,-1.1219,-1.125,-1.1199,-1.1162,-1.1162,-1.1162,-1.1162,-1.1162,-1.1029,-1.0962,-1.0989,-1.0846,-1.0707,-1.0585,-1.0727,-1.0734,-1.0582,-1.0704,-1.0765,-1.0765,-1.0734,-1.0721,-1.0721,-1.0721,-1.0721,-1.0721,-1.0721,-1.0721,-1.0707,-1.0555,-1.0426,-1.0307,-1.0273,-0.8571,-0.5537,-0.2227,-0.4312,-0.8928,0.0,0.0,0.0,0.0,0.0,0.0,0.0,0.0,0.0,0.0,0.0,0.0,0.0,0.0,0.0,0.0,0.0,0.0,0.0,0.0,0.0,0.0,0.0,0.0,0.0,0.0,0.0,0.0,0.0,0.0,0.0,0.0,0.0,-1.6239,-1.656,-1.6854,-1.7141,-1.7742,-1.8016,-1.807,-1.8337,-1.8323,-1.8136,-1.8029,-1.8136,-1.8237,-1.7435,-1.6794,-1.6366,-1.6653,-1.656,-1.6453,-1.7201,-1.7054,-1.6275,-1.4459,0.0,-1.2354,-0.9171,-0.8299,-0.8604,-0.98,-0.9702,-0.9464,0.0,0.0,-0.8869,-0.9202,-0.9428,-0.9537,-0.9886,-1.0164,-1.046,-1.0816,-1.0995,-1.1145,-1.1318,-1.1355,-1.1416,-1.1552,-1.1328,-1.1162,-1.1162,-1.1162,-1.1162,-1.1162,-1.1029,-1.1002,-1.1131,-1.1002,-1.0914,-1.0897,-1.104,-1.1043,-1.09,-1.0914,-1.0921,-1.0921,-1.0785,-1.0721,-1.0721,-1.0721,-1.0721,-1.0721,-1.0721,-1.0721,-1.0707,-1.0555,-1.0483,-1.0439,-1.0164,-0.9896,-0.9348,-0.5716,-0.4795,-0.5908,0.0,0.0,0.0,0.0,0.0,0.0,0.0,0.0,0.0,0.0,0.0,0.0,0.0,0.0,0.0,0.0,0.0,0.0,0.0,0.0,0.0,0.0,0.0,0.0,0.0,0.0,0.0,0.0,0.0,0.0,0.0,0.0,0.0,0.0,-1.65,-1.6774,-1.6934,-1.7522,-1.7776,-1.7789,-1.7909,-1.7889,-1.7862,-1.8408,-1.8189,-1.758,-1.6704,-1.6112,0.0,0.0,-1.5838,-1.6139,-1.6847,-1.6667,-1.5879,-1.4247,-1.3483,0.0,-0.9967,-0.9556,-0.9731,0.0,-0.9567,-1.0113,-0.9715,-0.9414,-0.9256,-0.9795,-1.0022,-1.0266,-1.0744,-1.086,-1.0982,0.0,-1.1314,-1.1348,-1.1501,-1.1447,-1.1382,-1.1355,-1.1165,-1.1104,-1.1277,-1.1297,-1.1297,-1.1297,-1.1158,-1.1138,-1.1287,-1.1155,-1.1073,-1.1073,-1.1131,-1.1134,-1.1073,-1.0989,-1.0948,-1.0948,-1.0795,-1.0721,-1.0721,-1.0721,-1.0721,-1.0721,-1.0721,-1.0721,-1.0707,-1.0555,-1.049,-1.0463,-1.0164,-1.0151,-1.0129,-0.8335,-0.7795,-0.8096,0.0,0.0,0.0,0.0,0.0,0.0,0.0,0.0,0.0,0.0,0.0,0.0,0.0,0.0,0.0,0.0,0.0,0.0,0.0,0.0,0.0,0.0,0.0,0.0,0.0,0.0,0.0,0.0,0.0,0.0,0.0,0.0,0.0,0.0,-1.7343,-1.7591,-1.7704,-1.8157,-1.8348,-1.8348,-1.7943,-1.7798,-1.7784,-1.818,-1.7478,-1.638,-1.6188,-1.5631,0.0,0.0,-1.4703,-1.5097,-1.5772,-1.5691,-1.5087,-1.364,-1.2635,-1.1673,-1.0567,-1.0662,0.0,-0.9747,-1.0432,-1.1156,-1.0181,-0.9887,-0.9897,-1.0415,-1.0605,-1.0809,-1.1246,-1.124,-1.1236,-1.1457,-1.1436,-1.1416,-1.1484,-1.1399,-1.1257,-1.1063,-1.0877,-1.085,-1.1063,-1.1196,-1.1284,-1.1324,-1.1226,-1.1229,-1.1382,-1.1287,-1.1226,-1.1226,-1.1267,-1.1267,-1.1226,-1.108,-1.1006,-1.1006,-1.0812,-1.0721,-1.0721,-1.0721,-1.0721,-1.0721,-1.0721,-1.0721,-1.0707,-1.0555,-1.049,-1.0466,-1.0212,-1.0205,-1.0307,-1.0063,-1.0042,-1.0117,0.0,0.0,0.0,0.0,0.0,0.0,0.0,0.0,0.0,0.0,0.0,0.0,0.0,0.0,0.0,0.0,0.0,0.0,0.0,0.0,0.0,0.0,0.0,0.0,0.0,0.0,0.0,0.0,0.0,0.0,0.0,0.0,0.0,0.0,-1.9751,-1.9955,-2.028,-2.0305,-2.0313,-2.0224,-1.8965,-1.8304,-1.7949,-1.7021,-1.577,-1.4764,-1.625,0.0,0.0,0.0,-1.3073,-1.3071,-1.3888,-1.4155,0.0,-1.3106,-1.0906,-0.9137,-1.0396,0.0,-1.089,-1.2729,-1.2659,-1.2294,-1.2726,-1.174,-1.0765,-1.1073,-1.1141,-1.1148,-1.1165,-1.1165,-1.1165,-1.1175,-1.1297,-1.1341,-1.1196,-1.1172,-1.106,-1.0768,-1.0477,-1.0304,-1.0314,-1.0707,-1.1019,-1.1158,-1.1165,-1.1229,-1.1382,-1.1385,-1.1385,-1.1385,-1.1528,-1.1535,-1.1385,-1.1233,-1.1155,-1.1151,-1.086,-1.0721,-1.0721,-1.0721,-1.0721,-1.0721,-1.0721,-1.0721,-1.0707,-1.0555,-1.049,-1.0477,-1.0331,-1.0358,-1.0466,-1.0321,-1.027,-1.0253,0.0,0.0,0.0,0.0,0.0,0.0,0.0,0.0,0.0,0.0,0.0,0.0,0.0,0.0,0.0,0.0,0.0,0.0,0.0,0.0,0.0,0.0,0.0,0.0,0.0,0.0,0.0,0.0,0.0,0.0,0.0,0.0,0.0,0.0,-1.8588,-1.8889,-1.9239,-1.9475,-1.9711,-1.9882,-1.8862,-1.8425,-1.8289,-1.7209,-1.5818,-1.4492,0.0,0.0,0.0,0.0,0.0,-1.2285,-1.3057,-1.2926,-1.2322,-1.0534,-1.0498,-1.0921,-1.0636,0.0,-1.2685,-1.2707,-1.2662,-1.2486,-1.1641,-1.1038,-1.0748,-1.0846,-1.0714,-1.0578,-1.0578,-1.0493,-1.049,-1.0687,-1.0846,-1.0995,-1.1141,-1.108,-1.0873,-1.0477,-1.0341,0.0,-0.9995,-1.0297,-1.0605,-1.085,-1.0965,-1.1131,-1.1379,-1.1392,-1.144,-1.1538,-1.1592,-1.1596,-1.1545,-1.1392,-1.1314,-1.1311,-1.1012,-1.0819,-1.0721,-1.0721,-1.0721,-1.0721,-1.0721,-1.0721,-1.0717,-1.0663,-1.0643,-1.0629,-1.048,-1.0514,-1.0626,-1.0477,-1.0483,-1.0538,0.0,0.0,0.0,0.0,0.0,0.0,0.0,0.0,0.0,0.0,0.0,0.0,0.0,0.0,0.0,0.0,0.0,0.0,0.0,0.0,0.0,0.0,0.0,0.0,0.0,0.0,0.0,0.0,0.0,0.0,0.0,0.0,0.0,0.0,0.0,-1.8121,-1.8434,-1.8602,-1.8843,-1.9015,-1.8029,-1.7597,-1.7429,-1.6363,-1.5027,0.0,0.0,0.0,0.0,0.0,0.0,-1.1309,-1.1683,-1.1397,-1.0645,-0.984,-1.0498,-1.1462,-1.1259,-1.3184,-1.4847,-1.3764,-1.3788,-1.3664,-1.214,-1.1234,-1.0758,-1.0595,-1.0324,-1.0066,-0.9907,-0.971,-0.9686,-1.0039,-1.0222,-1.0446,-1.0799,-1.0812,-1.066,-1.0321,-1.0181,-1.0059,0.0,-1.0083,-1.03,-1.0544,-1.0802,-1.1033,-1.1223,-1.1331,-1.146,-1.1613,-1.1619,-1.1619,-1.1619,-1.1467,-1.1338,-1.1229,-1.104,-1.0867,-1.0721,-1.0721,-1.0721,-1.0721,-1.0721,-1.0721,-1.0721,-1.0721,-1.0721,-1.0711,-1.0612,-1.0633,-1.0707,-1.0609,-1.0636,-1.0683,0.0,0.0,0.0,0.0,0.0,0.0,0.0,0.0,0.0,0.0,0.0,0.0,0.0,0.0,0.0,0.0,0.0,0.0,0.0,0.0,0.0,0.0,0.0,0.0,0.0,0.0,0.0,0.0,0.0,0.0,0.0,0.0,0.0,0.0,0.0,-1.792,-1.7949,-1.7949,-1.7959,-1.7901,-1.6642,-1.6056,-1.5646,-1.4565,0.0,0.0,0.0,0.0,0.0,0.0,0.0,0.0,-1.0221,-0.9707,-0.9469,-1.1033,-1.1058,-1.0946,-1.2491,-1.5138,-1.7149,-1.5653,-1.5669,-1.5623,-1.4061,-1.2218,-1.0772,-1.0317,-0.9964,-0.9605,0.0,0.0,-0.8815,-0.9283,-0.95,-0.9771,-1.0239,-1.0419,-1.0453,0.0,0.0,0.0,0.0,0.0,-1.0154,-1.0293,-1.0704,-1.0955,-1.0968,-1.124,-1.146,-1.1613,-1.1619,-1.1619,-1.1619,-1.1474,-1.1253,-1.0958,-1.0958,-1.0873,-1.0721,-1.0721,-1.0721,-1.0721,-1.0721,-1.0721,-1.0721,-1.0721,-1.0721,-1.0721,-1.0721,-1.0721,-1.0721,-1.0721,-1.0721,-1.07,0.0,0.0,0.0,0.0,0.0,0.0,0.0,0.0,0.0,0.0,0.0,0.0,0.0,0.0,0.0,0.0,0.0,0.0,0.0,0.0,0.0,0.0,0.0,0.0,0.0,0.0,0.0,0.0,0.0,0.0,0.0,0.0,0.0,0.0,0.0,-1.6748,-1.7061,-1.7061,-1.7246,-1.748,0.0,-1.6227,-1.6192,0.0,0.0,0.0,0.0,0.0,0.0,0.0,0.0,0.0,0.0,-1.2003,-1.217,-1.1171,-1.2109,-1.367,-1.4065,-1.6048,-1.7596,-1.612,-1.5789,-1.5192,-1.2107,-1.0718,-1.0117,-0.9557,-0.9028,-0.853,0.0,0.0,0.0,-0.894,-0.9367,0.0,-1.0514,-1.0639,0.0,-1.0456,0.0,-1.046,-1.0385,-1.0585,-1.0687,-1.0612,-1.0819,-1.1046,-1.1267,-1.1352,-1.146,-1.1613,-1.1619,-1.1619,-1.1619,-1.1582,-1.1409,-1.1107,-1.1107,-1.0972,-1.0721,-1.0721,-1.0721,-1.0721,-1.0721,-1.0721,-1.0721,-1.0721,-1.0721,-1.0721,-1.0721,-1.0721,-1.0721,-1.0721,-1.0721,-1.0714,0.0,0.0,0.0,0.0,0.0,0.0,0.0,0.0,0.0,0.0,0.0,0.0,0.0,0.0,0.0,0.0,0.0,0.0,0.0,0.0,0.0,0.0,0.0,0.0,0.0,0.0,0.0,0.0,0.0,0.0,0.0,0.0,0.0,0.0,0.0,0.0,-1.5405,0.0,0.0,0.0,0.0,0.0,0.0,0.0,0.0,0.0,0.0,0.0,0.0,0.0,0.0,-1.2204,-1.3019,-1.3633,-1.3923,-1.372,0.0,-1.4787,-1.4823,-1.5969,-1.6557,-1.4313,-1.4295,-1.398,-1.0904,-0.9968,-0.951,-0.8648,-0.8153,0.0,-0.7288,-0.7326,0.0,0.0,0.0,0.0,-1.031,-1.0538,-1.0612,0.0,-1.0727,0.0,-1.07,-1.0965,-1.1107,-1.1019,-1.1033,-1.1114,-1.128,-1.1355,-1.146,-1.1613,-1.1619,-1.1619,-1.1619,-1.1619,-1.1501,-1.1263,-1.1196,-1.1043,-1.0819,-1.0751,-1.0721,-1.0721,-1.0721,-1.0721,-1.0721,-1.0721,-1.0721,-1.0721,-1.0721,-1.0721,-1.0721,-1.0721,-1.0721,-1.0721,0.0,0.0,0.0,0.0,0.0,0.0,0.0,0.0,0.0,0.0,0.0,0.0,0.0,0.0,0.0,0.0,0.0,0.0,0.0,0.0,0.0,0.0,0.0,0.0,0.0,0.0,0.0,0.0,0.0,0.0,0.0,0.0,0.0,0.0,0.0,0.0,0.0,0.0,0.0,0.0,0.0,0.0,0.0,0.0,0.0,0.0,0.0,0.0,0.0,0.0,-1.2225,-1.2852,-1.4342,-1.4942,-1.5392,-1.7028,-1.6529,-1.5361,-1.5185,-1.5473,-1.5183,-1.1944,-1.2359,-1.2934,-1.053,-0.9735,-0.9237,-0.8058,0.0,-0.7186,-0.685,-0.6853,-0.7149,-0.8108,0.0,-0.9025,-0.9924,-1.0287,-1.0527,-1.07,-1.0856,-1.0965,-1.1002,-1.124,-1.1399,-1.1419,-1.1297,-1.1223,-1.1223,-1.1348,-1.1484,-1.1616,-1.1619,-1.1619,-1.1619,-1.1619,-1.1545,-1.1396,-1.1236,-1.109,-1.0812,-1.0792,-1.0721,-1.0721,-1.0721,-1.0721,-1.0724,-1.0721,-1.0721,-1.0724,-1.0721,-1.0721,-1.0724,-1.0724,-1.0727,-1.0731,0.0,0.0,0.0,0.0,0.0,0.0,0.0,0.0,0.0,0.0,0.0,0.0,0.0,0.0,0.0,0.0,0.0,0.0,0.0,0.0,0.0,0.0,0.0,0.0,0.0,0.0,0.0,0.0,0.0,0.0,0.0,0.0,0.0,0.0,0.0,0.0,0.0,0.0,0.0,0.0,0.0,0.0,0.0,0.0,0.0,0.0,0.0,0.0,0.0,0.0,-1.308,-1.4396,-1.5865,-1.7038,-1.767,-1.723,-1.7126,-1.6926,-1.5825,-1.5716,-1.5404,-1.3363,-1.3753,-1.407,-1.1642,-1.0675,0.0,0.0,-0.748,-0.6702,-0.7235,-0.7023,-0.7281,-0.9053,0.0,0.0,0.0,0.0,-1.0419,0.0,-1.0856,-1.1043,-1.129,-1.1362,-1.1443,-1.1569,-1.1555,-1.1541,-1.1541,-1.1565,-1.1592,-1.1619,-1.1619,-1.1619,-1.1619,-1.1619,-1.1552,-1.1271,-1.1243,-1.1097,-1.0693,-1.0665,-1.0721,-1.0721,-1.0721,-1.0731,-1.0748,-1.0727,-1.0731,-1.0744,-1.0727,-1.0731,-1.0748,-1.0748,-1.0765,-1.0652,0.0,0.0,0.0,0.0,0.0,0.0,0.0,0.0,0.0,0.0,0.0,0.0,0.0,0.0,0.0,0.0,0.0,0.0,0.0,0.0,0.0,0.0,0.0,0.0,0.0,0.0,0.0,-1.4878,0.0,0.0,0.0,0.0,0.0,0.0,0.0,0.0,0.0,0.0,0.0,0.0,0.0,0.0,0.0,0.0,0.0,0.0,0.0,0.0,0.0,0.0,-1.3003,-1.4396,-1.6326,-1.7862,-1.8764,-1.737,-1.6822,-1.6207,-1.4788,-1.382,-1.2931,-1.2153,-1.2143,-1.1872,-1.0077,0.0,0.0,0.0,-0.6547,-0.612,-0.6467,0.0,0.0,0.0,0.0,0.0,0.0,0.0,0.0,0.0,-1.0873,-1.1087,-1.1155,-1.1372,-1.1508,-1.1501,-1.1572,-1.1619,-1.1619,-1.1619,-1.1619,-1.1619,-1.1619,-1.1619,-1.1619,-1.1619,-1.1555,-1.1426,-1.1246,-1.1101,-1.0839,-1.0799,-1.0721,-1.0721,-1.0721,-1.068,-1.0622,-1.069,-1.068,-1.0626,-1.0704,-1.0744,-1.0485,-0.9253,-0.8814,-0.8915,0.0,0.0,0.0,0.0,0.0,0.0,0.0,0.0,0.0,0.0,0.0,0.0,0.0,0.0,0.0,0.0,0.0,0.0,0.0,0.0,0.0,0.0,0.0,0.0,0.0,0.0,0.0,-1.4085,-1.5079,0.0,0.0,0.0,0.0,0.0,-1.5137,0.0,0.0,0.0,0.0,0.0,0.0,0.0,0.0,0.0,0.0,0.0,0.0,0.0,0.0,0.0,-1.2621,-1.3595,-1.5824,-1.7482,-1.8402,-1.7219,-1.6177,-1.5201,-1.3857,-1.2378,-1.1101,-1.0809,-1.0468,-0.9973,-0.8916,-0.8229,0.0,0.0,-0.5881,-0.5751,-0.5876,0.0,-0.6434,0.0,0.0,0.0,0.0,0.0,0.0,0.0,-1.0816,0.0,-1.0999,-1.1314,-1.1497,-1.1443,-1.1552,-1.1619,-1.1619,-1.1619,-1.1619,-1.1619,-1.1619,-1.1619,-1.1619,-1.1586,-1.1525,-1.1568,-1.1216,-1.107,-1.0978,-1.0802,-1.0721,-1.0721,-1.0721,-1.0636,-1.0514,-1.0666,-1.0639,-1.0524,-1.0697,-1.0765,-1.0488,-0.8552,-0.7683,-0.7885,0.0,0.0,0.0,0.0,0.0,0.0,0.0,0.0,0.0,0.0,0.0,0.0,0.0,0.0,0.0,0.0,0.0,0.0,0.0,0.0,0.0,0.0,0.0,0.0,0.0,0.0,0.0,-1.4085,-1.4689,0.0,0.0,0.0,0.0,0.0,0.0,-1.4989,-1.4027,0.0,0.0,0.0,0.0,0.0,0.0,0.0,0.0,0.0,0.0,0.0,0.0,0.0,0.0,-1.2383,-1.3719,-1.4969,-1.6012,-1.6334,0.0,0.0,-1.4854,-1.3943,-1.2636,-1.0932,-1.1046,-1.1327,-1.0119,0.0,0.0,-0.7543,-0.6329,-0.5773,-0.6784,-0.6354,-0.6336,0.0,0.0,-0.7553,0.0,0.0,0.0,0.0,0.0,0.0,-1.1118,-1.1179,-1.1314,-1.1579,-1.1609,-1.1619,-1.1619,-1.1619,-1.1619,-1.1619,-1.1619,-1.1619,-1.1619,-1.148,-1.1416,-1.1278,-1.1114,-1.0836,-1.07,-1.0665,-1.0721,-1.0721,-1.0721,-1.0649,-1.0417,-1.0561,-1.0545,-1.0316,-1.0605,-1.0668,-1.0648,-1.0238,-1.0048,-1.0016,0.0,0.0,0.0,0.0,0.0,0.0,0.0,0.0,0.0,0.0,0.0,0.0,0.0,0.0,0.0,0.0,0.0,0.0,0.0,0.0,0.0,0.0,0.0,0.0,0.0,0.0,-1.3921,-1.3559,-1.4148,0.0,0.0,0.0,0.0,0.0,0.0,-1.3865,-1.3443,0.0,0.0,0.0,0.0,0.0,0.0,0.0,0.0,0.0,0.0,0.0,0.0,0.0,0.0,0.0,-1.1122,-1.1758,0.0,0.0,-1.3381,-1.3375,-1.2168,-1.1787,-1.1467,-1.0634,-1.039,-0.9984,-0.8895,0.0,-0.7304,-0.6386,-0.5776,-0.5512,-0.597,-0.5766,-0.5842,0.0,0.0,0.0,0.0,0.0,0.0,0.0,-1.0219,0.0,0.0,-1.1114,-1.1253,-1.1467,-1.1484,-1.1521,-1.1613,-1.1619,-1.1619,-1.1619,-1.1531,-1.1484,-1.1484,-1.1331,-1.1223,-1.1158,-1.1016,-1.0786,-1.0735,-1.0765,-1.0727,-1.0741,-1.0727,-1.0592,-1.0399,-1.0555,-1.0477,-1.0149,-1.033,-0.9587,-0.8505,-0.9777,-1.0098,-1.0022,0.0,0.0,0.0,0.0,0.0,0.0,0.0,0.0,0.0,0.0,0.0,0.0,0.0,0.0,0.0,0.0,0.0,0.0,0.0,0.0,0.0,0.0,0.0,0.0,0.0,0.0,-1.3431,-1.2978,-1.3276,-1.3192,0.0,0.0,-1.2806,-1.2869,0.0,0.0,0.0,0.0,0.0,0.0,0.0,0.0,0.0,0.0,0.0,0.0,0.0,0.0,0.0,0.0,0.0,0.0,0.0,0.0,0.0,0.0,-1.1416,-1.1884,-1.1126,-1.0891,-1.0912,-1.0865,-0.9937,-0.873,0.0,0.0,-0.6156,-0.5566,-0.5428,-0.5428,-0.5428,-0.5428,-0.5481,0.0,0.0,-0.6295,-0.7319,0.0,0.0,0.0,0.0,-1.0175,-1.0758,-1.1114,-1.1352,-1.146,-1.1436,-1.1484,-1.1636,-1.1562,-1.1525,-1.1552,-1.1447,-1.1369,-1.1324,-1.1175,-1.1056,-1.0975,-1.0911,-1.0846,-1.0645,-1.0744,-1.0738,-1.0751,-1.0738,-1.0568,-1.0445,-1.047,-1.0378,-1.0158,-1.0213,-0.9343,-0.8015,-0.9591,-1.0149,-1.0019,0.0,0.0,0.0,0.0,0.0,0.0,0.0,0.0,0.0,0.0,0.0,0.0,0.0,0.0,0.0,0.0,0.0,0.0,0.0,0.0,0.0,0.0,0.0,0.0,0.0,0.0,0.0,-1.2508,-1.2029,-1.1822,-1.1811,-1.1811,-1.1811,-1.1844,0.0,0.0,0.0,0.0,0.0,0.0,0.0,0.0,0.0,0.0,0.0,0.0,0.0,0.0,0.0,0.0,0.0,0.0,0.0,0.0,0.0,0.0,-1.0474,-1.124,-1.3161,-1.2764,-1.1823,-1.1761,-1.0151,-0.8292,0.0,0.0,-0.5908,-0.5454,-0.5428,-0.5428,-0.5428,-0.5428,-0.5413,-0.5569,-0.5966,0.0,-0.7061,0.0,0.0,0.0,0.0,-0.9517,-1.0412,-1.1196,-1.165,-1.165,-1.1545,-1.1548,-1.1553,-1.1564,-1.1584,-1.1392,-1.1392,-1.1318,-1.1165,-1.1023,-1.0951,-1.0948,-1.0795,-1.0721,-1.0721,-1.0744,-1.0755,-1.0755,-1.0755,-1.0737,-1.0624,-1.0224,-1.0201,-1.0361,-1.025,-1.0293,-1.0407,-1.0407,-1.0297,-1.0256,0.0,0.0,0.0,0.0,0.0,0.0,0.0,0.0,0.0,0.0,0.0,0.0,0.0,0.0,0.0,0.0,0.0,0.0,0.0,0.0,0.0,0.0,0.0,0.0,0.0,0.0,0.0,-1.2508,-1.2029,-1.1811,-1.1811,-1.1811,-1.1579,-1.1303,-1.2086,-1.2197,0.0,0.0,0.0,0.0,0.0,0.0,0.0,0.0,0.0,0.0,0.0,0.0,0.0,0.0,0.0,0.0,0.0,0.0,0.0,0.0,0.0,0.0,-1.0527,-1.0564,-1.0602,-1.0541,-0.953,-0.8329,-0.7808,0.0,-0.6695,-0.6352,-0.6793,-0.7181,-0.7181,-0.6658,-0.6443,-0.6911,-0.6616,0.0,0.0,0.0,0.0,-0.9001,-0.9852,-1.049,-1.0775,-1.0997,-1.1211,-1.1355,-0.889,-0.7472,-0.7647,-0.7587,-0.8871,-1.1447,-1.1233,-1.1101,-1.1207,-1.09,-1.0695,-1.0715,-1.0668,-1.0588,-1.0491,-1.0605,-1.0598,-1.0366,-0.8817,-0.9162,-1.061,-0.8694,-0.8724,-1.0141,-0.9975,-0.9952,-0.9945,-0.9945,-1.018,-1.0273,0.0,0.0,0.0,0.0,0.0,0.0,0.0,0.0,0.0,0.0,0.0,0.0,0.0,0.0,0.0,0.0,0.0,0.0,0.0,0.0,0.0,0.0,0.0,0.0,0.0,0.0,0.0,-1.2246,-1.1345,-1.0933,-1.0933,-1.0819,-1.0617,-1.0329,-1.1287,-1.1614,0.0,0.0,0.0,0.0,0.0,0.0,-1.1015,0.0,0.0,0.0,0.0,0.0,0.0,0.0,0.0,0.0,0.0,0.0,0.0,0.0,-0.8669,0.0,0.0,-1.0058,-1.0333,-1.0328,-0.9361,0.0,0.0,0.0,-0.6539,-0.6117,-0.6506,-0.6939,-0.6939,-0.6546,-0.6344,-0.6709,-0.6482,0.0,0.0,0.0,0.0,-0.8981,0.0,-1.07,-1.0575,-1.0883,-1.1233,-1.1389,-0.6405,-0.4032,-0.5737,-0.5822,-0.6945,-0.9321,-0.9142,-0.9721,-1.0941,-0.9454,-0.8734,-0.875,-0.875,-0.8576,-0.8503,-1.0031,-1.0578,-1.027,-0.7532,-0.7883,0.0,-0.8721,-0.8863,-1.0056,-0.9975,-0.9941,-0.9824,-0.8617,-0.824,-0.8338,0.0,0.0,0.0,0.0,0.0,0.0,0.0,0.0,0.0,0.0,0.0,0.0,0.0,0.0,0.0,0.0,0.0,0.0,0.0,0.0,0.0,0.0,0.0,0.0,0.0,-1.1362,-1.1144,-1.1718,-1.0234,-0.9496,-0.9533,-0.9216,-0.909,-0.9175,-1.0117,0.0,0.0,0.0,0.0,0.0,0.0,0.0,0.0,0.0,0.0,0.0,0.0,0.0,0.0,0.0,0.0,0.0,0.0,0.0,0.0,0.0,0.0,0.0,0.0,0.0,0.0,0.0,0.0,0.0,0.0,0.0,0.0,-0.5157,-0.5154,-0.5258,-0.5332,-0.5394,-0.5505,-0.555,-0.5974,0.0,0.0,-0.7336,0.0,0.0,-0.9774,-1.0314,-1.0169,-1.0732,-1.1246,-1.1556,-0.4429,-0.152,-0.5184,-0.5338,-0.543,-0.5363,-0.534,-0.68,-0.9853,-0.7123,-0.5765,-0.5759,-0.5227,-0.5225,-0.5748,-0.8637,-1.0145,-1.0385,-0.6513,-0.6825,-0.9838,-0.9886,-1.0063,-1.0083,-1.0073,-1.0073,-0.9712,-0.676,-0.5333,-0.5015,0.0,0.0,0.0,0.0,0.0,0.0,0.0,0.0,0.0,0.0,0.0,0.0,0.0,0.0,0.0,0.0,0.0,0.0,0.0,0.0,0.0,0.0,0.0,0.0,0.0,-1.0579,-1.0554,-1.1122,-1.004,-0.9591,-0.9795,-0.9342,-0.9221,-0.9452,-1.0043,0.0,0.0,0.0,0.0,0.0,0.0,0.0,0.0,0.0,0.0,0.0,-0.8978,-0.9013,0.0,0.0,0.0,0.0,0.0,0.0,0.0,0.0,-0.6686,-0.696,-0.7464,0.0,-0.8921,-0.9475,-0.8545,-0.7476,0.0,0.0,0.0,0.0,0.0,0.0,0.0,0.0,0.0,0.0,0.0,0.0,-0.7092,0.0,0.0,-0.9676,-1.0314,-1.0548,-1.0591,-1.0741,-1.0789,-1.0958,-0.4107,-0.0411,-0.136,-0.1351,-0.1348,-0.1353,-0.1351,-0.1753,-0.2555,-0.7143,-0.927,-0.8766,-0.3612,-0.3852,-0.8604,-0.4461,-0.5253,-0.9821,-0.6325,-0.6819,-0.9816,-1.0005,-1.0063,-1.0073,-0.9958,-0.9814,-0.9731,-0.9004,-0.711,-0.4965,0.0,0.0,0.0,0.0,0.0,0.0,0.0,0.0,0.0,0.0,0.0,0.0,0.0,0.0,0.0,0.0,0.0,0.0,0.0,0.0,0.0,0.0,0.0,0.0,0.0,0.0,-1.0398,-1.0956,-0.9742,-0.9269,-0.9512,-0.8855,-0.8706,-0.9033,-0.9699,0.0,0.0,0.0,0.0,0.0,-1.1266,0.0,0.0,0.0,0.0,0.0,-0.8704,-0.8717,0.0,-0.79,-0.737,-0.6923,0.0,0.0,0.0,0.0,-0.5664,-0.5714,-0.6041,-0.6778,-0.7572,-0.8014,-0.7548,-0.6902,0.0,0.0,0.0,0.0,0.0,0.0,0.0,0.0,0.0,0.0,-0.6472,0.0,0.0,0.0,-0.866,-0.7782,-0.8089,-0.8863,-1.0493,-1.0724,-0.9273,-0.6069,-0.2169,-0.0,-0.0,-0.0,-0.0,-0.0,-0.0,-0.0,-0.0,-0.3905,-0.71,-0.9805,-0.6164,-0.4775,-0.5274,-0.4807,-0.6377,-0.9713,-0.7875,-0.8103,-0.9823,-0.9895,-0.9958,-0.9848,-0.8147,-0.8515,-0.9804,-0.9814,-0.7678,-0.5058,0.0,0.0,0.0,0.0,0.0,0.0,0.0,0.0,0.0,0.0,0.0,0.0,0.0,0.0,0.0,0.0,0.0,0.0,0.0,0.0,0.0,0.0,0.0,0.0,0.0,0.0,0.0,0.0,-0.9408,-0.8864,-0.9041,-0.8311,-0.8156,-0.8501,-0.9344,0.0,0.0,0.0,-1.128,-1.0931,-1.1478,0.0,0.0,0.0,0.0,0.0,0.0,0.0,0.0,-0.7759,-0.6987,-0.6171,-0.5545,0.0,0.0,0.0,0.0,0.0,-0.5218,-0.5841,-0.6399,-0.6763,-0.6663,-0.6306,0.0,0.0,0.0,0.0,0.0,0.0,0.0,0.0,0.0,0.0,0.0,0.0,-0.6838,-0.7963,-0.7978,-0.5879,-0.4976,-0.5764,-0.8793,-0.9097,-0.6608,-0.0404,-0.0,-0.0,-0.0,-0.0,-0.0,-0.0,-0.0,-0.0,-0.0,-0.0,-0.2802,-0.8301,-0.9256,-0.6894,-0.1664,-0.7207,-0.9822,-0.98,-0.9747,-0.9804,-0.9784,-0.9761,-0.9836,-0.9483,-0.639,-0.6773,-0.9155,-0.9555,-0.8038,-0.6029,0.0,0.0,0.0,0.0,0.0,0.0,0.0,0.0,0.0,0.0,0.0,0.0,0.0,0.0,0.0,0.0,0.0,0.0,0.0,0.0,0.0,0.0,0.0,0.0,0.0,0.0,0.0,0.0,0.0,0.0,-0.8767,-0.8449,-0.8464,-0.8731,-0.912,-0.9361,-0.9502,-1.0173,-1.0706,-1.1137,-1.1232,0.0,0.0,0.0,0.0,0.0,0.0,0.0,0.0,-0.7224,-0.6671,-0.6323,-0.5054,0.0,0.0,0.0,0.0,0.0,-0.4625,-0.4836,-0.5254,-0.6344,-0.6168,-0.566,0.0,0.0,0.0,0.0,0.0,0.0,0.0,0.0,0.0,0.0,0.0,-0.3485,0.0,0.0,-0.8306,-0.901,-0.413,-0.1053,-0.153,-0.158,-0.1211,-0.0135,-0.0,-0.0,-0.0,-0.0,-0.0,-0.0,-0.0,-0.0,-0.0,-0.0,-0.0531,-0.1548,-0.7117,-0.9299,-0.8357,-0.9286,-0.98,-0.9764,-0.9818,-0.9747,-0.9764,-0.9839,-0.9836,-0.9605,-0.724,-0.6014,-0.6031,-0.8778,-0.9532,-0.9148,0.0,0.0,0.0,0.0,0.0,0.0,0.0,0.0,0.0,0.0,0.0,0.0,0.0,0.0,0.0,0.0,0.0,0.0,0.0,0.0,0.0,0.0,0.0,0.0,0.0,0.0,0.0,0.0,0.0,-0.8791,-0.8967,-0.8594,-0.8444,-0.8608,0.0,-0.8923,-0.8971,-0.9996,-1.06,-1.0921,0.0,0.0,0.0,0.0,0.0,0.0,0.0,0.0,0.0,0.0,-0.6588,-0.6372,-0.4952,0.0,0.0,0.0,0.0,0.0,-0.4519,-0.457,-0.4759,-0.5489,-0.5455,-0.521,0.0,0.0,0.0,0.0,0.0,0.0,0.0,0.0,-0.4601,-0.6017,0.0,-0.138,-0.1572,-0.2795,-0.3828,-0.4383,-0.1901,-0.0,-0.0,-0.0,-0.0,-0.0,-0.0,-0.0,-0.0,-0.0,-0.0,-0.0,-0.0,-0.0,-0.0,-0.0,-0.0,-0.0,-0.3106,-0.6304,-0.9774,-0.985,-0.9837,-0.9747,-0.9761,-0.9836,-0.9836,-0.9825,-0.9836,-0.9731,-0.8729,-0.7989,-0.775,-0.9239,-0.9859,-0.9859,0.0,0.0,0.0,0.0,0.0,0.0,0.0,0.0,0.0,0.0,0.0,0.0,0.0,0.0,0.0,0.0,0.0,0.0,0.0,0.0,0.0,0.0,0.0,0.0,0.0,0.0,-0.9143,-0.8985,-0.8594,-0.8582,-0.8997,-0.8614,-0.8337,-0.8306,0.0,-0.8814,-0.886,-1.0153,-1.0648,-1.0735,0.0,0.0,0.0,0.0,0.0,0.0,0.0,0.0,0.0,0.0,0.0,0.0,0.0,0.0,0.0,-0.4519,-0.4519,-0.4519,-0.4519,-0.4543,-0.4572,-0.4806,0.0,-0.4928,-0.5365,0.0,0.0,0.0,0.0,0.0,0.0,-0.3768,0.0,-0.4491,-0.2128,-0.0,-0.0,-0.0,-0.0,-0.0,-0.0,-0.0,-0.0,-0.0,-0.0,-0.0,-0.0,-0.0,-0.0,-0.0,-0.0,-0.0,-0.0,-0.0,-0.0,-0.0,-0.0,-0.0,-0.0,-0.266,-0.7552,-0.7495,-0.8364,-0.9781,-0.9859,-0.9836,-0.9829,-0.9829,-0.9836,-0.9846,-0.9846,-0.9846,-0.9846,-0.9829,-0.9822,-0.9822,0.0,0.0,0.0,0.0,0.0,0.0,0.0,0.0,0.0,0.0,0.0,0.0,0.0,0.0,0.0,0.0,0.0,0.0,0.0,0.0,0.0,0.0,0.0,0.0,0.0,-0.8939,-0.8736,-0.8712,-0.8712,-0.8618,-0.847,-0.8427,-0.823,-0.7949,0.0,-0.9079,-0.9166,-1.0354,-1.0874,-1.0864,-1.0916,0.0,0.0,0.0,0.0,0.0,0.0,0.0,0.0,0.0,0.0,0.0,0.0,0.0,-0.4519,-0.4519,-0.4519,-0.4519,-0.4519,-0.4565,-0.468,-0.4701,0.0,0.0,-0.5572,0.0,0.0,0.0,0.0,0.0,0.0,-0.2565,-0.0277,-0.0408,-0.0217,-0.0,-0.0,-0.0,-0.0,-0.0,-0.0,-0.0,-0.0,-0.0,-0.0,-0.0,-0.0,-0.0,-0.0,-0.0,-0.0,-0.0,-0.0,-0.0,-0.0,-0.0,-0.0,-0.0,-0.0,-0.0251,-0.0738,-0.0739,-0.4066,-0.9784,-0.9777,-0.9761,-0.9852,-0.9852,-0.9842,-0.9822,-0.9822,-0.9822,-0.9822,-0.9822,-0.9822,-0.9822,0.0,0.0,0.0,0.0,0.0,0.0,0.0,0.0,0.0,0.0,0.0,0.0,0.0,0.0,0.0,0.0,0.0,0.0,0.0,0.0,0.0,0.0,0.0,-0.8876,-0.9165,-0.8551,-0.813,-0.7948,-0.8103,-0.8174,-0.809,-0.7516,0.0,0.0,0.0,-0.7985,-0.8388,-0.9204,-0.9532,-0.9559,-0.9705,-0.9761,0.0,0.0,0.0,0.0,0.0,0.0,0.0,0.0,-0.6421,0.0,0.0,0.0,-0.4519,-0.4519,-0.4519,-0.4519,-0.4519,-0.4575,-0.4714,-0.4809,0.0,0.0,0.0,0.0,0.0,0.0,0.0,0.0,0.0,0.0,-0.0,-0.0,-0.0,-0.0,-0.0,-0.0,-0.0,-0.0,-0.0,-0.0,-0.0,-0.0,-0.0,-0.0,-0.0,-0.0,-0.0,-0.0,-0.0,-0.0,-0.0,-0.0,-0.0,-0.0,-0.0,-0.0,-0.0,-0.0,-0.0,-0.0,-0.1353,-0.3815,-0.591,-0.7099,-0.775,-0.9106,-0.9533,-0.9547,-0.9547,-0.9547,-0.9547,-0.9547,-0.9547,-0.9547,0.0,0.0,0.0,0.0,0.0,0.0,0.0,0.0,0.0,0.0,0.0,0.0,0.0,0.0,0.0,0.0,0.0,0.0,0.0,0.0,0.0,0.0,0.0,-0.8873,-0.8741,-0.8192,-0.7831,-0.7615,-0.7829,-0.7734,-0.7495,0.0,0.0,0.0,0.0,-0.712,-0.7384,-0.8154,-0.8401,-0.825,-0.8458,-0.8707,0.0,0.0,0.0,0.0,0.0,0.0,0.0,0.0,0.0,0.0,0.0,0.0,0.0,0.0,-0.4519,-0.4519,-0.4519,-0.4538,-0.4657,0.0,0.0,0.0,0.0,0.0,0.0,0.0,-0.5115,0.0,0.0,0.0,0.0,-0.0,-0.0,-0.0,-0.0,-0.0,-0.0,-0.0,-0.0,-0.0,-0.0,-0.0,-0.0,-0.0,-0.0,-0.0,-0.0,-0.0,-0.0,-0.0,-0.0,-0.0,-0.0,-0.0,-0.0,-0.0,-0.0,-0.0,-0.0,-0.0,-0.0977,-0.2957,-0.5244,-0.6043,-0.5875,-0.8376,-0.9375,-0.9381,-0.9381,-0.9381,-0.9381,-0.9381,-0.9381,-0.9381,0.0,0.0,0.0,0.0,0.0,0.0,0.0,0.0,0.0,0.0,0.0,0.0,0.0,0.0,0.0,0.0,0.0,0.0,0.0,0.0,0.0,0.0,0.0,-0.8999,-0.7953,-0.7919,-0.7896,-0.7875,-0.7875,-0.7436,-0.6606,-0.6606,0.0,0.0,0.0,0.0,-0.618,-0.7449,-0.7653,-0.7179,-0.7325,-0.7672,-0.8054,0.0,0.0,0.0,0.0,0.0,0.0,0.0,0.0,0.0,0.0,0.0,0.0,0.0,-0.4519,-0.4519,-0.4519,-0.4519,0.0,0.0,0.0,0.0,0.0,0.0,0.0,0.0,0.0,-0.0,-0.0,-0.0,-0.0,-0.0,-0.0,-0.0,-0.0,-0.0,-0.0,-0.0,-0.0,-0.0,-0.0,-0.0,-0.0,-0.0,-0.0,-0.0,-0.0,-0.0,-0.0,-0.0,-0.0,-0.0,-0.0,-0.0,-0.0,-0.0,-0.0,-0.0,-0.0,-0.0,-0.336,-0.8943,-0.8894,-0.7256,-0.4794,-0.792,-0.9278,-0.9378,-0.9378,-0.9378,-0.9378,-0.9378,-0.9378,-0.9378,0.0,0.0,0.0,0.0,0.0,0.0,0.0,0.0,0.0,0.0,0.0,0.0,0.0,0.0,0.0,0.0,0.0,0.0,0.0,0.0,0.0,0.0,0.0,0.0,0.0,0.0,-0.7715,-0.7244,-0.7244,-0.6937,0.0,0.0,0.0,-0.545,0.0,0.0,-0.5898,-0.6291,-0.6365,-0.6245,-0.6482,-0.6525,-0.6586,0.0,0.0,0.0,0.0,0.0,0.0,0.0,0.0,0.0,0.0,0.0,0.0,0.0,-0.4519,-0.4519,-0.4519,-0.4541,0.0,0.0,0.0,0.0,0.0,0.0,0.0,0.0,-0.0603,-0.0,-0.0,-0.0,-0.0,-0.0,-0.0,-0.0,-0.0,-0.0,-0.0,-0.0,-0.0,-0.0,-0.0,-0.0,-0.0,-0.0,-0.0,-0.0,-0.0,-0.0,-0.0,-0.0,-0.0,-0.0,-0.0,-0.0,-0.0,-0.0,-0.0,-0.0,-0.0119,-0.4378,-0.7259,-0.8891,-0.8921,-0.835,-0.7665,-0.8571,-0.8963,-0.9069,-0.9069,-0.9069,-0.9069,-0.9069,-0.9069,-0.9069,0.0,0.0,0.0,0.0,0.0,0.0,0.0,0.0,0.0,0.0,0.0,0.0,0.0,0.0,0.0,0.0,0.0,0.0,0.0,0.0,0.0,0.0,0.0,0.0,0.0,-0.8103,-0.7363,0.0,0.0,0.0,0.0,0.0,0.0,-0.4811,0.0,-0.4823,-0.5095,-0.5417,-0.5399,-0.5174,-0.5405,-0.557,-0.5743,0.0,0.0,0.0,0.0,0.0,0.0,0.0,0.0,0.0,0.0,0.0,0.0,-0.4791,-0.4519,-0.4519,-0.4519,0.0,0.0,0.0,0.0,0.0,0.0,0.0,0.0,0.0,0.0,-0.0,-0.0,-0.0,-0.0,-0.0,-0.0,-0.0,-0.0,-0.0,-0.0,-0.0,-0.0,-0.0,-0.0,-0.0,-0.0,-0.0,-0.0,-0.0,-0.0,-0.0,-0.0,-0.0,-0.0,-0.0,-0.0,-0.0,-0.0,-0.0,-0.0,-0.0,-0.0231,-0.6152,-0.8913,-0.8877,-0.8865,-0.8788,-0.8789,-0.8752,-0.8811,-0.8764,-0.8825,-0.8811,-0.8757,-0.8757,-0.8798,-0.8838,0.0,0.0,0.0,0.0,0.0,0.0,0.0,0.0,0.0,0.0,0.0,0.0,0.0,0.0,0.0,0.0,0.0,0.0,0.0,0.0,0.0,0.0,0.0,0.0,0.0,0.0,0.0,0.0,0.0,0.0,0.0,0.0,-0.4213,-0.388,0.0,-0.4445,-0.407,-0.4765,-0.4726,-0.4224,-0.4409,-0.4842,-0.5433,-0.5487,0.0,0.0,0.0,0.0,0.0,0.0,0.0,0.0,0.0,0.0,0.0,-0.4901,-0.4519,-0.4519,0.0,0.0,0.0,0.0,0.0,0.0,0.0,0.0,0.0,-0.6824,0.0,-0.061,-0.0103,-0.0,-0.0,-0.0,-0.0,-0.0,-0.0,-0.0,-0.0,-0.0,-0.0,-0.0,-0.0,-0.0,-0.0,-0.0,-0.0,-0.0,-0.0,-0.0,-0.0,-0.0,-0.0,-0.0,-0.0,-0.0443,-0.0781,-0.0781,-0.0781,-0.0558,-0.0558,-0.6289,-0.882,-0.8784,-0.8719,-0.8537,-0.8492,-0.8632,-0.8608,-0.8496,-0.8635,-0.8604,-0.8482,-0.8482,-0.857,-0.8669,0.0,0.0,0.0,0.0,0.0,0.0,0.0,0.0,0.0,0.0,0.0,0.0,0.0,0.0,0.0,0.0,0.0,0.0,0.0,0.0,0.0,0.0,0.0,0.0,0.0,0.0,0.0,0.0,0.0,0.0,0.0,0.0,0.0,-0.41,0.0,-0.4334,-0.4422,-0.4562,-0.4576,-0.4419,-0.4505,-0.457,-0.4787,-0.5324,-0.5706,0.0,0.0,0.0,0.0,0.0,0.0,0.0,0.0,-0.6475,-0.6317,-0.4901,-0.4525,-0.4477,0.0,0.0,0.0,0.0,0.0,0.0,0.0,0.0,-0.6029,-0.2444,-0.4121,-0.4945,-0.0814,-0.0,-0.0,-0.0,-0.0,-0.0,-0.0,-0.0,-0.0,-0.0,-0.0,-0.0,-0.0,-0.0,-0.0,-0.0,-0.0,-0.0,-0.0,-0.0,-0.0,-0.0,-0.0,-0.0,-0.0,-0.4209,-0.6283,-0.627,-0.627,-0.5173,-0.3222,-0.6684,-0.8256,-0.8386,-0.8518,-0.8547,-0.8482,-0.8516,-0.8513,-0.8486,-0.852,-0.8513,-0.8482,-0.8482,-0.8503,-0.8526,0.0,0.0,0.0,0.0,0.0,0.0,0.0,0.0,0.0,0.0,0.0,0.0,0.0,0.0,0.0,0.0,0.0,0.0,0.0,0.0,0.0,0.0,0.0,0.0,-0.8716,-0.7897,-0.7208,0.0,0.0,0.0,0.0,0.0,0.0,-0.4197,0.0,-0.4328,-0.4519,-0.4519,-0.4519,-0.4519,-0.4519,-0.4519,-0.4519,-0.4893,-0.5218,-0.5597,-0.6357,0.0,0.0,0.0,0.0,0.0,0.0,0.0,-0.6372,-0.5277,-0.4736,-0.4525,0.0,0.0,0.0,0.0,0.0,0.0,0.0,0.0,-0.6482,-0.1149,-0.2181,-0.327,-0.0506,-0.0,-0.0,-0.0,-0.0,-0.0,-0.0,-0.0,-0.0,-0.0,-0.0,-0.0,-0.0,-0.0,-0.0,-0.0,-0.0,-0.0,-0.0,-0.0,-0.0,-0.0,-0.0,-0.1275,-0.38,-0.6619,-0.8049,-0.804,-0.8027,-0.7223,-0.5981,-0.7505,-0.8143,-0.82,-0.8284,-0.834,-0.8275,-0.835,-0.8336,-0.8275,-0.835,-0.8336,-0.8269,-0.8269,-0.8316,-0.837,0.0,0.0,0.0,0.0,0.0,0.0,0.0,0.0,0.0,0.0,0.0,0.0,0.0,0.0,0.0,0.0,0.0,0.0,0.0,0.0,0.0,0.0,-0.9392,-0.8824,-0.874,-0.7681,-0.6893,0.0,0.0,0.0,0.0,0.0,0.0,-0.4234,0.0,-0.4351,-0.4522,-0.4519,-0.4519,-0.4522,-0.4519,-0.4519,-0.4519,-0.4519,-0.4842,-0.5324,-0.5433,-0.5873,-0.6421,-0.6534,0.0,0.0,0.0,0.0,-0.6258,-0.5546,-0.4952,-0.4522,0.0,0.0,0.0,0.0,0.0,0.0,0.0,0.0,-0.5337,-0.0948,-0.0,-0.0,-0.0,-0.0,-0.0,-0.0,-0.0,-0.0,-0.0,-0.0,-0.0,-0.0,-0.0,-0.0,-0.0,-0.0,-0.0,-0.0,-0.0,-0.0,-0.0,-0.0832,-0.1355,-0.1415,-0.0936,-0.2834,-0.7282,-0.7805,-0.7963,-0.796,-0.8043,-0.7965,-0.8051,-0.8166,-0.8157,-0.8047,-0.8133,-0.816,-0.8052,-0.8177,-0.8153,-0.8052,-0.818,-0.815,-0.8038,-0.8038,-0.8123,-0.8211,0.0,0.0,0.0,0.0,0.0,0.0,0.0,0.0,0.0,0.0,0.0,0.0,0.0,0.0,0.0,0.0,0.0,0.0,-1.1754,0.0,0.0,-1.077,-1.0002,-0.9329,-0.8883,-0.8168,-0.7197,0.0,0.0,0.0,0.0,0.0,0.0,-0.4433,0.0,0.0,-0.4477,-0.4522,-0.4522,-0.4477,-0.4522,-0.4519,-0.4519,-0.4519,-0.457,-0.4736,-0.5269,-0.5542,-0.576,-0.6367,-0.6642,0.0,0.0,0.0,-0.5487,-0.4842,-0.4577,-0.4477,0.0,0.0,0.0,0.0,0.0,0.0,0.0,0.0,-0.0834,0.0,-0.0,-0.0,-0.0,-0.0,-0.0,-0.0,-0.0,-0.0,-0.0,-0.0,-0.0,-0.0,-0.0,-0.0,-0.0,-0.0,-0.0,-0.0,-0.0,-0.0,-0.0,-0.4367,-0.6931,-0.6894,-0.4667,-0.3853,-0.4543,-0.6822,-0.7968,-0.8039,-0.8016,-0.7995,-0.7972,-0.7992,-0.7992,-0.7972,-0.8072,-0.8058,-0.8041,-0.8062,-0.8058,-0.8041,-0.8062,-0.8058,-0.8038,-0.8038,-0.8052,-0.8069,0.0,0.0,0.0,0.0,0.0,0.0,0.0,0.0,0.0,0.0,0.0,0.0,0.0,0.0,0.0,-1.2479,-1.2424,-1.2192,-1.1672,-1.1262,-1.0927,-1.0705,-0.9694,-0.902,-0.8788,-0.82,0.0,0.0,0.0,0.0,0.0,-0.4368,-0.4406,0.0,0.0,0.0,0.0,0.0,0.0,-0.4525,-0.4519,-0.4519,0.0,-0.4519,-0.4519,-0.4519,-0.4842,-0.4948,-0.5003,-0.5336,-0.566,-0.5923,-0.5597,0.0,0.0,0.0,-0.4794,0.0,0.0,0.0,0.0,0.0,0.0,0.0,0.0,0.0,-0.0,-0.0,-0.0,-0.0,-0.0,-0.0,-0.0,-0.0,-0.0,-0.0,-0.0,-0.0,-0.0,-0.0,-0.0,-0.0,-0.0,-0.0,-0.0,-0.0,-0.0,-0.1313,-0.4345,-0.669,-0.8019,-0.8006,-0.6874,-0.5541,-0.4016,-0.6659,-0.7982,-0.7955,-0.8045,-0.8038,-0.8038,-0.8038,-0.8038,-0.8038,-0.8038,-0.8038,-0.8038,-0.8038,-0.8038,-0.8038,-0.8038,-0.8038,-0.8038,-0.8038,-0.8038,-0.8038,0.0,0.0,0.0,0.0,0.0,0.0,0.0,0.0,0.0,0.0,0.0,0.0,0.0,0.0,0.0,0.0,-1.2309,-1.206,-1.1522,-1.0995,-1.0626,-1.0626,-0.9597,-0.8993,-0.8993,0.0,0.0,0.0,0.0,0.0,-0.4519,-0.4519,-0.4525,0.0,-0.4563,0.0,0.0,0.0,0.0,0.0,0.0,0.0,0.0,0.0,-0.4543,-0.457,-0.4532,-0.4514,-0.4572,-0.449,-0.4845,-0.523,-0.5254,-0.5381,0.0,0.0,0.0,0.0,0.0,0.0,0.0,0.0,0.0,0.0,0.0,0.0,-0.0642,-0.0082,-0.0,-0.0,-0.0,-0.0,-0.0,-0.0,-0.0,-0.0,-0.0,-0.0,-0.0,-0.0,-0.0,-0.0,-0.0,-0.1098,-0.1792,-0.1792,-0.1299,-0.2699,-0.6688,-0.7563,-0.7985,-0.7928,-0.7965,-0.7059,-0.5018,-0.7009,-0.798,-0.7929,-0.7963,-0.7963,-0.7929,-0.7967,-0.7963,-0.7929,-0.7967,-0.8004,-0.8035,-0.7997,-0.8004,-0.8038,-0.8038,-0.8038,-0.8038,-0.8038,-0.8038,-0.8038,0.0,0.0,0.0,0.0,0.0,0.0,0.0,0.0,0.0,0.0,0.0,0.0,-1.3856,-1.3338,-1.2802,-1.2352,-1.2288,-1.1997,-1.1277,-1.0968,-1.0814,-1.0814,-1.0112,0.0,-0.9761,-0.841,0.0,0.0,0.0,0.0,-0.4519,-0.4519,-0.4525,-0.4484,-0.4619,-0.4606,-0.4487,0.0,0.0,0.0,0.0,0.0,0.0,0.0,-0.4551,-0.466,-0.457,-0.4596,-0.4743,-0.4575,-0.45,-0.4566,-0.4525,-0.4535,-0.4265,0.0,0.0,0.0,0.0,0.0,0.0,0.0,0.0,0.0,0.0,0.0,-0.236,-0.0388,-0.0,-0.0,-0.0,-0.0,-0.0,-0.0,-0.0,-0.0,-0.0,-0.0,-0.0,-0.0,-0.0,-0.0,-0.0,-0.4068,-0.6733,-0.6733,-0.4863,-0.3789,-0.3813,-0.6522,-0.7908,-0.7761,-0.7898,-0.7962,-0.7839,-0.7798,-0.7756,-0.7624,-0.7756,-0.7753,-0.7628,-0.7763,-0.775,-0.7631,-0.7767,-0.7906,-0.8028,-0.7882,-0.7909,-0.8038,-0.8038,-0.8038,-0.8038,-0.8038,-0.8038,-0.8038,0.0,0.0,0.0,0.0,0.0,0.0,0.0,0.0,0.0,0.0,0.0,0.0,0.0,-1.2666,-1.2268,-1.1662,-1.1425,-1.1252,-1.0961,-1.0444,-1.0167,-1.0167,-0.951,-0.8942,-0.8455,-0.7984,0.0,0.0,0.0,-0.5164,-0.4519,-0.4519,-0.4525,-0.448,-0.4524,-0.4521,-0.4484,-0.4524,0.0,0.0,0.0,0.0,0.0,0.0,-0.4589,-0.4588,-0.4683,-0.4713,-0.4616,-0.469,-0.3931,-0.3003,-0.2998,-0.3679,-0.399,-0.1522,-0.2571,-0.4265,0.0,0.0,0.0,0.0,0.0,0.0,-0.5189,-0.5526,-0.4585,-0.0793,-0.0,-0.0,-0.0,-0.0,-0.0,-0.0,-0.0,-0.0,-0.0,-0.0,-0.0,-0.0,-0.0,-0.0,-0.0,-0.4315,-0.7102,-0.7102,-0.7406,-0.7182,-0.6078,-0.7806,-0.8408,-0.7685,-0.774,-0.7763,-0.7756,-0.7702,-0.7651,-0.76,-0.7651,-0.7695,-0.7733,-0.7692,-0.7695,-0.7729,-0.759,-0.7668,-0.7889,-0.7834,-0.7899,-0.8038,-0.8038,-0.8038,-0.8137,-0.892,-0.8726,-0.8137,0.0,0.0,0.0,0.0,0.0,0.0,0.0,0.0,0.0,0.0,0.0,0.0,0.0,0.0,-1.154,-1.109,-1.0464,-1.0084,-1.0084,-0.9214,-0.8705,-0.8705,-0.8302,-0.783,-0.7343,-0.7069,0.0,0.0,0.0,0.0,0.0,-0.4522,-0.4473,-0.448,-0.4522,-0.4525,0.0,0.0,0.0,-0.4451,0.0,0.0,-0.4588,-0.4639,-0.4641,-0.4616,-0.4163,-0.4371,-0.4832,-0.4852,-0.3308,-0.1453,-0.1484,-0.2187,-0.2625,-0.0582,-0.1433,-0.2963,-0.2961,0.0,0.0,0.0,0.0,-0.327,-0.4278,-0.5417,-0.5631,-0.3403,-0.1413,-0.0,-0.0,-0.0958,-0.1432,-0.0175,-0.0,-0.0,-0.0,-0.0,-0.0,-0.0,-0.1407,-0.2342,-0.2358,-0.5263,-0.7134,-0.7134,-0.8272,-0.8428,-0.7359,-0.8195,-0.834,-0.7597,-0.76,-0.755,-0.7444,-0.7444,-0.7421,-0.7377,-0.7424,-0.7495,-0.7584,-0.7543,-0.7546,-0.7573,-0.738,-0.7465,-0.7736,-0.7685,-0.778,-0.796,-0.8448,-0.8678,-0.8825,-1.0194,-1.0092,-0.941,0.0,0.0,0.0,0.0,0.0,0.0,0.0,0.0,0.0,-1.4392,0.0,0.0,0.0,0.0,0.0,-1.0762,-0.9459,-0.8678,-0.8678,-0.7374,-0.6588,-0.6588,-0.6588,-0.6588,-0.6588,-0.5869,0.0,0.0,0.0,0.0,0.0,0.0,-0.4477,-0.448,-0.4522,-0.4477,-0.4514,0.0,-0.4687,-0.4392,0.0,-0.3707,-0.4779,-0.4601,-0.4712,-0.4807,-0.2925,-0.3528,-0.5299,-0.5004,-0.2766,-0.0133,-0.0063,-0.0,-0.0,-0.0,-0.0,-0.0648,0.0,0.0,0.0,0.0,0.0,0.0,-0.3663,-0.4351,-0.52,-0.8,-0.4032,-0.007,-0.014,-0.2999,-0.4187,-0.0746,-0.0086,-0.0087,-0.0087,-0.0089,-0.009,-0.0092,-0.4176,-0.6995,-0.7047,-0.7085,-0.7074,-0.7074,-0.7275,-0.7282,-0.7136,-0.7414,-0.758,-0.7573,-0.7577,-0.7434,-0.7129,-0.7129,-0.7058,-0.6922,-0.7061,-0.7132,-0.7146,-0.7292,-0.7282,-0.7146,-0.7143,-0.7399,-0.7667,-0.7523,-0.7543,-0.7901,-0.9232,-0.9824,-1.0186,-1.1448,-1.194,-1.195,0.0,0.0,0.0,0.0,0.0,0.0,0.0,0.0,0.0,0.0,0.0,0.0,-1.134,-1.061,-1.0064,-1.0064,-0.881,-0.7972,-0.7972,-0.7122,-0.6588,-0.6588,-0.6588,-0.6367,-0.5814,-0.5597,0.0,0.0,0.0,0.0,0.0,0.0,0.0,0.0,-0.4525,-0.4594,-0.4775,-0.4635,0.0,-0.3587,-0.3326,-0.3946,-0.5026,-0.4964,-0.4433,-0.3658,-0.2864,-0.2911,-0.3616,-0.4829,-0.4662,-0.3416,-0.0838,-0.0,-0.0,-0.0,-0.0,-0.0176,-0.103,0.0,0.0,0.0,0.0,0.0,0.0278,-0.0451,-0.1788,-0.3613,-0.272,-0.193,-0.3033,-0.3386,-0.353,-0.3832,-0.2994,-0.2229,-0.2229,-0.2273,-0.2225,-0.2238,-0.343,-0.4894,-0.6678,-0.6803,-0.677,-0.677,-0.7431,-0.7571,-0.6817,-0.7007,-0.7065,-0.6953,-0.7058,-0.7021,-0.6824,-0.682,-0.6803,-0.6763,-0.6803,-0.6936,-0.7139,-0.7078,-0.7577,-0.8539,-0.8416,-0.8945,-0.966,-0.8057,-0.7485,-0.7749,-0.8957,-0.9626,-1.0079,-1.2173,-1.2475,-1.2042,0.0,0.0,0.0,0.0,0.0,0.0,0.0,0.0,0.0,0.0,0.0,0.0,-1.0012,-0.9731,-0.939,-0.8942,-0.8027,-0.7231,-0.6799,-0.6174,-0.5801,-0.5719,-0.5797,-0.5575,-0.5113,-0.5058,0.0,0.0,0.0,0.0,0.0,0.0,0.0,0.0,0.0,0.0,0.0,0.0,0.0,0.0,-0.3268,-0.44,-0.5172,-0.4974,-0.4546,-0.4137,-0.3941,-0.383,-0.3964,-0.5049,-0.4916,-0.3889,-0.1778,-0.0591,-0.0,-0.0,-0.0,-0.0,-0.0,-0.0,0.0,-0.0,0.0,0.0,0.1061,-0.0335,-0.1402,0.0229,-0.0412,-0.1152,-0.0803,-0.1103,-0.1952,-0.3713,-0.3471,-0.3288,-0.4108,-0.4236,-0.4245,-0.441,-0.4442,-0.4984,-0.6482,-0.6646,-0.6636,-0.6636,-0.7189,-0.7248,-0.6695,-0.6783,-0.6793,-0.6705,-0.6787,-0.6759,-0.6607,-0.6607,-0.6607,-0.6607,-0.6607,-0.6729,-0.6956,-0.7443,-0.8002,-0.8727,-0.9383,-0.9823,-1.0189,-0.9108,-0.88,-0.9054,-1.0318,-1.09,-1.1387,-1.345,-1.3878,-1.3452,0.0,0.0,0.0,0.0,0.0,0.0,0.0,0.0,0.0,0.0,-1.0064,-0.9472,-0.8904,-0.903,-0.8809,-0.7877,-0.7399,-0.6695,-0.5614,-0.5034,-0.4657,-0.4573,-0.4643,-0.4653,-0.4573,-0.457,0.0,0.0,0.0,0.0,0.0,0.0,0.0,0.0,0.0,0.0,0.0,0.0,0.0,-0.0798,-0.347,-0.4751,-0.509,-0.4758,-0.4829,-0.5202,-0.5343,-0.541,-0.5403,-0.5386,-0.4359,-0.2945,-0.2544,-0.1543,-0.0538,-0.0134,-0.0258,0.0,0.0,0.0,0.0,-0.0,-0.0,0.0,-0.0,-0.2074,-0.241,0.3324,0.2239,0.0993,0.3523,0.2019,-0.019,-0.1769,-0.2654,-0.376,-0.548,-0.5754,-0.5931,-0.6157,-0.6267,-0.6318,-0.6535,-0.6528,-0.66,-0.66,-0.66,-0.661,-0.6624,-0.6723,-0.6805,-0.6788,-0.6884,-0.6905,-0.6846,-0.6745,-0.6745,-0.6607,-0.6607,-0.6687,-0.6926,-0.8054,-0.863,-0.8673,-1.0114,-1.048,-1.0146,-1.0742,-1.0865,-1.0873,-1.2224,-1.2833,-1.3182,-1.4734,-1.5317,-1.5384,-1.3014,0.0,0.0,0.0,0.0,0.0,0.0,0.0,0.0,0.0,-0.9061,-0.9051,-0.9132,-0.915,-0.8963,-0.8316,-0.7672,-0.6856,-0.5944,-0.5269,-0.486,-0.483,-0.486,-0.486,-0.483,-0.483,0.0,0.0,0.0,0.0,0.0,0.0,0.0,0.0,0.0,0.0,0.0,0.0,0.0,-0.3939,-0.4543,-0.4187,-0.3396,-0.4688,-0.4694,-0.409,-0.5062,-0.5396,-0.5372,-0.5376,-0.5173,-0.4361,-0.1472,-0.2283,-0.3761,-0.0851,-0.2067,-0.3685,-0.0784,-0.0,-0.0,-0.0,-0.0,0.0,-0.0,-0.0447,0.0168,0.3772,0.3042,0.1577,0.1015,0.0465,-0.0238,-0.1188,-0.3257,-0.4882,-0.5437,-0.5641,-0.5785,-0.5745,-0.5854,-0.5875,-0.5979,-0.5979,-0.5976,-0.5976,-0.5976,-0.603,-0.6152,-0.7042,-0.7512,-0.7362,-0.8183,-0.8707,-0.8751,-0.8496,-0.8045,-0.7529,-0.7529,-0.7618,-0.7789,-0.7977,-0.9096,-1.0842,-1.1179,-1.1751,-1.2498,-1.2915,-1.198,-1.0429,-1.1809,-1.2563,-1.2981,-1.4209,-1.4843,-1.5057,-1.1944,0.0,0.0,0.0,0.0,0.0,0.0,0.0,0.0,0.0,-0.9152,-0.9299,-0.9446,-0.9593,-0.9318,-0.8539,-0.7871,-0.7109,-0.6173,-0.5409,-0.4992,-0.4921,-0.4986,-0.4992,-0.4921,-0.4918,0.0,0.0,0.0,0.0,0.0,0.0,0.0,0.0,0.0,0.0,0.0,0.0,-0.4827,-0.4718,-0.3904,-0.2654,-0.1644,-0.437,-0.5004,-0.4573,-0.5196,-0.5386,-0.5428,-0.5369,-0.5372,-0.5106,-0.3278,-0.3351,-0.3754,-0.2242,-0.2864,-0.3834,-0.2747,-0.1249,-0.0,-0.0,-0.0,0.0,0.0,-0.2232,-0.184,-0.0622,-0.0781,-0.1215,-0.1637,-0.1494,-0.1394,-0.1804,-0.3148,-0.4559,-0.545,-0.5538,-0.544,-0.5369,-0.5423,-0.5498,-0.5576,-0.565,-0.5725,-0.5796,-0.58,-0.5833,-0.5911,-0.65,-0.6946,-0.7287,-0.781,-0.842,-0.9045,-0.8851,-0.8689,-0.8542,-0.8542,-0.8593,-0.869,-0.9335,-1.0162,-1.1188,-1.2024,-1.2472,-1.2806,-1.34,-1.2889,-1.1811,-1.2788,-1.3291,-1.3515,-1.4195,-1.4616,-1.4763,-1.0813,0.0,0.0,0.0,0.0,0.0,0.0,0.0,0.0,0.0,-0.9486,-0.9639,-0.9753,-0.9927,-0.97,-0.8902,-0.8292,-0.7628,-0.6696,-0.5994,-0.5561,-0.525,-0.536,-0.5308,-0.5006,-0.5003,-0.5003,0.0,0.0,0.0,0.0,0.0,0.0,0.0,0.0,0.0,0.0,0.0,0.0,-0.4709,-0.3308,-0.1829,-0.0845,-0.3751,-0.5081,-0.5403,-0.5393,-0.5376,-0.5428,-0.5428,-0.5369,-0.5376,-0.5369,-0.4422,-0.3349,-0.3818,-0.3624,-0.3476,-0.465,-0.299,-0.0769,-0.0171,-0.0,-0.0791,0.0,0.0,0.0,-0.6294,-0.6078,-0.5525,-0.4664,-0.3886,-0.3377,-0.3452,-0.3812,-0.4549,-0.5787,-0.562,-0.5381,-0.5472,-0.5439,-0.5586,-0.5756,-0.5762,-0.5765,-0.5705,-0.5688,-0.5698,-0.5755,-0.6111,-0.66,-0.7306,-0.7654,-0.8311,-0.931,-0.9267,-0.9295,-0.9388,-0.951,-0.9531,-0.9536,-1.0614,-1.1071,-1.1186,-1.2428,-1.2759,-1.2365,-1.3213,-1.3427,-1.3267,-1.3854,-1.4088,-1.4115,-1.4349,-1.4436,-1.4469,-0.9969,-0.9361,0.0,0.0,0.0,0.0,0.0,0.0,0.0,0.0,-0.9432,-0.9429,-1.0013,-0.9866,-0.9726,-0.9598,-0.9274,-0.8851,-0.8164,-0.7821,-0.733,-0.653,-0.6481,-0.6163,-0.5377,-0.5311,-0.5311,-0.5311,0.0,0.0,0.0,0.0,0.0,0.0,-0.4958,0.0,0.0,0.0,-0.4819,-0.4894,-0.4819,-0.3836,-0.2466,-0.2878,-0.4028,-0.5379,-0.5369,-0.5428,-0.5428,-0.5428,-0.5428,-0.5432,-0.5386,-0.5249,-0.5109,-0.5196,-0.5176,-0.512,-0.5314,-0.4871,-0.3645,-0.0711,-0.0,-0.0814,-0.3798,0.0,-1.1622,-1.0414,0.0,-1.034,-0.8543,0.0,0.0,-0.6752,-0.6892,-0.6838,-0.6574,-0.6449,-0.649,-0.6673,-0.6802,-0.6997,-0.7207,-0.6687,-0.6081,-0.5466,-0.5284,-0.5325,-0.5599,-0.7177,-0.8122,-0.8258,-0.9752,-1.0699,-1.1119,-1.0873,-1.0405,-0.9828,-1.0122,-1.0304,-1.0315,-1.0638,-1.1347,-1.215,-1.2297,-1.2365,-1.2351,-1.2993,-1.324,-1.3267,-1.3854,-1.4088,-1.4088,-1.4122,-1.4135,-1.4142,-0.9309,-0.9008,0.0,0.0,0.0,0.0,0.0,0.0,0.0,0.0,-1.0127,-1.0347,-1.0595,-1.0668,-1.0712,-1.0664,-0.9977,-0.9406,-0.9164,-0.8412,-0.7625,-0.6881,-0.6713,-0.6316,-0.5559,-0.5406,-0.5428,-0.5428,-0.5428,0.0,0.0,0.0,0.0,0.0,-0.5033,0.0,-0.5135,0.0,-0.525,-0.5315,-0.5379,-0.4962,-0.4384,-0.4322,-0.477,-0.5376,-0.5432,-0.5428,-0.5428,-0.5428,-0.542,-0.5494,-0.5504,-0.5504,-0.5504,-0.5511,-0.545,-0.5348,-0.5264,-0.5294,-0.4945,-0.306,-0.2111,-0.226,-0.5063,-0.8512,-1.1066,-1.0573,0.0,0.0,0.0,0.0,0.0,0.0,-0.685,-0.7131,-0.7203,-0.7616,-0.7597,-0.6824,-0.6748,-0.6721,-0.6515,-0.6593,-0.644,-0.5774,-0.6178,-0.6324,-0.5963,-0.6911,-0.7432,-0.7432,-0.8093,-0.8865,-0.9655,-0.9556,-0.9775,-1.032,-1.0278,-1.0706,-1.1522,-1.1478,-1.1767,-1.2305,-1.2305,-1.2305,-1.2331,-1.2766,-1.2946,-1.2999,-1.3594,-1.3935,-1.4088,-1.4088,-1.4088,-1.4088,-0.9785,0.0,0.0,0.0,0.0,0.0,0.0,0.0,-1.0267,-1.0347,-1.0655,-1.0935,-1.1096,-1.1296,-1.149,-1.165,-1.0842,-1.0276,-1.0276,-0.9209,-0.8159,-0.7261,-0.6961,-0.6451,-0.5589,-0.5518,-0.5464,-0.5423,0.0,0.0,0.0,0.0,0.0,0.0,0.0,-0.5152,-0.5206,0.0,-0.5488,-0.5528,-0.5528,-0.5528,-0.5518,-0.5423,-0.5379,-0.5372,-0.5432,-0.5428,-0.5428,-0.5428,-0.5437,-0.5535,-0.5652,-0.5662,-0.5599,-0.5713,-0.5648,-0.546,-0.5311,-0.5223,-0.515,-0.488,-0.4426,-0.4493,-0.6184,-0.848,-1.0165,-0.984,-1.0552,0.0,0.0,0.0,-0.7208,-0.643,0.0,-0.7277,-0.7645,-0.8321,-0.8427,-0.7343,-0.7296,-0.7044,-0.636,-0.6874,-0.6974,-0.6316,-0.6935,-0.713,-0.6559,-0.6757,-0.6988,-0.7042,-0.7046,-0.7442,-0.8266,-0.8533,-0.9181,-1.0247,-1.0402,-1.1013,-1.2058,-1.2011,-1.2104,-1.2305,-1.2305,-1.2305,-1.2331,-1.2719,-1.2872,-1.2933,-1.3534,-1.3901,-1.4088,-1.4088,-1.4088,-1.4088,-1.2006,-1.106,0.0,0.0,0.0,0.0,0.0,-1.0354,-1.0712,-1.0929,-1.0735,-1.0788,-1.1349,-1.1416,-1.1657,-1.2225,-1.2011,-1.1844,-1.1844,-1.0563,-0.9298,-0.7992,-0.7422,-0.6635,-0.5593,-0.5722,-0.5722,-0.5583,0.0,0.0,0.0,0.0,0.0,0.0,0.0,-0.5213,-0.5345,-0.5206,-0.5233,-0.5435,-0.5435,-0.5435,-0.5435,-0.5432,-0.5428,-0.5428,-0.5428,-0.5428,-0.5428,-0.5428,-0.5432,-0.5466,-0.5841,-0.5814,-0.562,-0.5915,-0.5875,-0.5755,-0.5613,-0.4665,-0.3988,-0.5345,-0.651,-0.7235,-0.6862,-0.9101,-1.0733,-0.8768,-1.035,-1.1425,-0.9369,-0.8363,-0.7835,-0.7683,-0.7757,0.0,0.0,-0.8321,-0.8804,-0.8752,-0.8943,-0.8722,-0.7758,-0.7964,-0.7824,-0.6914,-0.6924,-0.7056,-0.7417,-0.7447,-0.7613,-0.7957,-0.7962,-0.7967,-0.8037,-0.8823,-0.9291,-0.9379,-1.0686,-1.1368,-1.147,-1.2031,-1.2291,-1.2305,-1.2305,-1.2305,-1.2351,-1.2946,-1.32,-1.3253,-1.3841,-1.4082,-1.4088,-1.4088,-1.4088,-1.4088,0.0,0.0,0.0,0.0,0.0,0.0,-1.0367,-1.0661,-1.1022,-1.151,-1.1824,-1.2231,-1.2832,-1.3066,-1.3186,-1.3193,-1.31,-1.2872,-1.2553,-1.1866,-1.0957,-0.9608,-0.9254,-0.8313,-0.6643,-0.6691,-0.641,-0.5728,-0.5637,0.0,0.0,0.0,0.0,0.0,0.0,-0.5794,0.0,0.0,0.0,-0.638,-0.638,-0.6045,-0.5501,-0.5466,-0.5428,-0.5428,-0.5428,-0.5428,-0.5428,-0.5428,-0.543,-0.5525,-0.5717,-0.5731,-0.5722,-0.5751,-0.5744,-0.5734,-0.5828,-0.5461,-0.5064,-0.5418,-0.63,-0.7157,-0.737,-0.8684,-1.0063,-1.0753,-1.0989,-1.0325,-0.8033,-0.7423,-0.7354,-0.7517,-0.7924,-0.8315,0.0,-0.8764,-0.8804,-0.8804,-0.8891,-0.8584,-0.7788,-0.8242,-0.8292,-0.7466,-0.8483,-0.8944,-0.8495,-0.828,-0.7938,-0.7458,-0.672,-0.6272,-0.6272,-0.6601,-0.7451,-0.8947,-0.9287,-1.0315,-1.2004,-1.2011,-1.2124,-1.2305,-1.2305,-1.2305,-1.2318,-1.2525,-1.2726,-1.2946,-1.3347,-1.3627,-1.3814,-1.4015,-1.4088,-1.4142,-1.3905,0.0,0.0,0.0,-1.1316,-1.0733,-1.0732,-1.1049,-1.1516,-1.2177,-1.2699,-1.3253,-1.3748,-1.4062,-1.4162,-1.3975,-1.3861,-1.3547,-1.2953,-1.242,-1.1633,-1.0503,-1.0056,-0.9222,-0.7993,-0.7559,-0.7165,-0.6957,-0.6144,-0.5976,0.0,0.0,0.0,0.0,0.0,-0.6456,-0.6869,-0.6672,-0.6835,-0.7306,-0.7306,-0.6974,-0.6435,-0.6382,-0.6184,-0.5896,-0.5903,-0.6079,-0.6338,-0.6338,-0.6348,-0.6391,-0.6112,-0.6172,-0.6208,-0.5761,-0.5711,-0.5806,-0.5846,-0.5783,-0.5713,-0.5491,-0.6234,-0.7022,-0.7358,-0.8146,-0.9232,-1.0568,-1.0021,-0.8662,-0.6679,-0.7414,-0.8254,-0.8351,-0.8733,-0.9014,0.0,-0.8769,-0.8586,-0.9106,-0.8962,-0.8593,-0.8156,-0.8533,-0.8586,-0.8103,-0.9379,-0.9911,-0.946,-0.8737,-0.816,-0.7696,-0.6169,-0.5428,-0.5428,-0.5686,-0.6781,-0.8518,-0.8879,-1.0037,-1.1991,-1.2011,-1.2124,-1.2305,-1.2305,-1.2305,-1.2318,-1.2532,-1.2672,-1.2876,-1.332,-1.3574,-1.3681,-1.3975,-1.4088,-1.4168,-1.5352,-1.4103,-1.3107,-1.3406,-1.2494,-1.16,-1.11,-1.1523,-1.2124,-1.2788,-1.3327,-1.3828,-1.4142,-1.4422,-1.4576,-1.4563,-1.4322,-1.3921,-1.3333,-1.2394,-1.1546,-1.0755,-0.9985,-0.9554,-0.9588,-0.8193,-0.8024,-0.9124,-0.7064,0.0,0.0,0.0,0.0,0.0,-0.6948,0.0,-0.715,-0.802,-0.823,-0.8027,-0.8027,-0.8032,-0.8042,-0.8032,-0.7636,-0.698,-0.6854,-0.7307,-0.8027,-0.8027,-0.8027,-0.7867,-0.7135,-0.6982,-0.6924,-0.6065,-0.5888,-0.5945,-0.5664,-0.5684,-0.5749,-0.563,-0.6324,-0.7091,-0.6919,-0.7568,-0.8248,-0.8446,-0.7726,-0.6819,-0.572,-0.8275,-1.0454,-1.0073,-1.008,-0.9919,-0.9339,-0.8463,-0.8394,-0.9703,-0.9292,-0.8923,-0.8857,-0.8804,-0.8804,-0.8804,-0.9413,-0.9948,-1.027,-0.8915,-0.8238,-0.847,-0.6544,-0.5498,-0.5439,-0.6338,-0.719,-0.8083,-0.9463,-1.0604,-1.149,-1.2044,-1.2305,-1.2305,-1.2305,-1.2305,-1.2345,-1.2926,-1.2999,-1.2909,-1.3701,-1.3888,-1.3701,-1.3981,-1.4095,-1.4188,-1.451,-1.383,-1.2932,-1.1843,-1.1396,-1.1231,-1.1269,-1.2004,-1.2739,-1.3333,-1.4122,-1.4816,-1.5324,-1.5451,-1.5411,-1.519,-1.5297,-1.513,-1.4549,-1.4335,-1.377,-1.2902,-1.2616,-1.1872,-1.0501,-1.0307,-0.9905,-0.921,-0.7786,0.0,-0.8748,0.0,0.0,0.0,0.0,0.0,-0.9941,-0.8888,-0.823,-0.8027,-0.8683,-0.8657,-0.8194,-0.8749,-0.8892,-0.873,-0.7972,-0.7827,-0.8027,-0.8027,-0.8027,-0.7837,-0.7038,-0.6857,-0.6781,-0.5777,-0.5583,-0.5688,-0.561,-0.5535,-0.5518,-0.5701,-0.6386,-0.6965,-0.7057,-0.7776,-0.8623,-0.9077,-0.8965,-0.8669,-0.8399,-1.0188,-1.1467,-1.0488,-1.1255,-1.1371,-0.9785,-1.0382,-1.0863,-1.065,-1.0755,-1.0446,-0.9636,-0.9106,-0.8804,-0.8804,-0.9413,-0.9851,-0.9941,-0.9395,-0.8814,-0.8221,-0.7613,-0.673,-0.5532,-0.6928,-0.8076,-0.8841,-0.9706,-1.0802,-1.2084,-1.2231,-1.2305,-1.2305,-1.2305,-1.2305,-1.2311,-1.2472,-1.2619,-1.2869,-1.3253,-1.3654,-1.3981,-1.4055,-1.4222,-1.4429,-1.4441,-1.3788,-1.2899,-1.1642,-1.1703,-1.1971,-1.1997,-1.2425,-1.3091,-1.3741,-1.4496,-1.5084,-1.5418,-1.5678,-1.5765,-1.5598,-1.5618,-1.5444,-1.499,-1.4843,-1.4489,-1.3868,-1.3594,-1.291,-1.174,-1.1115,-1.0703,-1.041,-0.8866,0.0,-0.9965,0.0,0.0,0.0,0.0,-1.1035,-1.1909,-1.0702,-1.0133,-1.0149,-0.9937,-0.9681,0.0,-0.9756,-0.9943,-0.9919,-0.9309,-0.9128,-0.9128,-0.9128,-0.8871,-0.842,-0.7567,-0.7118,-0.6699,-0.567,-0.5471,-0.5576,-0.5508,-0.5477,-0.5515,-0.5745,-0.614,-0.6647,-0.7173,-0.7699,-0.8489,-0.9674,-0.9808,-0.9863,-1.0396,-1.1417,-1.2042,-1.1685,-1.1842,-1.1807,-1.1047,-1.0925,-1.1107,-1.157,-1.08,-1.0405,-1.0635,-0.9814,-0.9106,-0.8804,-0.9413,-0.9814,-0.9814,-0.9528,-0.9311,-0.9221,-0.8747,-0.8122,-0.7194,-0.8436,-0.9162,-0.9379,-1.0239,-1.1153,-1.2118,-1.2245,-1.2305,-1.2305,-1.2305,-1.2305,-1.2311,-1.2445,-1.2518,-1.2599,-1.3039,-1.3494,-1.3908,-1.4041,-1.4195,-1.4369,-1.4447,-1.364,-1.287,-1.208,-1.2672,-1.32,-1.3091,-1.3091,-1.3393,-1.4102,-1.4716,-1.5077,-1.5077,-1.5524,-1.5832,-1.5832,-1.5598,-1.5344,-1.5097,-1.4796,-1.4509,-1.4215,-1.3641,-1.316,-1.2889,-1.1396,-1.1116,-1.1924,-0.9974,0.0,0.0,0.0,0.0,0.0,0.0,0.0,0.0,-1.2704,-1.2644,-1.2594,-1.1265,-1.0822,-1.1022,-1.0768,-1.0648,-1.0678,-1.0678,-1.0658,-1.0624,-1.0624,-1.0047,-0.9139,-0.842,-0.7631,-0.6869,-0.5859,-0.5652,-0.5665,-0.5463,-0.5457,-0.5593,-0.5739,-0.5961,-0.637,-0.727,-0.7734,-0.8411,-1.0243,-1.0479,-1.0645,-1.1533,-1.1934,-1.2255,-1.2752,-1.2221,-1.1988,-1.2555,-1.1115,-1.0724,-1.2511,-1.0698,0.0,-1.1897,-1.0751,-0.9666,-0.8956,-0.9458,-0.9784,-0.9725,-0.9667,-0.9907,-1.0493,-0.991,-0.947,-0.9274,-1.0147,-1.0341,-0.987,-1.1025,-1.1702,-1.1937,-1.2184,-1.2305,-1.2305,-1.2305,-1.2305,-1.2318,-1.2579,-1.2585,-1.2478,-1.3046,-1.3447,-1.3734,-1.3988,-1.4115,-1.4215,-1.268,-1.2829,-1.2966,-1.2311,-1.2966,-1.3714,-1.4142,-1.4422,-1.4636,-1.479,-1.5317,-1.5678,-1.5678,-1.5765,-1.5832,-1.5832,-1.5785,-1.5732,-1.5678,-1.5404,-1.511,-1.4823,-1.4249,-1.3681,-1.314,-1.2381,-1.2078,-1.2225,-1.0803,-1.0755,0.0,0.0,0.0,0.0,0.0,0.0,-1.2177,-1.3297,-1.2973,-1.1621,-1.1377,-1.1303,-1.1343,-1.1289,-1.1129,-1.0915,-1.0915,-1.0762,-1.0624,-1.0624,-1.0047,-0.9274,-0.9139,-0.8517,-0.7615,-0.6732,-0.6486,-0.6374,-0.5631,-0.5449,-0.5437,-0.5589,-0.6365,-0.7157,-0.7457,-0.8941,-1.0341,-1.0718,-1.1184,-1.1372,-1.0761,-1.0975,-1.1434,-1.1864,-1.3157,-1.3803,-1.3011,-1.3203,-1.3471,-1.3839,-1.3204,-1.2902,-1.3423,-1.172,-1.0364,-0.9666,-0.971,-0.9678,-0.9309,-1.0136,-1.0487,-1.0132,-1.0923,-1.083,-0.9672,-1.0907,-1.1272,-1.0657,-1.1881,-1.2395,-1.2225,-1.2278,-1.2305,-1.2305,-1.2305,-1.2305,-1.2305,-1.2358,-1.2645,-1.3086,-1.3434,-1.3748,-1.4015,-1.4068,-1.4242,-1.4462,-1.4179,-1.3701,-1.3394,-1.3253,-1.3841,-1.4422,-1.4703,-1.5257,-1.5478,-1.5023,-1.5204,-1.5384,-1.5384,-1.5651,-1.5832,-1.5832,-1.5832,-1.5832,-1.5832,-1.5558,-1.5264,-1.4977,-1.4402,-1.3741,-1.2986,-1.2385,-1.2078,-1.2078,-1.1275,-1.1423,0.0,0.0,0.0,0.0,0.0,-1.372,0.0,-1.3638,-1.3255,-1.2551,-1.175,-1.1516,-1.1637,-1.1483,-1.1336,-1.1196,-1.1049,-1.0902,-1.0762,-1.0672,-1.0142,-0.9509,-0.9315,-0.8766,-0.8108,-0.7536,-0.7372,-0.7177,-0.6334,-0.6075,-0.6136,-0.6395,-0.6871,-0.7637,-0.8896,-1.0027,-1.0938,-1.1465,-1.1439,-1.1004,-0.9768,-0.9684,-0.9971,-1.0548,-1.2183,-1.335,-1.3116,-1.3432,-1.38,-1.3866,-1.2883,-1.2482,-1.3264,-1.2466,-1.1497,-1.0431,-1.0376,-1.028,-1.0115,-1.0753,-1.1165,-1.1367,-1.2181,-1.2146,-1.1049,-1.226,-1.2409,-1.1405,-1.241,-1.2657,-1.2305,-1.2305,-1.2305,-1.2305,-1.2305,-1.2305,-1.2311,-1.2472,-1.2705,-1.3013,-1.3467,-1.3734,-1.3874,-1.4035,-1.4269,-1.4543,-1.6593,-1.5413,-1.4578,-1.4757,-1.4974,-1.515,-1.515,-1.5732,-1.5932,-1.5237,-1.515,-1.515,-1.515,-1.5558,-1.5832,-1.5832,-1.5832,-1.5832,-1.5832,-1.5504,-1.5204,-1.4977,-1.4335,-1.3634,-1.2936,-1.2265,-1.1964,-1.1964,-1.1663,-1.179,-1.2305,0.0,0.0,0.0,-1.4665,-1.495,-1.4498,-1.3752,-1.3371,-1.3266,-1.2073,-1.175,-1.1937,-1.1703,-1.1536,-1.1396,-1.1169,-1.1049,-1.0955,-1.0728,-1.0238,-0.961,-0.9657,-0.9182,-0.8522,-0.8338,-0.8291,-0.8102,-0.7292,-0.7012,-0.7074,-0.7534,-0.7774,-0.8364,-1.0307,-1.0971,-1.1316,-1.215,-1.1316,-1.0112,-0.8763,-0.863,-0.8988,-0.9691,-1.14,-1.2869,-1.3526,-1.3518,-1.356,-1.3731,-1.2446,-1.1971,-1.3052,-1.334,-1.2828,-1.1456,-1.121,-1.0986,-1.0725,-1.1178,-1.1791,-1.253,-1.3139,-1.3129,-1.2444,-1.3306,-1.3157,-1.1957,-1.2742,-1.2799,-1.2305,-1.2305,-1.2305,-1.2305,-1.2305,-1.2338,-1.2418,-1.2719,-1.2879,-1.2993,-1.3527,-1.3741,-1.3768,-1.4001,-1.4269,-1.4556,-1.8471,-1.7854,-1.7286,-1.7101,-1.6352,-1.5752,-1.5752,-1.5818,-1.5838,-1.5758,-1.5752,-1.5752,-1.5752,-1.5798,-1.5832,-1.5832,-1.5832,-1.5832,-1.5832,-1.5311,-1.499,-1.4963,-1.4142,-1.352,-1.3173,-1.2572,-1.2265,-1.2265,-1.1971,-1.1991,-1.2305,-1.2305,-1.2378,-1.2519,-1.4378,-1.4235,-1.2586,-1.3353,-1.3215,-1.2439,-1.2238,-1.2238,-1.2258,-1.2231,-1.1891,-1.1423,-1.1396,-1.1216,-1.0989,-1.0962,-1.0269,-0.9538,-1.0549,-1.0068,-0.9239,-0.921,-0.9204,-0.9057,-0.8405,-0.8042,-0.8002,-0.8503,-0.9254,-0.9962,-1.0533,-1.1449,-1.2224,-1.2305,-1.0801,-0.9075,-0.7821,-0.8514,-0.952,-1.0346,-1.2321,-1.4115,-1.5084,-1.4579,-1.4127,-1.4159,-1.3996,-1.3909,-1.4096,-1.4751,-1.4517,-1.2901,-1.2159,-1.1313,-1.0234,-1.1261,-1.1996,-1.2414,-1.318,-1.3416,-1.3092,-1.3316,-1.3042,-1.2258,-1.2842,-1.2799,-1.2305,-1.2305,-1.2305,-1.2305,-1.2305,-1.2452,-1.2802,-1.3039,-1.332,-1.3587,-1.3915,-1.4048,-1.4048,-1.4075,-1.4269,-1.4522,-1.9987,-1.8775,-1.7673,-1.7081,-1.6512,-1.6436,-1.7369,-1.6835,-1.6579,-1.7244,-1.6402,-1.5832,-1.5832,-1.5832,-1.5832,-1.5832,-1.5832,-1.5832,-1.5832,-1.5611,-1.5331,-1.4977,-1.4456,-1.3868,-1.3227,-1.2612,-1.2305,-1.2305,-1.2011,-1.2017,-1.2305,-1.2305,-1.2305,-1.2298,-1.3091,-1.3018,-1.2298,-1.2739,-1.2659,-1.2285,-1.2111,-1.2044,-1.2044,-1.2044,-1.1897,-1.167,-1.149,-1.1349,-1.1249,-1.1249,-1.1086,-1.0889,-1.1002,-1.0955,-1.0795,-1.0456,-1.0409,-1.0355,-0.9639,-0.9321,-0.9326,-0.9743,-1.0118,-1.0622,-1.1398,-1.1998,-1.2305,-1.2305,-1.1168,-0.9863,-0.8801,-0.8901,-0.9469,-1.0485,-1.1832,-1.3036,-1.3876,-1.4193,-1.4059,-1.3113,-1.3439,-1.3479,-1.2826,-1.3897,-1.4025,-1.2381,-1.243,-1.2154,-1.1149,-1.1752,-1.2057,-1.2064,-1.3145,-1.326,-1.21,-1.2826,-1.2884,-1.2298,-1.2542,-1.2476,-1.2305,-1.2305,-1.2398,-1.2579,-1.2766,-1.2913,-1.3046,-1.3347,-1.354,-1.3592,-1.3975,-1.4088,-1.4088,-1.4088,-1.4269,-1.4496,-2.2065,-2.0227,-1.8659,-1.8246,-1.7598,-1.7541,-1.8535,-1.8083,-1.7901,-1.8532,-1.7356,-1.6197,-1.5825,-1.5832,-1.5832,-1.5832,-1.5832,-1.5792,-1.5705,-1.5625,-1.5351,-1.4856,-1.4549,-1.4062,-1.3353,-1.2832,-1.2525,-1.2432,-1.2138,-1.2098,-1.2305,-1.2305,-1.2305,-1.2305,-1.2305,-1.2305,-1.2305,-1.2305,-1.2305,-1.2278,-1.1984,-1.187,-1.187,-1.187,-1.1817,-1.171,-1.1496,-1.1483,-1.1543,-1.1456,-1.1677,-1.1911,-1.141,-1.1476,-1.1657,-1.1243,-1.1269,-1.1306,-1.076,-1.0584,-1.0602,-1.1031,-1.1062,-1.1213,-1.2084,-1.2305,-1.2224,-1.1922,-1.1316,-1.0484,-0.9523,-0.9463,-0.9878,-1.0827,-1.1703,-1.2536,-1.318,-1.3886,-1.3897,-1.2706,-1.302,-1.3082,-1.2236,-1.3275,-1.3353,-1.1896,-1.2422,-1.2491,-1.1834,-1.2087,-1.2298,-1.2361,-1.3526,-1.3445,-1.1949,-1.2885,-1.2975,-1.2305,-1.2305,-1.2305,-1.2305,-1.2392,-1.2545,-1.2842,-1.3073,-1.326,-1.3353,-1.3561,-1.3694,-1.3794,-1.4008,-1.4088,-1.4088,-1.4088,-1.4215,-1.4362,-2.4971,-2.2867,-2.1106,-2.1568,-2.0249,-1.9029,-1.8602,-1.9415,-1.9901,-1.9546,-1.8411,-1.7225,-1.592,-1.5832,-1.5832,-1.5832,-1.5832,-1.5705,-1.5424,-1.5137,-1.4843,-1.4536,-1.4249,-1.3948,-1.3559,-1.3353,-1.3053,-1.2815,-1.2445,-1.2298,-1.2305,-1.2305,-1.2305,-1.2305,-1.2305,-1.2305,-1.2305,-1.2305,-1.2305,-1.2278,-1.1984,-1.187,-1.187,-1.187,-1.169,-1.143,-1.1423,-1.1617,-1.1817,-1.1523,-1.181,-1.2245,-1.1951,-1.1663,-1.143,-1.1423,-1.1423,-1.149,-1.1784,-1.165,-1.1494,-1.2151,-1.2078,-1.1944,-1.2238,-1.2305,-1.2003,-1.1013,-1.0783,-1.0484,-0.9523,-1.0115,-1.0985,-1.1501,-1.2396,-1.3286,-1.3816,-1.39,-1.3762,-1.3459,-1.341,-1.3279,-1.2981,-1.3268,-1.294,-1.1856,-1.2063,-1.2108,-1.1787,-1.2194,-1.278,-1.3522,-1.4345,-1.4258,-1.3156,-1.3648,-1.3363,-1.2305,-1.2305,-1.2305,-1.2311,-1.2605,-1.2822,-1.2842,-1.3073,-1.3373,-1.3641,-1.3559,-1.3814,-1.4082,-1.4088,-1.4088,-1.4088,-1.4088,-1.4088,-1.4088,-2.3802,-2.2775,-2.1838,-2.1313,-2.0783,-2.0597,-2.1117,-2.0766,-2.0264,-1.9994,-1.8644,-1.7225,-1.592,-1.5832,-1.5832,-1.5832,-1.5651,-1.5491,-1.5404,-1.5124,-1.483,-1.4536,-1.4429,-1.4055,-1.336,-1.3454,-1.3153,-1.2445,-1.2552,-1.2498,-1.2305,-1.2305,-1.2305,-1.2305,-1.2305,-1.2305,-1.2305,-1.2305,-1.2184,-1.1997,-1.1904,-1.175,-1.159,-1.179,-1.181,-1.173,-1.173,-1.179,-1.1857,-1.1757,-1.185,-1.2024,-1.2131,-1.2098,-1.1984,-1.1784,-1.187,-1.2044,-1.2138,-1.2091,-1.2071,-1.2251,-1.2231,-1.2191,-1.2278,-1.2305,-1.2224,-1.1922,-1.1848,-1.1694,-1.1397,-1.162,-1.2104,-1.2869,-1.2725,-1.2841,-1.3658,-1.3515,-1.3256,-1.2986,-1.3402,-1.338,-1.2513,-1.3244,-1.3056,-1.1381,-1.1819,-1.1891,-1.1295,-1.1523,-1.1848,-1.2093,-1.3095,-1.3189,-1.2329,-1.2981,-1.2968,-1.2305,-1.2305,-1.2412,-1.2625,-1.3126,-1.3353,-1.3373,-1.3681,-1.3861,-1.3948,-1.3948,-1.4001,-1.4088,-1.4088,-1.4088,-1.4088,-1.4088,-1.4088,-1.4088,-2.3926,-2.3185,-2.2416,-2.1859,-2.1586,-2.1664,-2.2066,-2.162,-2.1002,-2.0609,-1.8907,-1.7412,-1.6574,-1.6109,-1.5832,-1.5832,-1.5665,-1.5464,-1.5251,-1.5064,-1.4783,-1.4376,-1.4355,-1.4102,-1.3547,-1.3607,-1.3313,-1.2645,-1.2599,-1.2485,-1.2305,-1.2305,-1.2305,-1.2305,-1.2305,-1.2305,-1.2305,-1.2305,-1.2198,-1.2024,-1.1911,-1.1757,-1.1617,-1.1797,-1.187,-1.187,-1.187,-1.1937,-1.2011,-1.1904,-1.1944,-1.2064,-1.2245,-1.2305,-1.2265,-1.2084,-1.2164,-1.2305,-1.2305,-1.2305,-1.2305,-1.2305,-1.2305,-1.2305,-1.2305,-1.2305,-1.2305,-1.2305,-1.2305,-1.2305,-1.2305,-1.2305,-1.2519,-1.3098,-1.257,-1.2356,-1.292,-1.2727,-1.2524,-1.2668,-1.2833,-1.281,-1.2409,-1.2818,-1.2608,-1.1243,-1.1713,-1.1843,-1.1391,-1.1539,-1.1903,-1.2354,-1.3029,-1.3063,-1.236,-1.2846,-1.2863,-1.2305,-1.2418,-1.2565,-1.2842,-1.3373,-1.3559,-1.3661,-1.3955,-1.4088,-1.4088,-1.4088,-1.4088,-1.4088,-1.4088,-1.4088,-1.4088,-1.4088,-1.4088,-1.4088,-2.4971,-2.3965,-2.2979,-2.3006,-2.2709,-2.2339,-2.1951,-2.1915,-2.178,-2.1257,-1.9131,-1.7692,-1.7598,-1.648,-1.5832,-1.5832,-1.5812,-1.5571,-1.503,-1.4957,-1.4689,-1.4142,-1.4095,-1.4075,-1.4055,-1.3808,-1.352,-1.3213,-1.2625,-1.2318,-1.2305,-1.2305,-1.2305,-1.2305,-1.2305,-1.2305,-1.2305,-1.2305,-1.2291,-1.2251,-1.1997,-1.1891,-1.187,-1.1891,-1.1897,-1.1897,-1.1897,-1.2071,-1.2265,-1.1991,-1.2078,-1.2305,-1.2305,-1.2305,-1.2305,-1.2305,-1.2305,-1.2305,-1.2305,-1.2305,-1.2305,-1.2305,-1.2305,-1.2305,-1.2305,-1.2305,-1.2305,-1.2305,-1.2305,-1.2305,-1.2305,-1.2305,-1.2305,-1.2305,-1.2078,-1.1891,-1.187,-1.17,-1.1785,-1.2586,-1.1983,-1.1867,-1.2683,-1.2214,-1.1784,-1.151,-1.1724,-1.1877,-1.1897,-1.2102,-1.2694,-1.3757,-1.379,-1.3543,-1.3016,-1.3067,-1.287,-1.2338,-1.2632,-1.2856,-1.2876,-1.34,-1.3592,-1.3687,-1.3968,-1.4088,-1.4088,-1.4088,-1.4088,-1.4088,-1.4088,-1.4095,-1.4115,-1.4095,-1.4102,-1.4115,-2.4023,-2.3548,-2.3233,-2.3558,-2.353,-2.3329,-2.2897,-2.2379,-2.1505,-2.0085,-1.8596,-1.7318,-1.6386,-1.6015,-1.5832,-1.5832,-1.5625,-1.5438,-1.5304,-1.4877,-1.4563,-1.4422,-1.4208,-1.3981,-1.3754,-1.3901,-1.3728,-1.3213,-1.2826,-1.2525,-1.2305,-1.2305,-1.2305,-1.2305,-1.2305,-1.2305,-1.2305,-1.2305,-1.2178,-1.1984,-1.2138,-1.2064,-1.1897,-1.2118,-1.2204,-1.2204,-1.2204,-1.2245,-1.2291,-1.2225,-1.2245,-1.2305,-1.2305,-1.2305,-1.2305,-1.2305,-1.2305,-1.2305,-1.2305,-1.2305,-1.2305,-1.2305,-1.2305,-1.2305,-1.2305,-1.2305,-1.2305,-1.2305,-1.2305,-1.2305,-1.2305,-1.2305,-1.2305,-1.2305,-1.2245,-1.2124,-1.1904,-1.2368,-1.2713,-1.2676,-1.2723,-1.28,-1.3016,-1.2527,-1.2171,-1.2098,-1.1957,-1.1964,-1.2184,-1.2274,-1.237,-1.2655,-1.2966,-1.2868,-1.249,-1.2962,-1.3036,-1.2721,-1.2953,-1.31,-1.312,-1.3707,-1.3981,-1.3988,-1.4055,-1.4088,-1.4088,-1.4088,-1.4088,-1.4088,-1.4088,-1.4222,-1.4389,-1.4168,-1.4229,-1.4422,-2.374,-2.3603,-2.3516,-2.375,-2.3623,-2.3408,-2.3174,-2.2326,-2.1373,-2.0421,-1.8772,-1.7412,-1.6756,-1.6109,-1.5832,-1.5832,-1.5685,-1.5538,-1.5404,-1.4977,-1.4663,-1.4529,-1.4242,-1.4015,-1.3848,-1.4008,-1.3801,-1.3213,-1.2899,-1.2592,-1.2305,-1.2305,-1.2305,-1.2305,-1.2305,-1.2305,-1.2305,-1.2305,-1.2211,-1.2084,-1.2238,-1.2204,-1.2084,-1.2238,-1.2305,-1.2305,-1.2305,-1.2305,-1.2305,-1.2305,-1.2305,-1.2305,-1.2305,-1.2305,-1.2305,-1.2305,-1.2305,-1.2305,-1.2305,-1.2305,-1.2305,-1.2305,-1.2305,-1.2305,-1.2305,-1.2305,-1.2305,-1.2305,-1.2305,-1.2305,-1.2305,-1.2305,-1.2305,-1.2305,-1.2078,-1.1844,-1.169,-1.1964,-1.219,-1.2303,-1.2593,-1.2825,-1.3121,-1.2845,-1.2719,-1.2719,-1.2572,-1.2552,-1.2705,-1.2719,-1.2652,-1.2512,-1.2799,-1.2879,-1.2719,-1.3046,-1.3126,-1.2959,-1.3267,-1.3407,-1.3427,-1.3881,-1.4088,-1.4088,-1.4088,-1.4088,-1.4088,-1.4088,-1.4168,-1.4269,-1.4135,-1.4349,-1.4689,-1.4396,-1.4469,-1.4723,-2.3691,-2.3691,-2.3691,-2.3691,-2.3389,-2.3135,-2.3135,-2.212,-2.1293,-2.1293,-1.9405,-1.7956,-1.7956,-1.703,-1.6292,-1.6109,-1.6109,-1.5886,-1.5418,-1.5124,-1.483,-1.4536,-1.4242,-1.4088,-1.4088,-1.4088,-1.3801,-1.3213,-1.2946,-1.2639,-1.2305,-1.2305,-1.2305,-1.2305,-1.2305,-1.2305,-1.2305,-1.2305,-1.2305,-1.2305,-1.2305,-1.2305,-1.2305,-1.2305,-1.2305,-1.2305,-1.2305,-1.2305,-1.2305,-1.2305,-1.2305,-1.2305,-1.2305,-1.2305,-1.2305,-1.2305,-1.2305,-1.2305,-1.2305,-1.2305,-1.2305,-1.2305,-1.2338,-1.2358,-1.2311,-1.2371,-1.2425,-1.2378,-1.2405,-1.2425,-1.2378,-1.2371,-1.2351,-1.2311,-1.1844,-1.149,-1.149,-1.1283,-1.1323,-1.187,-1.2191,-1.2592,-1.316,-1.3253,-1.3293,-1.334,-1.334,-1.336,-1.3407,-1.3367,-1.322,-1.303,-1.316,-1.33,-1.334,-1.3253,-1.3233,-1.328,-1.3527,-1.3559,-1.3572,-1.3948,-1.4088,-1.4088,-1.4135,-1.4155,-1.4155,-1.4202,-1.4335,-1.4496,-1.4249,-1.4482,-1.4923,-1.4583,-1.4696,-1.5023,-2.3242,-2.3242,-2.3242,-2.3242,-2.3184,-2.3135,-2.3135,-2.212,-2.1293,-2.1293,-2.0124,-1.9222,-1.9222,-1.9039,-1.8495,-1.7498,-1.7412,-1.6815,-1.5503,-1.5124,-1.483,-1.4536,-1.4242,-1.4088,-1.4088,-1.4088,-1.3801,-1.3213,-1.316,-1.2852,-1.2305,-1.2305,-1.2305,-1.2305,-1.2305,-1.2305,-1.2305,-1.2305,-1.2305,-1.2305,-1.2305,-1.2305,-1.2305,-1.2305,-1.2305,-1.2305,-1.2305,-1.2305,-1.2305,-1.2305,-1.2305,-1.2305,-1.2305,-1.2305,-1.2305,-1.2305,-1.2305,-1.2305,-1.2305,-1.2305,-1.2305,-1.2305,-1.2492,-1.2612,-1.2358,-1.2699,-1.2993,-1.2732,-1.2886,-1.2993,-1.2726,-1.2755,-1.2592,-1.2345,-1.2017,-1.1797,-1.1797,-1.1764,-1.1857,-1.2191,-1.2492,-1.2819,-1.3173,-1.3427,-1.3681,-1.3935,-1.3955,-1.4055,-1.4302,-1.4088,-1.3928,-1.3881,-1.3681,-1.3694,-1.3948,-1.346,-1.3333,-1.3581,-1.3539,-1.3559,-1.3572,-1.3948,-1.4088,-1.4102,-1.4349,-1.4449,-1.4476,-1.4723,-1.471,-1.4516,-1.4469,-1.4663,-1.4897,-1.4355,-1.4656,-1.5297,-2.3135,-2.3135,-2.3135,-2.3135,-2.3135,-2.3135,-2.3135,-2.2589,-2.2306,-2.2306,-2.1212,-2.0486,-2.0486,-1.9852,-1.9039,-1.7777,-1.7692,-1.7014,-1.5281,-1.5184,-1.5064,-1.477,-1.4476,-1.4249,-1.4088,-1.4088,-1.3801,-1.3213,-1.3213,-1.2899,-1.2305,-1.2305,-1.2305,-1.2305,-1.2305,-1.2305,-1.2305,-1.2305,-1.2305,-1.2305,-1.2305,-1.2305,-1.2305,-1.2305,-1.2305,-1.2305,-1.2305,-1.2305,-1.2305,-1.2305,-1.2305,-1.2305,-1.2305,-1.2305,-1.2305,-1.2305,-1.2305,-1.2305,-1.2305,-1.2305,-1.2305,-1.2305,-1.2525,-1.2788,-1.2572,-1.2893,-1.3173,-1.3026,-1.3113,-1.3113,-1.2882,-1.2822,-1.2775,-1.2565,-1.2164,-1.1977,-1.2372,-1.2204,-1.2271,-1.2739,-1.3053,-1.3414,-1.3874,-1.4035,-1.4242,-1.4536,-1.4556,-1.4952,-1.5682,-1.4966,-1.4822,-1.5227,-1.4357,-1.3948,-1.4088,-1.3814,-1.3748,-1.3881,-1.3881,-1.3881,-1.3888,-1.4021,-1.4088,-1.4102,-1.4396,-1.4522,-1.4529,-1.4669,-1.483,-1.4963,-1.4643,-1.489,-1.5378,-1.495,-1.515,-1.5611,-2.3135,-2.3135,-2.3135,-2.3135,-2.3135,-2.3135,-2.3135,-2.3135,-2.3135,-2.3135,-2.2306,-2.1747,-2.1747,-2.0854,-1.9861,-1.868,-1.8503,-1.7827,-1.6166,-1.6106,-1.5763,-1.4966,-1.4643,-1.4382,-1.4095,-1.4088,-1.3801,-1.3213,-1.3213,-1.2899,-1.2305,-1.2305,-1.2305,-1.2305,-1.2519,-1.2666,-1.2666,-1.2666,-1.2666,-1.2592,-1.2372,-1.2305,-1.2305,-1.2305,-1.2305,-1.2305,-1.2305,-1.2305,-1.2305,-1.2305,-1.2305,-1.2305,-1.2305,-1.2305,-1.2305,-1.2305,-1.2351,-1.2392,-1.2318,-1.2351,-1.2405,-1.2405,-1.2685,-1.2939,-1.2943,-1.3146,-1.3394,-1.3327,-1.3367,-1.332,-1.3013,-1.2953,-1.2933,-1.2866,-1.2418,-1.2258,-1.2856,-1.2599,-1.2632,-1.324,-1.3507,-1.3874,-1.4462,-1.4583,-1.4743,-1.5044,-1.5395,-1.5868,-1.6557,-1.588,-1.5697,-1.5972,-1.4767,-1.4284,-1.4592,-1.4352,-1.4188,-1.4188,-1.4255,-1.4255,-1.4195,-1.4255,-1.4215,-1.4115,-1.4543,-1.4683,-1.4636,-1.477,-1.505,-1.5351,-1.5157,-1.5395,-1.5691,-1.5759,-1.579,-1.5818,-2.3135,-2.3135,-2.3135,-2.3135,-2.3135,-2.3135,-2.3135,-2.3135,-2.3135,-2.3135,-2.3047,-2.296,-2.296,-2.2872,-2.2315,-2.1114,-2.1025,-2.0459,-1.9232,-1.8758,-1.7328,-1.4663,-1.4529,-1.4382,-1.4095,-1.4088,-1.3801,-1.3213,-1.3213,-1.2899,-1.2305,-1.2305,-1.2305,-1.2372,-1.3237,-1.36,-1.36,-1.36,-1.36,-1.3528,-1.2666,-1.2305,-1.2305,-1.2305,-1.2305,-1.2305,-1.2305,-1.2305,-1.2305,-1.2305,-1.2305,-1.2305,-1.2305,-1.2305,-1.2305,-1.2305,-1.2498,-1.2728,-1.2378,-1.2505,-1.2788,-1.2788,-1.3146,-1.3507,-1.324,-1.3614,-1.3941,-1.3667,-1.3828,-1.3935,-1.3634,-1.3581,-1.3487,-1.322,-1.2899,-1.2876,-1.3126,-1.2913,-1.2933,-1.354,-1.3627,-1.3874,-1.4462,-1.477,-1.5057,-1.5344,-1.6714,-1.7059,-1.5947,-1.6571,-1.6451,-1.5109,-1.4468,-1.4789,-1.6144,-1.5067,-1.4489,-1.4489,-1.477,-1.4756,-1.4496,-1.477,-1.4603,-1.4135,-1.497,-1.5177,-1.4977,-1.5511,-1.5598,-1.5476,-1.6574,-1.6337,-1.5568,-1.6402,-1.6316,-1.5792,-2.3135,-2.3135,-2.3135,-2.3135,-2.3135,-2.3135,-2.3135,-2.3135,-2.3135,-2.3135,-2.3135,-2.3135,-2.3135,-2.3135,-2.2589,-2.1382,-2.1293,-2.0739,-1.9354,-1.882,-1.7613,-1.5619,-1.5333,-1.4853,-1.4088,-1.4734,-1.4753,-1.4045,-1.5005,-1.4736,-1.3171,-1.3446,-1.3135,-1.2372,-1.331,-1.3382,-1.2879,-1.3455,-1.3382,-1.2806,-1.2445,-1.2305,-1.2305,-1.2305,-1.2305,-1.2305,-1.2305,-1.2305,-1.2305,-1.2305,-1.2305,-1.2305,-1.2305,-1.2305,-1.2305,-1.2305,-1.2512,-1.2795,-1.2605,-1.2799,-1.3033,-1.3033,-1.334,-1.3532,-1.35,-1.3794,-1.4055,-1.3941,-1.4008,-1.3995,-1.3701,-1.3559,-1.3667,-1.3741,-1.3884,-1.4252,-1.4889,-1.5433,-1.587,-1.6268,-1.6591,-1.69,-1.7285,-1.6736,-1.6762,-1.7812,-1.7051,-1.6936,-1.8033,-1.7523,-1.7024,-1.6685,-1.537,-1.494,-1.5476,-1.5812,-1.5556,-1.4796,-1.491,-1.4903,-1.4796,-1.491,-1.4843,-1.4663,-1.5177,-1.5337,-1.5335,-1.6267,-1.6686,-1.6928,-1.7967,-1.7758,-1.6843,-1.7264,-1.6729,-1.5812,-2.3135,-2.3135,-2.3135,-2.3135,-2.3135,-2.3135,-2.3135,-2.3135,-2.3135,-2.3135,-2.3135,-2.3135,-2.3135,-2.3135,-2.2775,-2.1943,-2.1845,-2.1459,-2.0395,-1.9825,-1.8625,-1.6553,-1.6414,-1.5816,-1.4657,-1.5621,-1.5751,-1.4803,-1.6076,-1.5859,-1.4325,-1.4529,-1.4175,-1.323,-1.4163,-1.4227,-1.365,-1.4019,-1.381,-1.3164,-1.2519,-1.2305,-1.2305,-1.2305,-1.2305,-1.2305,-1.2305,-1.2305,-1.2305,-1.2305,-1.2305,-1.2305,-1.2305,-1.2519,-1.268,-1.2486,-1.2872,-1.3285,-1.3077,-1.3253,-1.346,-1.3367,-1.3567,-1.3781,-1.3781,-1.3941,-1.4088,-1.4088,-1.4162,-1.4162,-1.3955,-1.4316,-1.4692,-1.4907,-1.5554,-1.6215,-1.6831,-1.7403,-1.7938,-1.8187,-1.8437,-1.8729,-1.9104,-1.8329,-1.8292,-1.9372,-1.7933,-1.7576,-1.8856,-1.7537,-1.6885,-1.7124,-1.626,-1.5861,-1.5861,-1.6192,-1.6142,-1.5708,-1.5366,-1.519,-1.5104,-1.5638,-1.5756,-1.5589,-1.6,-1.6019,-1.6021,-1.6564,-1.6914,-1.7203,-1.8245,-1.8026,-1.7131,-1.7598,-1.685,-1.5832,-2.3135,-2.3135,-2.3135,-2.3135,-2.3135,-2.3135,-2.3135,-2.3135,-2.3135,-2.3135,-2.3135,-2.3135,-2.3135,-2.3135,-2.3135,-2.3135,-2.3135,-2.3135,-2.3135,-2.2353,-2.0557,-1.7456,-1.7606,-1.7123,-1.5703,-1.6764,-1.6677,-1.5298,-1.5955,-1.6121,-1.583,-1.5408,-1.5242,-1.5234,-1.621,-1.6558,-1.6498,-1.5587,-1.5163,-1.5029,-1.3098,-1.2311,-1.2311,-1.2305,-1.2305,-1.2305,-1.2305,-1.2305,-1.2305,-1.2305,-1.2305,-1.2305,-1.2311,-1.2959,-1.3601,-1.2962,-1.3635,-1.4494,-1.3797,-1.3861,-1.4015,-1.3721,-1.3868,-1.4088,-1.4088,-1.4088,-1.4088,-1.4088,-1.4322,-1.4522,-1.4522,-1.5777,-1.6851,-1.6851,-1.781,-1.8587,-1.8587,-1.8587,-1.8587,-1.8587,-1.8587,-1.8737,-1.9112,-1.9146,-1.9198,-1.9472,-1.9488,-1.8956,-1.7777,-1.648,-1.5832,-1.5832,-1.7037,-1.7684,-1.7692,-1.6181,-1.6021,-1.7168,-1.6234,-1.5678,-1.5503,-1.6986,-1.7409,-1.6808,-1.7393,-1.749,-1.71,-1.6161,-1.5825,-1.592,-1.7225,-1.6943,-1.6015,-1.7225,-1.6943,-1.5832,-2.3135,-2.3135,-2.3135,-2.3135,-2.3135,-2.3135,-2.3135,-2.3135,-2.3135,-2.3135,-2.3135,-2.3135,-2.3135,-2.3135,-2.3135,-2.3135,-2.3135,-2.3018,-2.2715,-2.2187,-2.1375,-2.0065,-1.9138,-1.81,-1.6846,-1.79,-1.8127,-1.7424,-1.867,-1.8412,-1.681,-1.6969,-1.6387,-1.5234,-1.621,-1.586,-1.4609,-1.521,-1.4738,-1.3515,-1.3076,-1.2939,-1.2919,-1.2692,-1.2612,-1.2585,-1.2378,-1.2305,-1.2305,-1.2305,-1.2445,-1.2652,-1.2872,-1.3839,-1.4599,-1.3406,-1.458,-1.5858,-1.4089,-1.426,-1.476,-1.4088,-1.4021,-1.4088,-1.4088,-1.4249,-1.4389,-1.4389,-1.5301,-1.6104,-1.6104,-1.7218,-1.8143,-1.8402,-1.9178,-1.9786,-2.0059,-2.0811,-2.1352,-2.1352,-2.1596,-2.182,-2.1942,-2.113,-2.0998,-2.1943,-2.0494,-1.858,-1.648,-1.6015,-1.5832,-1.5832,-1.6197,-1.6756,-1.7684,-1.8126,-1.8064,-1.7535,-1.7267,-1.708,-1.6993,-1.7461,-1.8026,-1.8643,-1.7957,-1.7624,-1.7535,-1.7274,-1.7131,-1.7225,-1.8495,-1.8764,-1.8395,-1.8856,-1.8672,-1.8395,-2.3135,-2.3135,-2.3135,-2.3135,-2.3135,-2.3135,-2.3135,-2.3135,-2.3135,-2.3135,-2.3135,-2.3135,-2.3135,-2.3135,-2.3135,-2.3135,-2.3135,-2.3027,-2.2773,-2.2207,-2.1846,-2.1748,-2.041,-1.9188,-1.8203,-1.9118,-1.9395,-1.8822,-1.9792,-1.9601,-1.8248,-1.8414,-1.7889,-1.6821,-1.6812,-1.6251,-1.5235,-1.5086,-1.4449,-1.3467,-1.3284,-1.3213,-1.3186,-1.2999,-1.3229,-1.3571,-1.3381,-1.3529,-1.3895,-1.3895,-1.3809,-1.3635,-1.3754,-1.4402,-1.485,-1.4251,-1.537,-1.6569,-1.5375,-1.5249,-1.5375,-1.4844,-1.4412,-1.4115,-1.4229,-1.4396,-1.4636,-1.5255,-1.6213,-1.7128,-1.7666,-1.8737,-1.9694,-1.9935,-2.0752,-2.1379,-2.1631,-2.2303,-2.2764,-2.2764,-2.2988,-2.3135,-2.3135,-2.2403,-2.1943,-2.1676,-1.9861,-1.7948,-1.592,-1.5832,-1.5832,-1.5832,-1.5832,-1.6386,-1.7692,-1.8411,-1.8411,-1.7684,-1.7225,-1.6943,-1.6943,-1.7505,-1.8141,-1.8772,-1.8048,-1.7692,-1.7692,-1.7131,-1.6943,-1.7037,-1.7755,-1.8303,-1.8772,-1.8772,-1.9131,-1.9497,-2.3135,-2.3135,-2.3135,-2.3135,-2.3135,-2.3135,-2.3135,-2.3135,-2.3135,-2.3135,-2.3135,-2.3135,-2.3135,-2.3135,-2.3135,-2.3135,-2.3135,-2.3135,-2.3135,-2.2353,-2.206,-2.2441,-2.1279,-2.0327,-1.9661,-2.0267,-2.0327,-1.9707,-1.9936,-1.999,-1.9902,-1.9521,-1.9316,-1.9268,-1.7842,-1.736,-1.745,-1.5189,-1.4347,-1.4465,-1.3577,-1.3366,-1.3439,-1.3412,-1.4088,-1.4987,-1.4957,-1.5541,-1.638,-1.6405,-1.5742,-1.4847,-1.4877,-1.4884,-1.4945,-1.5253,-1.6119,-1.7054,-1.7243,-1.6683,-1.5951,-1.5899,-1.5104,-1.4358,-1.4622,-1.471,-1.5147,-1.6653,-1.7323,-1.792,-1.909,-2.0527,-2.148,-2.148,-2.2403,-2.3135,-2.3135,-2.3135,-2.3135,-2.3135,-2.3135,-2.3047,-2.296,-2.2862,-2.1854,-1.9497,-1.8319,-1.7131,-1.5825,-1.5832,-1.5832,-1.5832,-1.5832,-1.6386,-1.7505,-1.7505,-1.7598,-1.7692,-1.648,-1.6015,-1.6015,-1.7131,-1.7777,-1.787,-1.7785,-1.7692,-1.7598,-1.6292,-1.5832,-1.5832,-1.5832,-1.6574,-1.7684,-1.7777,-1.8588,-1.967,-2.3135,-2.3135,-2.3135,-2.3135,-2.3135,-2.3135,-2.3135,-2.3135,-2.3135,-2.3135,-2.3135,-2.3135,-2.3135,-2.3135,-2.3135,-2.3135,-2.3135,-2.3135,-2.3135,-2.2353,-2.1924,-2.2021,-2.1426,-2.0695,-1.9901,-2.0704,-2.0973,-2.0809,-2.0876,-2.0596,-1.9912,-1.9824,-1.96,-1.9287,-1.8064,-1.7156,-1.6472,-1.5389,-1.4504,-1.3797,-1.3884,-1.4372,-1.5145,-1.4896,-1.5495,-1.6382,-1.6174,-1.622,-1.6421,-1.6704,-1.6118,-1.523,-1.5404,-1.6056,-1.6557,-1.5822,-1.7603,-1.9399,-1.7713,-1.7738,-1.8129,-1.7606,-1.6592,-1.5682,-1.5833,-1.6132,-1.6755,-1.8322,-1.9563,-2.0534,-2.0811,-2.1887,-2.2677,-2.2677,-2.296,-2.3135,-2.3135,-2.3135,-2.3135,-2.3135,-2.3135,-2.2775,-2.1756,-2.0854,-1.9679,-1.8234,-1.787,-1.7131,-1.5825,-1.5832,-1.5832,-1.5832,-1.5832,-1.592,-1.6204,-1.6204,-1.6669,-1.7692,-1.7412,-1.7318,-1.7318,-1.7591,-1.8234,-1.9039,-1.8141,-1.7692,-1.7598,-1.6292,-1.5832,-1.5832,-1.5832,-1.6574,-1.7777,-1.8772,-1.9852,-2.1025,-2.3135,-2.3135,-2.3135,-2.3135,-2.3135,-2.3135,-2.3135,-2.3135,-2.3135,-2.3135,-2.3135,-2.3135,-2.3135,-2.3135,-2.3135,-2.3135,-2.3135,-2.3135,-2.3135,-2.2539,-2.2275,-2.2471,-2.168,-2.1188,-2.1184,-2.1216,-2.0995,-2.0595,-2.0995,-2.0889,-2.0225,-2.0225,-2.0107,-1.9893,-1.86,-1.7611,-1.6678,-1.5602,-1.4674,-1.3868,-1.4587,-1.522,-1.5764,-1.6079,-1.6965,-1.7891,-1.7683,-1.8,-1.842,-1.8638,-1.7917,-1.7086,-1.7268,-1.7253,-1.7342,-1.7253,-1.8461,-1.9724,-1.9272,-1.9101,-1.9021,-1.9007,-1.7994,-1.7117,-1.7534,-1.7309,-1.7613,-1.9669,-2.0793,-2.148,-2.2031,-2.2677,-2.3135,-2.3135,-2.3135,-2.3135,-2.3135,-2.3135,-2.3135,-2.3135,-2.2589,-2.1756,-2.0576,-1.9314,-1.8411,-1.7785,-1.7131,-1.648,-1.5832,-1.5832,-1.6109,-1.6669,-1.6669,-1.6669,-1.6669,-1.6669,-1.6763,-1.6756,-1.6756,-1.6756,-1.6756,-1.6756,-1.7124,-1.7662,-1.703,-1.6756,-1.6756,-1.6109,-1.5832,-1.5832,-1.5832,-1.6936,-1.868,-1.9314,-2.0674,-2.2217,-2.3135,-2.3135,-2.3135,-2.3135,-2.3135,-2.3135,-2.3135,-2.3135,-2.3135,-2.3135,-2.3135,-2.3135,-2.3135,-2.3135,-2.3135,-2.3135,-2.3135,-2.3135,-2.3135,-2.2744,-2.2666,-2.3018,-2.2021,-2.1695,-2.214,-2.1709,-2.1139,-2.0298,-2.1005,-2.1162,-2.0791,-2.0713,-2.0684,-2.0654,-1.9195,-1.825,-1.7479,-1.6212,-1.5227,-1.4741,-1.5628,-1.6108,-1.6355,-1.7318,-1.8362,-1.9292,-1.9366,-1.9901,-2.0566,-2.0566,-1.997,-1.9127,-1.8984,-1.8477,-1.7997,-1.8834,-1.927,-1.9728,-2.0999,-2.0415,-1.9668,-2.0383,-1.9556,-1.8668,-1.9607,-1.8807,-1.8588,-2.1123,-2.1569,-2.1933,-2.295,-2.3135,-2.3135,-2.3135,-2.3135,-2.3135,-2.3135,-2.295,-2.2775,-2.2775,-2.1578,-2.0331,-1.9304,-1.8125,-1.7493,-1.7493,-1.6462,-1.5885,-1.5832,-1.5832,-1.6386,-1.7692,-1.7692,-1.7777,-1.8056,-1.8056,-1.7498,-1.6473,-1.6473,-1.6197,-1.5832,-1.5832,-1.5832,-1.5832,-1.5832,-1.5832,-1.5832,-1.5832,-1.592,-1.6103,-1.6103,-1.7483,-1.9497,-1.9761,-2.1221,-2.3135,-2.3135,-2.3135,-2.3135,-2.3135,-2.3135,-2.3135,-2.3135,-2.3135,-2.3135,-2.3135,-2.3135,-2.3135,-2.3135,-2.3135,-2.3135,-2.3135,-2.3135,-2.3135,-2.3135,-2.2744,-2.2539,-2.2598,-2.2432,-2.1854,-2.0985,-2.2207,-2.2464,-2.1617,-2.1744,-2.1768,-2.1699,-2.1318,-2.1143,-2.1043,-1.9631,-1.8903,-1.8709,-1.7527,-1.6968,-1.6854,-1.7009,-1.7658,-1.8585,-1.9083,-1.9737,-2.0449,-2.0758,-2.0731,-2.0566,-2.0566,-2.0159,-1.948,-1.9145,-1.9335,-1.9802,-1.9561,-2.0473,-2.1554,-2.1777,-2.1666,-2.1651,-2.2042,-2.1219,-2.0766,-2.2214,-2.1406,-2.0911,-2.2503,-2.2862,-2.2872,-2.3047,-2.3135,-2.3135,-2.3135,-2.3135,-2.3135,-2.3135,-2.2217,-2.1569,-2.1569,-1.9588,-1.8256,-1.8263,-1.7159,-1.6497,-1.6497,-1.631,-1.6099,-1.5845,-1.5832,-1.6386,-1.7692,-1.7692,-1.8234,-1.9222,-1.9222,-1.9131,-1.9039,-1.9039,-1.7848,-1.5832,-1.5832,-1.5832,-1.5832,-1.5832,-1.5832,-1.5832,-1.5832,-1.648,-1.7412,-1.7412,-1.8319,-1.9588,-2.0657,-2.1943,-2.3135,-2.3135,-2.3135,-2.3135,-2.3135,-2.3135,-2.3135,-2.3135,-2.3135,-2.3135,-2.3135,-2.3135,-2.3135,-2.3135,-2.3135,-2.3135,-2.3135,-2.3135,-2.3135,-2.3135,-2.2969,-2.2861,-2.2861,-2.2637,-2.2244,-2.1702,-2.2196,-2.2373,-2.2236,-2.2236,-2.2119,-2.1875,-2.1445,-2.123,-2.114,-2.028,-1.952,-1.8957,-1.847,-1.7908,-1.7334,-1.798,-1.8682,-1.938,-2.023,-2.0838,-2.1328,-2.1533,-2.1475,-2.1299,-2.1299,-2.1091,-2.0869,-2.069,-2.0366,-2.0084,-1.9913,-2.0328,-2.0876,-2.1193,-2.1539,-2.2041,-2.2705,-2.2236,-2.1988,-2.2863,-2.263,-2.2273,-2.3008,-2.3135,-2.3135,-2.3135,-2.3135,-2.3135,-2.3135,-2.3135,-2.3135,-2.3135,-2.2031,-2.0845,-1.9405,-1.8326,-1.7463,-1.6852,-1.6307,-1.6025,-1.6025,-1.6025,-1.5965,-1.5838,-1.6735,-1.7675,-1.8688,-1.9619,-2.0263,-2.0486,-2.0486,-2.0124,-1.9497,-1.9497,-1.8948,-1.7848,-1.7217,-1.685,-1.685,-1.6109,-1.5832,-1.5832,-1.5832,-1.6574,-1.7692,-1.7692,-1.8864,-2.0666,-2.1854,-2.2677,-2.3135]},{"header":{"parameterUnit":"m.s-1","parameterCategory":1,"la1":30.6,"la2":28.766,"lo1":-90.7593,"lo2":-88.6598,"dy":0.0162,"dx":0.0183,"nx":116,"ny":114,"refTime":"2023-07-13T12:00:00:Z","depth":0,"parameterNumber":3,"parameterNumberName":"V-component_of_WINDS"},"data":[0.0,0.0,0.0,0.0,0.0,0.0,0.0,0.0,0.0,0.0,0.0,0.0,0.0,0.0,0.0,0.0,0.0,0.0,0.0,0.0,0.0,0.0,0.0,0.0,0.0,0.0,0.0,0.0,0.0,0.0,0.0,0.0,0.0,0.0,0.0,0.0,0.0,0.0,0.0,0.0,0.0,0.0,0.0,0.0,0.0,0.0,0.0,0.0,0.0,0.0,0.0,0.0,0.0,0.0,0.0,0.0,0.0,0.0,0.0,0.0,0.0,0.0,0.0,0.0,0.0,0.0,0.0,0.0,0.0,0.0,0.0,0.0,0.0,0.0,0.0,0.0,0.0,0.0,0.0,0.0,0.0,0.0,0.0,0.0,0.0,0.0,0.0,0.0,0.0,0.0,0.0,0.0,0.0,0.0,0.0,0.0,0.0,0.0,0.0,0.0,0.0,0.0,0.0,0.0,0.0,0.0,0.0,0.0,0.0,0.0,0.0,0.0,0.0,0.0,0.0,0.0,0.0,0.0,0.0,0.0,0.0,0.0,0.0,0.0,0.0,0.0,0.0,0.0,0.0,0.0,0.0,0.0,0.0,0.0,0.0,0.0,0.0,0.0,0.0,0.0,0.0,0.0,0.0,0.0,0.0,0.0,0.0,0.0,0.0,0.0,0.0,0.0,0.0,0.0,0.0,0.0,0.0,0.0,0.0,0.0,0.0,0.0,0.0,0.0,0.0,0.0,0.0,0.0,0.0,0.0,0.0,0.0,0.0,0.0,0.0,0.0,0.0,0.0,0.0,0.0,0.0,0.0,0.0,0.0,0.0,0.0,0.0,0.0,0.0,0.0,0.0,0.0,0.0,0.0,0.0,0.0,0.0,0.0,0.0,0.0,0.0,0.0,0.0,0.0,0.0,0.0,0.0,0.0,0.0,0.0,0.0,0.0,0.0,0.0,0.0,0.0,0.0,0.0,0.0,0.0,0.0,0.0,0.0,0.0,0.0,0.0,0.0,0.0,0.0,0.0,0.0,0.0,0.0,0.0,0.0,0.0,0.0,0.0,0.0,0.0,0.0,0.0,0.0,0.0,0.0,0.0,0.0,0.0,0.0,0.0,0.0,0.0,0.0,0.0,0.0,0.0,0.0,0.0,0.0,0.0,0.0,0.0,0.0,0.0,0.0,0.0,0.0,0.0,0.0,0.0,0.0,0.0,0.0,0.0,0.0,0.0,0.0,0.0,0.0,0.0,0.0,0.0,0.0,0.0,0.0,0.0,0.0,0.0,0.0,0.0,0.0,0.0,0.0,0.0,0.0,0.0,0.0,0.0,0.0,0.0,0.0,0.0,0.0,0.0,0.0,0.0,0.0,0.0,0.0,0.0,0.0,0.0,0.0,0.0,0.0,0.0,0.0,0.0,0.0,0.0,0.0,0.0,0.0,0.0,0.0,0.0,0.0,0.0,0.0,0.0,0.0,0.0,0.0,0.0,0.0,0.0,0.0,0.0,0.0,0.0,0.0,0.0,0.0,0.0,0.0,0.0,0.0,0.0,0.0,0.0,0.0,0.0,0.0,0.0,0.0,0.0,0.0,0.0,0.0,0.0,0.0,0.0,0.0,0.0,0.0,0.0,0.0,0.0,0.0,0.0,0.0,0.0,0.0,0.0,0.0,0.0,0.0,0.0,0.0,0.0,0.0,0.0,0.0,0.0,0.0,0.0,0.0,0.0,0.0,0.0,0.0,0.0,0.0,0.0,0.0,0.0,0.0,0.0,0.0,0.0,0.0,0.0,0.0,0.0,0.0,0.0,0.0,0.0,0.0,0.0,0.0,0.0,0.0,0.0,0.0,0.0,0.0,0.0,0.0,0.0,0.0,0.0,0.0,0.0,0.0,0.0,0.0,0.0,0.0,0.0,0.0,0.0,0.0,0.0,0.0,0.0,0.0,0.0,0.0,0.0,0.0,0.0,0.0,0.0,0.0,0.0,0.0,0.0,0.0,0.0,0.0,0.0,0.0,0.0,0.0,0.0,0.0,0.0,0.0,0.0,0.0,0.0,0.0,0.0,0.0,0.0,0.0,0.0,0.0,0.0,0.0,0.0,0.0,0.0,0.0,0.0,0.0,0.0,0.0,0.0,0.0,0.0,0.0,0.0,0.0,0.0,0.0,0.0,0.0,0.0,0.0,0.0,0.0,0.0,0.0,0.0,0.0,0.0,0.0,0.0,0.0,0.0,0.0,0.0,0.0,0.0,0.0,0.0,0.0,0.0,0.0,0.0,0.0,0.0,0.0,0.0,0.0,0.0,0.0,0.0,0.0,0.0,0.0,0.0,0.0,0.0,0.0,0.0,0.0,0.0,0.0,0.0,0.0,0.0,0.0,0.0,0.0,0.0,0.0,0.0,0.0,0.0,0.0,0.0,0.0,0.0,0.0,0.0,0.0,0.0,0.0,0.0,0.0,0.0,0.0,0.0,0.0,0.0,0.0,0.0,0.0,0.0,0.0,0.0,0.0,0.0,0.0,0.0,0.0,0.0,0.0,0.0,0.0,0.0,0.0,0.0,0.0,0.0,0.0,0.0,0.0,0.0,0.0,0.0,0.0,0.0,0.0,0.0,0.0,0.0,0.0,0.0,0.0,0.0,0.0,0.0,0.0,0.0,0.0,0.0,0.0,0.0,0.0,0.0,0.0,0.0,0.0,0.0,0.0,0.0,0.0,0.0,0.0,0.0,0.0,0.0,0.0,0.0,0.0,0.0,0.0,0.0,0.0,0.0,0.0,0.0,0.0,0.0,0.0,0.0,0.0,0.0,0.0,0.0,0.0,0.0,0.0,0.0,0.0,0.0,0.0,0.0,0.0,0.0,0.0,0.0,0.0,0.0,0.0,0.0,0.0,0.0,0.0,0.0,0.0,0.0,0.0,0.0,0.0,0.0,0.0,0.0,0.0,0.0,0.0,0.0,0.0,0.0,0.0,0.0,0.0,0.0,0.0,0.0,0.0,0.0,0.0,0.0,0.0,0.0,0.0,0.0,0.0,0.0,0.0,0.0,0.0,0.0,0.0,0.0,0.0,0.0,0.0,0.0,0.0,0.0,0.0,0.0,0.0,0.0,0.0,0.0,0.0,0.0,0.0,0.0,0.0,0.0,0.0,0.0,0.0,0.0,0.0,0.0,0.0,0.0,0.0,0.0,0.0,0.0,0.0,0.0,0.0,0.0,0.0,0.0,0.0,0.0,0.0,0.0,0.0,0.0,0.0,0.0,0.0,0.0,0.0,0.0,0.0,0.0,0.0,0.0,0.0,0.0,0.0,0.0,0.0,0.0,0.0,0.0,0.0,0.0,0.0,0.0,0.0,0.0,0.0,0.0,0.0,0.0,0.0,0.0,0.0,0.0,0.0,0.0,0.0,0.0,0.0,0.0,0.0,0.0,0.0,0.0,0.0,0.0,0.0,0.0,0.0,0.0,0.0,0.0,0.0,0.0,0.0,0.0,0.0,0.0,0.0,0.0,0.0,0.0,0.0,0.0,0.0,0.0,0.0,0.0,0.0,0.0,0.0,0.0,0.0,0.0,0.0,0.0,0.0,0.0,0.0,0.0,0.0,0.0,0.0,0.0,0.0,0.0,0.0,0.0,0.0,0.0,0.0,0.0,0.0,0.0,0.0,0.0,0.0,0.0,0.0,0.0,0.0,0.0,0.0,0.0,0.0,0.0,0.0,0.0,0.0,0.0,0.0,0.0,0.0,0.0,0.0,0.0,0.0,0.0,0.0,0.0,0.0,0.0,0.0,0.0,0.0,0.0,0.0,0.0,0.0,0.0,0.0,0.0,0.0,0.0,0.0,0.0,0.0,0.0,0.0,0.0,0.0,0.0,0.0,0.0,0.0,0.0,0.0,0.0,0.0,0.0,0.0,0.0,0.0,0.0,0.0,0.0,0.0,0.0,0.0,0.0,0.0,0.0,0.0,0.0,0.0,0.0,0.0,0.0,0.0,0.0,0.0,0.0,0.0,0.0,0.0,0.0,0.0,0.0,0.0,0.0,0.0,0.0,0.0,0.0,0.0,0.0,0.0,0.0,0.0,0.0,0.0,0.0,0.0,0.0,0.0,0.0,0.0,0.0,0.0,0.0,0.0,0.0,0.0,0.0,0.0,0.0,0.0,0.0,0.0,0.0,0.0,0.0,0.0,0.0,0.0,0.0,0.0,0.0,0.0,0.0,0.0,0.0,0.0,0.0,0.0,0.0,0.0,0.0,0.0,0.0,0.0,0.0,0.0,0.0,0.0,0.0,0.0,0.0,0.0,0.0,0.0,0.0,0.0,0.0,0.0,0.0,0.0,0.0,0.0,0.0,0.0,0.0,0.0,0.0,0.0,0.0,0.0,0.0,0.0,0.0,0.0,0.0,0.0,0.0,0.0,0.0,0.0,0.0,0.0,0.0,0.0,0.0,0.0,0.0,0.0,0.0,0.0,0.0,0.0,0.0,0.0,0.0,0.0,0.0,0.0,0.0,0.0,0.0,0.0,0.0,0.0,0.0,0.0,0.0,0.0,0.0,0.0,0.0,0.0,0.0,0.0,0.0,0.0,0.0,0.0,0.0,0.0,0.0,0.0,0.0,0.0,0.0,0.0,0.0,0.0,0.0,0.0,0.0,0.0,0.0,0.0,0.0,0.0,0.0,0.0,0.0,0.0,0.0,0.0,0.0,0.0,0.0,0.0,0.0,0.0,0.0,0.0,0.0,0.0,0.0,0.0,0.0,0.0,0.0,0.0,0.0,0.0,0.0,0.0,0.0,0.0,0.0,0.0,0.0,0.0,0.0,0.0,0.0,0.0,0.0,0.0,0.0,0.0,0.0,0.0,0.0,0.0,0.0,0.0,0.0,0.0,0.0,0.0,0.0,0.0,0.0,0.0,0.0,0.0,0.0,0.0,0.0,0.0,0.0,0.0,0.0,0.0,0.0,0.0,0.0,0.0,0.0,0.0,0.0,0.0,0.0,0.0,0.0,0.0,0.0,0.0,0.0,0.0,0.0,0.0,0.0,0.0,0.0,0.0,0.0,0.0,0.0,0.0,0.0,0.0,0.0,0.0,0.0,0.0,0.0,0.0,0.0,0.0,0.0,0.0,0.0,0.0,0.0,0.0,0.0,0.0,0.0,0.0,0.0,0.0,0.0,0.0,0.0,0.0,0.0,0.0,0.0,0.0,0.0,0.0,0.0,0.0,0.0,0.0,0.0,0.0,0.0,0.0,0.0,0.0,0.0,0.0,0.0,0.0,0.0,0.0,0.0,0.0,0.0,0.0,0.0,0.0,0.0,0.0,0.0,0.0,0.0,0.0,0.0,0.0,0.0,0.0,0.0,0.0,0.0,0.0,0.0,0.0,0.0,0.0,0.0,0.0,0.0,0.0,0.0,0.0,0.0,0.0,0.0,0.0,0.0,0.0,0.0,0.0,0.0,0.0,0.0,0.0,0.0,0.0,0.0,0.0,0.0,0.0,0.0,0.0,0.0,0.0,0.0,0.0,0.0,0.0,0.0,0.0,0.0,0.0,0.0,0.0,0.0,0.0,0.0,0.0,0.0,0.0,0.0,0.0,0.0,0.0,0.0,0.0,0.0,0.0,0.0,0.0,0.0,0.0,0.0,0.0,0.0,0.0,0.0,0.0,0.0,0.0,0.0,0.0,0.0,0.0,0.0,0.0,0.0,0.0,0.0,0.0,0.0,0.0,0.0,0.0,0.0,0.0,0.0,0.0,0.0,0.0,0.0,0.0,0.0,0.0,0.0,0.0,0.0,0.0,0.0,0.0,0.0,0.0,0.0,0.0,0.0,0.0,0.0,0.0,0.0,0.0,0.0,0.0,0.0,0.0,0.0,0.0,0.0,0.0,0.0,0.0,0.0,0.0,0.0,0.0,0.0,0.0,0.0,0.0,0.0,0.0,0.0,0.0,0.0,0.0,0.0,0.0,0.0,0.0,0.0,0.0,0.0,0.0,0.0,0.0,0.0,0.0,0.0,0.0,0.0,0.0,0.0,0.0,0.0,0.0,0.0,0.0,0.0,0.0,0.0,0.0,0.0,0.0,0.0,0.0,0.0,0.0,0.0,0.0,0.0,0.0,0.0,-3.467,-3.503,0.0,0.0,0.0,0.0,0.0,0.0,0.0,0.0,0.0,0.0,0.0,0.0,0.0,0.0,0.0,0.0,0.0,0.0,0.0,0.0,0.0,0.0,0.0,0.0,0.0,0.0,0.0,0.0,0.0,0.0,0.0,0.0,0.0,0.0,0.0,0.0,0.0,0.0,0.0,0.0,0.0,0.0,0.0,0.0,0.0,0.0,0.0,0.0,0.0,0.0,0.0,0.0,0.0,0.0,0.0,0.0,0.0,0.0,0.0,0.0,0.0,0.0,0.0,0.0,0.0,0.0,0.0,0.0,0.0,0.0,0.0,0.0,0.0,0.0,0.0,0.0,0.0,0.0,0.0,0.0,0.0,0.0,0.0,0.0,0.0,0.0,0.0,0.0,0.0,0.0,0.0,0.0,0.0,0.0,0.0,0.0,0.0,0.0,0.0,0.0,0.0,0.0,0.0,0.0,0.0,0.0,0.0,0.0,0.0,0.0,0.0,0.0,0.0,0.0,-3.7148,-3.6502,0.0,0.0,0.0,0.0,0.0,0.0,0.0,0.0,0.0,0.0,0.0,0.0,0.0,0.0,0.0,0.0,0.0,0.0,0.0,0.0,0.0,0.0,0.0,0.0,0.0,0.0,0.0,0.0,0.0,0.0,0.0,0.0,0.0,0.0,0.0,0.0,0.0,0.0,0.0,0.0,0.0,0.0,0.0,0.0,0.0,0.0,0.0,0.0,0.0,0.0,0.0,0.0,0.0,0.0,0.0,0.0,0.0,0.0,0.0,0.0,0.0,0.0,0.0,0.0,0.0,0.0,0.0,0.0,0.0,0.0,0.0,0.0,0.0,0.0,0.0,0.0,0.0,0.0,0.0,0.0,0.0,0.0,0.0,0.0,0.0,0.0,0.0,0.0,0.0,0.0,0.0,0.0,0.0,0.0,0.0,0.0,0.0,0.0,0.0,0.0,0.0,0.0,0.0,0.0,0.0,0.0,0.0,0.0,-4.0489,-4.1239,-4.1412,-4.2124,-4.2624,-4.2761,-4.0438,-3.8722,-3.7668,-3.9154,0.0,0.0,0.0,0.0,0.0,0.0,0.0,0.0,0.0,0.0,0.0,0.0,0.0,0.0,0.0,0.0,0.0,0.0,0.0,0.0,0.0,0.0,0.0,0.0,0.0,0.0,0.0,0.0,0.0,0.0,0.0,0.0,0.0,0.0,0.0,0.0,0.0,0.0,-2.8865,-3.0375,-3.177,-3.2926,0.0,0.0,0.0,0.0,0.0,0.0,0.0,0.0,0.0,0.0,0.0,0.0,0.0,0.0,0.0,0.0,0.0,0.0,0.0,0.0,0.0,0.0,0.0,0.0,0.0,0.0,0.0,0.0,0.0,0.0,0.0,0.0,0.0,0.0,0.0,0.0,0.0,0.0,0.0,0.0,0.0,0.0,0.0,0.0,-2.7159,-2.8199,0.0,0.0,0.0,0.0,0.0,0.0,0.0,0.0,0.0,0.0,0.0,0.0,0.0,-3.7544,-4.0572,-4.0169,-4.1146,-4.347,-4.3682,-4.4201,-4.4932,-4.5047,-4.5893,-4.7259,-4.6876,0.0,-4.2168,-4.1684,0.0,0.0,0.0,0.0,0.0,0.0,0.0,0.0,0.0,0.0,0.0,0.0,0.0,0.0,0.0,0.0,0.0,0.0,0.0,0.0,0.0,0.0,0.0,0.0,0.0,0.0,0.0,0.0,0.0,0.0,0.0,0.0,0.0,0.0,0.0,0.0,-2.7622,-2.9457,-3.1072,-3.2687,-3.4302,-3.5807,-3.4302,-3.3697,-3.3715,-3.2302,0.0,0.0,0.0,0.0,0.0,0.0,0.0,0.0,0.0,0.0,0.0,0.0,0.0,0.0,0.0,0.0,0.0,0.0,0.0,0.0,0.0,0.0,0.0,0.0,0.0,0.0,0.0,0.0,0.0,0.0,0.0,0.0,0.0,0.0,0.0,0.0,0.0,0.0,0.0,-2.7387,-2.9007,-2.897,-3.1104,-3.2245,0.0,0.0,0.0,0.0,0.0,0.0,0.0,0.0,0.0,-3.8668,-4.0188,-4.17,-4.3181,-4.4259,-4.5586,-4.7163,-4.7663,-4.8086,-4.8471,-4.8471,-4.9106,-5.024,-5.024,-4.9413,-4.7875,-4.5605,-4.3605,-4.1931,0.0,0.0,0.0,0.0,-4.1143,-4.1546,0.0,0.0,0.0,0.0,0.0,0.0,0.0,0.0,0.0,0.0,0.0,0.0,0.0,0.0,0.0,-2.3517,0.0,0.0,0.0,0.0,0.0,0.0,0.0,0.0,0.0,0.0,0.0,0.0,-2.9575,-3.1751,-3.3587,-3.5202,-3.6835,-3.8395,-3.801,-3.7037,-3.5605,-3.4559,-3.3201,0.0,0.0,0.0,0.0,0.0,0.0,0.0,0.0,0.0,0.0,0.0,0.0,0.0,0.0,0.0,0.0,0.0,0.0,0.0,0.0,0.0,0.0,0.0,0.0,0.0,0.0,0.0,0.0,0.0,0.0,0.0,0.0,0.0,0.0,0.0,0.0,0.0,0.0,-2.9226,-3.0715,-2.9682,-3.2906,-3.4722,0.0,0.0,0.0,0.0,0.0,0.0,-3.8584,-4.0642,-4.1989,-4.2431,-4.4489,-4.5817,-4.624,-4.8125,-4.9625,-5.0702,-5.1356,-5.1779,-5.1972,-5.1972,-5.2433,-5.3203,-5.2972,-5.2876,-5.2606,-4.926,-4.649,-4.4374,-4.4374,-4.4124,-4.3778,-4.3989,-4.4316,-4.4624,0.0,0.0,0.0,0.0,0.0,0.0,0.0,0.0,0.0,0.0,0.0,0.0,0.0,0.0,-2.4062,-2.5941,-2.6472,-2.6783,0.0,0.0,0.0,0.0,0.0,0.0,0.0,0.0,0.0,-2.8413,-3.1148,-3.3733,-3.6156,-3.7771,-3.9368,-4.0965,-4.168,-4.1534,-4.0487,-3.6586,-3.5367,-3.5789,0.0,0.0,0.0,0.0,0.0,0.0,0.0,0.0,0.0,0.0,0.0,0.0,0.0,0.0,0.0,0.0,0.0,0.0,0.0,0.0,0.0,0.0,0.0,0.0,0.0,0.0,0.0,0.0,0.0,0.0,0.0,0.0,0.0,0.0,0.0,0.0,0.0,0.0,0.0,-3.0145,-3.5335,0.0,0.0,0.0,0.0,-4.0046,-4.02,-4.1316,-4.3797,-4.4816,-4.6067,-4.7663,-4.8644,-4.9913,-5.151,-5.1645,-5.2568,-5.4241,-5.428,-5.4703,-5.5453,-5.5453,-5.5915,-5.6684,-5.5857,-5.5511,-5.5241,-5.1875,-4.9452,-4.7855,-4.7855,-4.6874,-4.5566,-4.6394,-4.6201,-4.5528,0.0,0.0,0.0,0.0,0.0,0.0,0.0,0.0,0.0,0.0,0.0,0.0,0.0,-2.3841,-2.4996,-2.7208,-2.8411,-2.8966,-2.8858,0.0,0.0,0.0,0.0,0.0,0.0,0.0,0.0,0.0,-3.3716,-3.5954,-3.7863,-3.8964,-4.0322,-4.1882,-4.2176,-4.2433,-4.2488,-3.9992,-3.7918,-3.6119,-3.4156,-3.2247,0.0,0.0,0.0,0.0,0.0,0.0,0.0,0.0,0.0,0.0,0.0,0.0,0.0,0.0,0.0,0.0,0.0,0.0,0.0,0.0,0.0,0.0,0.0,0.0,0.0,0.0,0.0,0.0,0.0,0.0,0.0,0.0,0.0,0.0,0.0,0.0,0.0,-3.6474,-4.0085,0.0,-4.1258,-4.197,-4.2874,-4.372,-4.5297,-4.6624,-4.7528,-4.9433,-5.1029,-5.2183,-5.301,-5.3741,-5.4337,-5.4895,-5.5203,-5.5261,-5.5261,-5.5722,-5.653,-5.653,-5.7011,-5.7819,-5.7511,-5.7376,-5.7242,-5.5472,-5.3087,-5.0491,-4.9971,-4.9413,-4.8913,-4.9221,-4.9528,-4.9778,0.0,0.0,0.0,0.0,0.0,0.0,0.0,0.0,0.0,0.0,0.0,-2.2377,-2.3601,-2.4407,-2.5932,-2.8546,-2.9674,-3.0237,-3.0257,0.0,0.0,0.0,0.0,0.0,0.0,0.0,0.0,0.0,0.0,0.0,-3.9129,-4.0212,-4.1277,-4.2323,-4.2873,-4.3259,-4.3461,-4.2947,-4.0708,-3.7386,-3.6009,-3.4651,-3.3183,0.0,0.0,0.0,0.0,0.0,0.0,0.0,0.0,0.0,0.0,0.0,0.0,0.0,0.0,0.0,0.0,0.0,0.0,0.0,0.0,0.0,0.0,0.0,0.0,0.0,0.0,0.0,0.0,0.0,0.0,0.0,0.0,0.0,0.0,-3.7043,-3.9928,-4.0941,-4.4248,-4.6336,-4.6047,-4.6528,-4.7355,-4.8509,-5.0164,-5.1375,-5.1933,-5.3549,-5.4876,-5.5742,-5.6299,-5.6588,-5.6588,-5.7146,-5.7146,-5.6588,-5.6588,-5.6876,-5.7434,-5.7434,-5.7742,-5.83,-5.83,-5.83,-5.8223,-5.7357,-5.5665,-5.3549,-5.276,-5.2126,-5.1645,-5.1991,-5.2319,-5.2569,0.0,0.0,0.0,0.0,0.0,0.0,0.0,0.0,0.0,0.0,-2.0268,-2.1769,-2.3241,-2.4729,-2.6862,-3.0004,-3.0132,-3.0415,-3.1371,-2.9874,0.0,0.0,0.0,0.0,0.0,0.0,0.0,0.0,0.0,0.0,0.0,-4.1552,-4.2304,-4.2415,-4.3993,-4.4268,-4.3626,-4.5223,-4.3663,-4.0047,-3.9148,-3.8285,-3.7323,0.0,0.0,0.0,0.0,0.0,0.0,0.0,0.0,0.0,0.0,0.0,0.0,0.0,0.0,0.0,0.0,0.0,0.0,0.0,0.0,0.0,0.0,0.0,0.0,0.0,0.0,0.0,0.0,0.0,0.0,0.0,0.0,0.0,-3.4749,-4.0112,-4.3808,-4.3101,-4.7645,-5.051,-4.9702,-5.1106,-5.2779,-5.4491,-5.4645,-5.5357,-5.6973,-5.7049,-5.7434,-5.8319,-5.8319,-5.83,-5.83,-5.8319,-5.8319,-5.83,-5.83,-5.8319,-5.8338,-5.8338,-5.8357,-5.8377,-5.8377,-5.8377,-5.8319,-5.7434,-5.7069,-5.6992,-5.6203,-5.4916,-5.3609,-5.4589,-5.4395,-5.3589,0.0,0.0,0.0,0.0,0.0,0.0,0.0,0.0,0.0,0.0,-2.0401,-2.2361,-2.3291,-2.4729,-2.6734,-2.9627,-2.8774,-2.9165,-3.1746,0.0,0.0,0.0,0.0,0.0,0.0,0.0,0.0,0.0,0.0,0.0,0.0,0.0,-4.2598,-4.3204,-4.425,-4.458,-4.4452,-4.5461,-4.5608,-4.4856,-4.1717,-3.9955,-3.8909,0.0,0.0,0.0,0.0,0.0,0.0,0.0,0.0,0.0,0.0,0.0,0.0,0.0,0.0,0.0,0.0,0.0,0.0,0.0,0.0,0.0,0.0,0.0,0.0,0.0,0.0,0.0,0.0,0.0,0.0,0.0,-3.8364,-4.1455,-4.1376,-4.3939,-4.6931,-4.995,-5.2182,-5.3837,-5.4818,-5.5338,-5.6049,-5.7165,-5.78,-5.8338,-5.8781,-5.8261,-5.8319,-5.9146,-5.8607,-5.83,-5.83,-5.8877,-5.8877,-5.83,-5.83,-5.8607,-5.9165,-5.9165,-5.9511,-6.0108,-6.0108,-6.0108,-6.005,-5.9165,-5.88,-5.8627,-5.6646,-5.5628,-5.5265,-5.5684,-5.5758,-5.5499,0.0,0.0,0.0,0.0,0.0,0.0,0.0,0.0,0.0,0.0,-2.0268,-2.2361,-2.2462,-2.4069,-2.5985,-2.8091,-2.74,-2.7707,-2.9763,0.0,0.0,0.0,0.0,0.0,0.0,0.0,0.0,0.0,0.0,0.0,0.0,0.0,-4.3039,-4.3534,-4.469,-4.5021,-4.48,-4.6287,-4.7186,-4.7407,-4.5076,-4.3846,-4.2983,-3.9056,-3.7991,-3.8322,-3.6611,-3.6564,-3.7103,-3.5745,0.0,0.0,0.0,0.0,0.0,0.0,0.0,0.0,0.0,0.0,0.0,0.0,0.0,0.0,0.0,0.0,0.0,0.0,0.0,0.0,0.0,0.0,0.0,0.0,-4.2642,-4.6359,-4.8162,-4.9236,-5.1081,-5.4414,-5.5568,-5.6607,-5.7915,-5.805,-5.8415,-5.9281,-5.9781,-6.0031,-6.0031,-5.9608,-5.9396,-5.9492,-5.9396,-5.9165,-5.8819,-5.9627,-5.98,-5.9358,-5.9358,-5.9588,-6.0031,-6.0031,-6.0127,-6.0281,-6.0646,-6.0589,-6.0223,-5.9704,-5.9492,-5.93,0.0,0.0,0.0,0.0,-5.6421,-5.6368,0.0,0.0,0.0,0.0,0.0,0.0,0.0,0.0,0.0,0.0,0.0,-2.1787,-2.1046,-2.284,-2.4607,-2.5819,-2.5819,-2.6022,0.0,0.0,0.0,0.0,0.0,0.0,0.0,0.0,0.0,0.0,0.0,0.0,0.0,0.0,0.0,-4.3552,-4.5168,-4.5498,-4.5002,-4.7425,-4.8508,-4.8581,-4.8581,-4.8526,-4.7957,-4.3387,-4.2525,-4.3385,-4.054,-3.9508,-3.9491,-3.9412,0.0,0.0,0.0,0.0,0.0,0.0,0.0,0.0,0.0,0.0,0.0,0.0,0.0,0.0,0.0,0.0,0.0,0.0,0.0,0.0,0.0,0.0,0.0,0.0,-4.705,-5.0394,-5.4491,-5.5145,-5.5722,-5.7107,-5.7953,-5.8761,-5.9569,-5.9646,-5.9973,-6.0742,-6.08,-6.08,-6.08,-6.0704,0.0,0.0,0.0,-6.0281,-5.9511,-6.0358,-6.08,-6.08,-6.08,-6.08,-6.08,-6.08,-6.0377,-5.9685,-6.0454,-6.0358,-5.9646,-5.9646,-5.9588,-5.9338,-5.7824,-5.726,-5.7223,-5.6747,-5.6597,-5.6495,0.0,0.0,0.0,0.0,0.0,0.0,0.0,0.0,0.0,-1.6581,-1.9005,-2.0487,-1.9523,-2.0872,-2.2316,-2.3466,-2.3257,-2.3727,0.0,0.0,0.0,0.0,0.0,0.0,0.0,0.0,0.0,0.0,0.0,0.0,0.0,0.0,0.0,-4.3552,-4.5168,-4.581,-4.5828,-4.8288,-4.9719,-5.0325,-5.0325,-4.9921,-4.9022,-4.6085,-4.5168,-4.5186,-4.329,-4.3456,-4.4213,-4.2298,-4.2283,-4.2598,-3.9827,0.0,0.0,0.0,0.0,0.0,0.0,0.0,0.0,0.0,0.0,0.0,0.0,0.0,0.0,0.0,0.0,0.0,0.0,0.0,0.0,-4.7838,-5.1663,-5.5241,-5.8127,-5.9146,-5.9435,-5.905,-5.9165,-5.9608,-6.0473,-6.055,-6.0608,-6.0781,-6.08,-6.08,-6.08,-6.0127,-5.9665,-5.9511,-5.9665,-5.9665,-5.9492,-6.0358,-6.08,-6.08,-6.08,0.0,-6.08,-6.08,-6.0704,-6.055,-6.0723,-6.0704,-6.055,-6.055,-6.0127,-5.9358,-5.7921,-5.7055,-5.6575,-5.6484,-5.6517,-5.6567,0.0,0.0,0.0,0.0,0.0,0.0,0.0,0.0,0.0,0.0,-1.8818,-2.0046,-1.9514,-2.0453,-2.1338,-2.192,-2.195,0.0,0.0,0.0,0.0,0.0,0.0,0.0,0.0,0.0,0.0,0.0,0.0,0.0,0.0,0.0,0.0,-4.3552,-4.5168,-4.5902,-4.603,-4.8086,-4.9426,-5.0196,-5.0196,-5.0435,-5.0527,-4.8049,-4.6856,-4.6416,-4.559,-4.5571,-4.5773,-4.4984,-4.4984,-4.4947,-4.2947,-4.1754,-4.0693,0.0,0.0,0.0,0.0,0.0,0.0,0.0,0.0,0.0,0.0,0.0,0.0,0.0,0.0,-4.2259,0.0,0.0,-4.9719,-5.3278,-5.5953,-5.8357,-6.0492,-6.1512,-6.1897,-6.1454,-6.1396,-6.157,-6.2012,-6.205,-6.205,-6.205,-6.1685,-6.1435,-6.1435,-6.0608,-5.9954,-5.9511,-5.9915,-5.9935,-5.9492,-6.0358,-6.08,-6.08,-6.08,-6.08,-6.08,-6.08,-6.08,-6.08,-6.08,-6.08,-6.0762,-6.0319,-5.9665,-5.88,-5.7723,-5.7129,-5.687,-5.652,-5.6445,-5.6489,0.0,0.0,0.0,0.0,0.0,0.0,0.0,0.0,0.0,0.0,0.0,-1.9574,-1.931,-2.0051,-2.067,0.0,0.0,0.0,0.0,0.0,0.0,0.0,0.0,0.0,0.0,0.0,0.0,0.0,0.0,0.0,0.0,0.0,0.0,-4.3791,-4.5241,-4.5993,-4.625,-4.7865,-4.8948,-4.9591,-4.9756,-5.0508,-5.1316,-4.9315,-4.8251,-4.7774,-4.7297,-4.6489,-4.5792,-4.6617,-4.6342,-4.5645,-4.5461,-4.4745,-4.3487,-4.1081,-4.0774,0.0,0.0,0.0,0.0,0.0,0.0,0.0,0.0,0.0,-4.2451,-4.4365,-4.611,-4.8471,-5.2202,-5.3164,-5.4626,-5.8415,-5.9704,-6.0781,-6.2358,-6.3147,-6.3628,-6.3801,-6.3512,-6.3301,-6.3301,-6.3301,-6.3301,-6.3301,-6.2551,-6.2166,-6.232,-6.1512,-6.0723,-6.0031,-6.0839,-6.0877,-6.0012,-6.0704,-6.105,-6.105,-6.0877,-6.08,-6.08,-6.08,-6.08,-6.08,-6.08,-6.08,-6.0723,-5.9858,-5.9127,-5.8454,-5.7527,-5.7351,-5.7507,-5.6675,-5.6359,-5.6368,0.0,0.0,0.0,0.0,0.0,0.0,0.0,0.0,0.0,0.0,0.0,0.0,0.0,0.0,0.0,0.0,0.0,0.0,0.0,0.0,0.0,0.0,0.0,0.0,0.0,0.0,0.0,0.0,0.0,0.0,0.0,0.0,0.0,-4.4617,-4.5498,-4.6305,-4.7095,-4.8746,-4.9499,-4.9646,-5.038,-5.0343,-4.9829,-4.9536,-4.9829,-5.0105,-4.7902,-4.614,-4.4966,-4.5755,-4.5498,-4.5204,-4.726,-4.6856,-4.5331,-4.3849,0.0,-3.9786,-3.6784,-3.631,-3.6901,-3.7894,-3.965,-4.2254,0.0,0.0,-4.9048,-5.1528,-5.2797,-5.4087,-5.6069,-5.7646,-5.9319,-6.1339,-6.2358,-6.3205,-6.4185,-6.4397,-6.4743,-6.5513,-6.4243,-6.3301,-6.3301,-6.3301,-6.3301,-6.3301,-6.2551,-6.2397,-6.3128,-6.2397,-6.1897,-6.18,-6.2608,-6.2627,-6.182,-6.1897,-6.1935,-6.1935,-6.1166,-6.08,-6.08,-6.08,-6.08,-6.08,-6.08,-6.08,-6.0723,-5.9858,-5.9454,-5.9204,-5.7646,-5.7593,-5.8199,-5.6764,-5.6222,-5.6214,0.0,0.0,0.0,0.0,0.0,0.0,0.0,0.0,0.0,0.0,0.0,0.0,0.0,0.0,0.0,0.0,0.0,0.0,0.0,0.0,0.0,0.0,0.0,0.0,0.0,0.0,0.0,0.0,0.0,0.0,0.0,0.0,0.0,0.0,-4.5333,-4.6085,-4.6526,-4.8141,-4.8838,-4.8875,-4.9205,-4.915,-4.8744,-4.7955,-4.7077,-4.6097,-4.5279,-4.4268,0.0,0.0,-4.3516,-4.4342,-4.6287,-4.5792,-4.4228,-4.2891,-4.1805,0.0,-4.0732,-4.0188,-4.0146,0.0,-4.4531,-4.707,-4.9405,-5.0795,-5.2491,-5.5549,-5.6838,-5.8223,-6.0935,-6.1589,-6.2281,0.0,-6.4166,-6.4359,-6.5224,-6.4916,-6.4551,-6.4397,-6.332,-6.2974,-6.3955,-6.407,-6.407,-6.407,-6.3281,-6.3166,-6.4012,-6.3262,-6.2801,-6.2801,-6.3128,-6.3147,-6.2801,-6.232,-6.2089,-6.2089,-6.1223,-6.08,-6.08,-6.08,-6.08,-6.08,-6.08,-6.08,-6.0723,-5.9858,-5.9492,-5.9338,-5.7646,-5.7569,-5.8187,-5.6616,-5.6358,-5.671,0.0,0.0,0.0,0.0,0.0,0.0,0.0,0.0,0.0,0.0,0.0,0.0,0.0,0.0,0.0,0.0,0.0,0.0,0.0,0.0,0.0,0.0,0.0,0.0,0.0,0.0,0.0,0.0,0.0,0.0,0.0,0.0,0.0,0.0,-4.4598,-4.5235,-4.5526,-4.6691,-4.7183,-4.7183,-4.7359,-4.7289,-4.6939,-4.557,-4.381,-4.2122,-4.2448,-4.1531,0.0,0.0,-4.0396,-4.1479,-4.3332,-4.3112,-4.2022,-4.1364,-4.1008,-4.1048,-4.1992,-4.237,0.0,-4.5371,-4.856,-5.1381,-5.2379,-5.4005,-5.6126,-5.9069,-6.0146,-6.13,-6.3782,-6.3743,-6.3724,-6.4974,-6.4859,-6.4743,-6.5128,-6.4647,-6.3839,-6.2743,-6.1685,-6.1531,-6.2743,-6.3493,-6.3993,-6.4224,-6.3666,-6.3685,-6.4551,-6.4012,-6.3666,-6.3666,-6.3897,-6.3897,-6.3666,-6.2839,-6.2416,-6.2416,-6.132,-6.08,-6.08,-6.08,-6.08,-6.08,-6.08,-6.08,-6.0723,-5.9858,-5.9492,-5.9358,-5.7915,-5.7877,-5.8454,-5.7069,-5.6953,-5.7376,0.0,0.0,0.0,0.0,0.0,0.0,0.0,0.0,0.0,0.0,0.0,0.0,0.0,0.0,0.0,0.0,0.0,0.0,0.0,0.0,0.0,0.0,0.0,0.0,0.0,0.0,0.0,0.0,0.0,0.0,0.0,0.0,0.0,0.0,-4.3091,-4.3535,-4.4245,-4.4299,-4.4316,-4.4378,-4.4952,-4.474,-4.3873,-4.2394,-4.1081,-4.002,-4.022,0.0,0.0,0.0,-3.5917,-3.5669,-3.8157,-3.8891,0.0,-4.0038,-3.9661,-3.8802,-3.8463,0.0,-4.4085,-4.629,-5.0306,-5.4329,-5.6815,-5.9019,-6.105,-6.2801,-6.3185,-6.3224,-6.332,-6.332,-6.332,-6.3378,-6.407,-6.432,-6.3493,-6.3358,-6.2724,-6.1069,-5.9415,-5.8434,-5.8492,-6.0723,-6.2493,-6.3281,-6.332,-6.3685,-6.4551,-6.457,-6.457,-6.457,-6.5378,-6.5416,-6.457,-6.3705,-6.3262,-6.3243,-6.1589,-6.08,-6.08,-6.08,-6.08,-6.08,-6.08,-6.08,-6.0723,-5.9858,-5.9492,-5.9415,-5.8588,-5.8742,-5.9358,-5.8531,-5.8242,-5.8146,0.0,0.0,0.0,0.0,0.0,0.0,0.0,0.0,0.0,0.0,0.0,0.0,0.0,0.0,0.0,0.0,0.0,0.0,0.0,0.0,0.0,0.0,0.0,0.0,0.0,0.0,0.0,0.0,0.0,0.0,0.0,0.0,0.0,0.0,-4.0552,-4.1209,-4.1973,-4.2488,-4.3002,-4.3375,-4.2614,-4.2123,-4.1564,-3.8881,-3.6378,-3.4141,0.0,0.0,0.0,0.0,0.0,-3.3752,-3.5632,-3.5514,-3.4797,-3.5562,-3.6915,-3.8724,-4.1127,0.0,-4.8182,-5.1442,-5.4305,-5.6908,-5.9198,-6.0287,-6.0954,-6.1512,-6.0762,-5.9992,-5.9992,-5.9511,-5.9492,-6.0608,-6.1512,-6.2358,-6.3185,-6.2839,-6.1666,-5.9415,-5.8646,0.0,-5.6684,-5.8396,-6.0146,-6.1531,-6.2185,-6.3128,-6.4532,-6.4609,-6.4878,-6.5436,-6.5743,-6.5763,-6.5474,-6.4609,-6.4166,-6.4147,-6.2454,-6.1358,-6.08,-6.08,-6.08,-6.08,-6.08,-6.08,-6.0781,-6.0473,-6.0358,-6.0281,-5.9435,-5.9627,-6.0262,-5.9415,-5.9454,-5.9762,0.0,0.0,0.0,0.0,0.0,0.0,0.0,0.0,0.0,0.0,0.0,0.0,0.0,0.0,0.0,0.0,0.0,0.0,0.0,0.0,0.0,0.0,0.0,0.0,0.0,0.0,0.0,0.0,0.0,0.0,0.0,0.0,0.0,0.0,0.0,-3.6948,-3.7381,-3.793,-3.8421,-3.8772,-3.8011,-3.7524,-3.6955,-3.4305,-3.2042,0.0,0.0,0.0,0.0,0.0,0.0,-3.1072,-3.21,-3.2865,-3.3506,-3.4036,-3.6915,-4.0641,-4.3932,-4.7541,-5.1354,-5.5204,-5.743,-5.9185,-6.1031,-6.1363,-6.1012,-6.0089,-5.855,-5.7088,-5.6184,-5.5068,-5.4934,-5.6934,-5.7973,-5.9242,-6.1243,-6.132,-6.0454,-5.8531,-5.7742,-5.7049,0.0,-5.7184,-5.8415,-5.98,-6.1262,-6.257,-6.3647,-6.4262,-6.4993,-6.5859,-6.5897,-6.5897,-6.5897,-6.5032,-6.4301,-6.3685,-6.2608,-6.1627,-6.08,-6.08,-6.08,-6.08,-6.08,-6.08,-6.08,-6.08,-6.08,-6.0742,-6.0185,-6.03,-6.0723,-6.0165,-6.0319,-6.0589,0.0,0.0,0.0,0.0,0.0,0.0,0.0,0.0,0.0,0.0,0.0,0.0,0.0,0.0,0.0,0.0,0.0,0.0,0.0,0.0,0.0,0.0,0.0,0.0,0.0,0.0,0.0,0.0,0.0,0.0,0.0,0.0,0.0,0.0,0.0,-3.1038,-3.1089,-3.1089,-3.1106,-3.1162,-3.1631,-3.1342,-3.0542,-2.9054,0.0,0.0,0.0,0.0,0.0,0.0,0.0,0.0,-2.8081,-3.1262,-3.5032,-3.5533,-3.9537,-4.4313,-4.6617,-4.9903,-5.3572,-5.7416,-5.9515,-6.0959,-6.214,-6.213,-6.1089,-5.8511,-5.6511,-5.4472,0.0,0.0,-4.999,-5.2645,-5.3876,-5.5415,-5.8069,-5.9088,-5.9281,0.0,0.0,0.0,0.0,0.0,-5.7588,-5.8377,-6.0704,-6.2127,-6.2204,-6.3743,-6.4993,-6.5859,-6.5897,-6.5897,-6.5897,-6.507,-6.382,-6.2147,-6.2147,-6.1666,-6.08,-6.08,-6.08,-6.08,-6.08,-6.08,-6.08,-6.08,-6.08,-6.08,-6.08,-6.08,-6.08,-6.08,-6.08,-6.0685,0.0,0.0,0.0,0.0,0.0,0.0,0.0,0.0,0.0,0.0,0.0,0.0,0.0,0.0,0.0,0.0,0.0,0.0,0.0,0.0,0.0,0.0,0.0,0.0,0.0,0.0,0.0,0.0,0.0,0.0,0.0,0.0,0.0,0.0,0.0,-2.9008,-2.955,-2.955,-2.9871,-3.0277,0.0,-2.9124,-2.9211,0.0,0.0,0.0,0.0,0.0,0.0,0.0,0.0,0.0,0.0,-3.4371,-3.718,-3.8957,-4.2934,-4.7282,-4.9871,-5.3321,-5.6667,-5.8625,-5.9443,-5.982,-6.0181,-5.9273,-5.7376,-5.4203,-5.1202,-4.8375,0.0,0.0,0.0,-5.0702,-5.3126,0.0,-5.9627,-6.0339,0.0,-5.93,0.0,-5.9319,-5.8896,-6.0031,-6.0608,-6.0185,-6.1358,-6.2647,-6.3897,-6.4378,-6.4993,-6.5859,-6.5897,-6.5897,-6.5897,-6.5686,-6.4705,-6.2993,-6.2993,-6.2224,-6.08,-6.08,-6.08,-6.08,-6.08,-6.08,-6.08,-6.08,-6.08,-6.08,-6.08,-6.08,-6.08,-6.08,-6.08,-6.0762,0.0,0.0,0.0,0.0,0.0,0.0,0.0,0.0,0.0,0.0,0.0,0.0,0.0,0.0,0.0,0.0,0.0,0.0,0.0,0.0,0.0,0.0,0.0,0.0,0.0,0.0,0.0,0.0,0.0,0.0,0.0,0.0,0.0,0.0,0.0,0.0,-2.5765,0.0,0.0,0.0,0.0,0.0,0.0,0.0,0.0,0.0,0.0,0.0,0.0,0.0,0.0,-3.3532,-3.5771,-3.8497,-4.1311,-4.3513,0.0,-5.1147,-5.3451,-5.6152,-5.8706,-6.0197,-6.0121,-5.9372,-5.8127,-5.653,-5.3933,-4.9048,-4.624,0.0,-4.1335,-4.1546,0.0,0.0,0.0,0.0,-5.8473,-5.9762,-6.0185,0.0,-6.0839,0.0,-6.0685,-6.2185,-6.2993,-6.2493,-6.257,-6.3031,-6.3974,-6.4397,-6.4993,-6.5859,-6.5897,-6.5897,-6.5897,-6.5897,-6.5224,-6.3878,-6.3493,-6.2627,-6.1358,-6.0973,-6.08,-6.08,-6.08,-6.08,-6.08,-6.08,-6.08,-6.08,-6.08,-6.08,-6.08,-6.08,-6.08,-6.08,0.0,0.0,0.0,0.0,0.0,0.0,0.0,0.0,0.0,0.0,0.0,0.0,0.0,0.0,0.0,0.0,0.0,0.0,0.0,0.0,0.0,0.0,0.0,0.0,0.0,0.0,0.0,0.0,0.0,0.0,0.0,0.0,0.0,0.0,0.0,0.0,0.0,0.0,0.0,0.0,0.0,0.0,0.0,0.0,0.0,0.0,0.0,0.0,0.0,0.0,-3.3587,-3.5312,-3.9405,-4.3088,-4.6338,-4.8421,-5.1638,-5.4924,-5.6673,-5.8253,-5.9782,-6.1447,-6.0748,-5.8949,-5.613,-5.3834,-5.045,-4.4014,0.0,-4.0242,-3.7882,-3.8377,-4.0546,-4.4839,0.0,-5.1183,-5.628,-5.8338,-5.9704,-6.0685,-6.157,-6.2185,-6.2397,-6.3743,-6.4647,-6.4762,-6.407,-6.3647,-6.3647,-6.4359,-6.5128,-6.5878,-6.5897,-6.5897,-6.5897,-6.5897,-6.5474,-6.4628,-6.3724,-6.2897,-6.2113,-6.1204,-6.08,-6.08,-6.08,-6.08,-6.0819,-6.08,-6.08,-6.0819,-6.08,-6.08,-6.0819,-6.0819,-6.0839,-6.0858,0.0,0.0,0.0,0.0,0.0,0.0,0.0,0.0,0.0,0.0,0.0,0.0,0.0,0.0,0.0,0.0,0.0,0.0,0.0,0.0,0.0,0.0,0.0,0.0,0.0,0.0,0.0,0.0,0.0,0.0,0.0,0.0,0.0,0.0,0.0,0.0,0.0,0.0,0.0,0.0,0.0,0.0,0.0,0.0,0.0,0.0,0.0,0.0,0.0,0.0,-3.5936,-3.9551,-4.3589,-4.7132,-5.0245,-5.2252,-5.4317,-5.6238,-5.7551,-5.8653,-5.9564,-6.0275,-5.8984,-5.696,-5.4772,-5.0765,0.0,0.0,-3.8479,-3.6161,-3.4783,-3.6558,-3.9769,-4.4498,0.0,0.0,0.0,0.0,-5.9088,0.0,-6.157,-6.2627,-6.4032,-6.4436,-6.4897,-6.5609,-6.5532,-6.5455,-6.5455,-6.559,-6.5743,-6.5897,-6.5897,-6.5897,-6.5897,-6.5897,-6.5513,-6.4749,-6.3762,-6.2935,-6.2232,-6.1266,-6.08,-6.08,-6.08,-6.0858,-6.0954,-6.0839,-6.0858,-6.0935,-6.0839,-6.0858,-6.0954,-6.0954,-6.105,-6.1189,0.0,0.0,0.0,0.0,0.0,0.0,0.0,0.0,0.0,0.0,0.0,0.0,0.0,0.0,0.0,0.0,0.0,0.0,0.0,0.0,0.0,0.0,0.0,0.0,0.0,0.0,0.0,-1.7652,0.0,0.0,0.0,0.0,0.0,0.0,0.0,0.0,0.0,0.0,0.0,0.0,0.0,0.0,0.0,0.0,0.0,0.0,0.0,0.0,0.0,0.0,-3.4778,-3.9551,-4.4856,-4.9077,-5.2261,-5.346,-5.5454,-5.7465,-5.8229,-5.9269,-6.0189,-6.0411,-5.8379,-5.5262,-5.1245,0.0,0.0,0.0,-3.4899,-3.3846,-3.2886,0.0,0.0,0.0,0.0,0.0,0.0,0.0,0.0,0.0,-6.1666,-6.2878,-6.3262,-6.4493,-6.5263,-6.5224,-6.5628,-6.5897,-6.5897,-6.5897,-6.5897,-6.5897,-6.5897,-6.5897,-6.5897,-6.5897,-6.5532,-6.4801,-6.3782,-6.2954,-6.2267,-6.1243,-6.08,-6.08,-6.08,-6.0569,-6.0242,-6.0627,-6.0569,-6.0262,-6.0704,-6.0935,-6.102,-6.1001,-6.079,-6.0558,0.0,0.0,0.0,0.0,0.0,0.0,0.0,0.0,0.0,0.0,0.0,0.0,0.0,0.0,0.0,0.0,0.0,0.0,0.0,0.0,0.0,0.0,0.0,0.0,0.0,0.0,0.0,-1.6712,-1.7891,0.0,0.0,0.0,0.0,0.0,-1.903,0.0,0.0,0.0,0.0,0.0,0.0,0.0,0.0,0.0,0.0,0.0,0.0,0.0,0.0,0.0,-3.2247,-3.685,-4.2606,-4.8031,-5.2327,-5.2605,-5.5055,-5.7739,-5.8277,-5.9507,-6.0633,-6.0527,-5.7889,-5.381,-4.8106,-4.3864,0.0,0.0,-3.2122,-3.2205,-3.1706,0.0,-3.6031,0.0,0.0,0.0,0.0,0.0,0.0,0.0,-6.1339,0.0,-6.2377,-6.4166,-6.5205,-6.4897,-6.5513,-6.5897,-6.5897,-6.5897,-6.5897,-6.5897,-6.5897,-6.5897,-6.5897,-6.5705,-6.5359,-6.4776,-6.3608,-6.2781,-6.2262,-6.1262,-6.08,-6.08,-6.08,-6.0319,-5.9627,-6.0492,-6.0339,-5.9685,-6.0666,-6.105,-6.1039,-6.0847,-6.0392,-5.9893,0.0,0.0,0.0,0.0,0.0,0.0,0.0,0.0,0.0,0.0,0.0,0.0,0.0,0.0,0.0,0.0,0.0,0.0,0.0,0.0,0.0,0.0,0.0,0.0,0.0,0.0,0.0,-1.6712,-1.7428,0.0,0.0,0.0,0.0,0.0,0.0,-1.9271,-2.0125,0.0,0.0,0.0,0.0,0.0,0.0,0.0,0.0,0.0,0.0,0.0,0.0,0.0,0.0,-3.1039,-3.4606,-4.1981,-4.928,-4.9174,0.0,0.0,-5.6922,-5.8639,-6.0092,-5.971,-5.6827,-5.2723,-4.7608,0.0,0.0,-3.3337,-3.1459,-3.0772,-3.1245,-3.2311,-3.4183,0.0,0.0,-4.2835,0.0,0.0,0.0,0.0,0.0,0.0,-6.3051,-6.3397,-6.4166,-6.5667,-6.584,-6.5897,-6.5897,-6.5897,-6.5897,-6.5897,-6.5897,-6.5897,-6.5897,-6.5109,-6.4743,-6.4787,-6.3031,-6.2247,-6.2271,-6.1266,-6.08,-6.08,-6.08,-6.0396,-5.9842,-6.067,-6.0573,-6.0038,-6.092,-6.1285,-6.117,-6.0368,-6.0044,-5.9851,0.0,0.0,0.0,0.0,0.0,0.0,0.0,0.0,0.0,0.0,0.0,0.0,0.0,0.0,0.0,0.0,0.0,0.0,0.0,0.0,0.0,0.0,0.0,0.0,0.0,0.0,-1.6517,-1.6159,-1.6786,0.0,0.0,0.0,0.0,0.0,0.0,-1.8824,-2.031,0.0,0.0,0.0,0.0,0.0,0.0,0.0,0.0,0.0,0.0,0.0,0.0,0.0,0.0,0.0,-2.8785,-3.367,0.0,0.0,-4.8662,-5.2664,-5.5458,-5.7934,-5.969,-5.9546,-5.6057,-5.1363,-4.6302,0.0,-3.6304,-3.2105,-3.0791,-3.0482,-3.0714,-3.1111,-3.2308,0.0,0.0,0.0,0.0,0.0,0.0,0.0,-5.7953,0.0,0.0,-6.3031,-6.382,-6.5032,-6.5128,-6.534,-6.5859,-6.5897,-6.5897,-6.5897,-6.5397,-6.5128,-6.5128,-6.4262,-6.3647,-6.3281,-6.2474,-6.1959,-6.167,-6.105,-6.0839,-6.0916,-6.0839,-6.0069,-5.8973,-5.9858,-5.9415,-5.8303,-5.9342,-5.9684,-5.9572,-5.9218,-5.8767,-5.8325,0.0,0.0,0.0,0.0,0.0,0.0,0.0,0.0,0.0,0.0,0.0,0.0,0.0,0.0,0.0,0.0,0.0,0.0,0.0,0.0,0.0,0.0,0.0,0.0,0.0,0.0,-1.6366,-1.5955,-1.6467,-1.651,0.0,0.0,-1.6465,-1.7155,0.0,0.0,0.0,0.0,0.0,0.0,0.0,0.0,0.0,0.0,0.0,0.0,0.0,0.0,0.0,0.0,0.0,0.0,0.0,0.0,0.0,0.0,-4.375,-4.8567,-5.1787,-5.5384,-5.8165,-5.7915,-5.4274,-4.951,0.0,0.0,-3.4911,-3.1167,-3.0398,-3.0398,-3.0398,-3.0398,-3.1083,0.0,0.0,-3.5699,-4.1508,0.0,0.0,0.0,0.0,-5.7703,-6.1012,-6.3031,-6.4378,-6.4993,-6.4859,-6.5128,-6.5994,-6.557,-6.5359,-6.5513,-6.4916,-6.4474,-6.4224,-6.3378,-6.2704,-6.2243,-6.1877,-6.1512,-6.1151,-6.0935,-6.0896,-6.0973,-6.0896,-5.9935,-5.8489,-5.9377,-5.8858,-5.7607,-5.8668,-5.8991,-5.8891,-5.8892,-5.8303,-5.7552,0.0,0.0,0.0,0.0,0.0,0.0,0.0,0.0,0.0,0.0,0.0,0.0,0.0,0.0,0.0,0.0,0.0,0.0,0.0,0.0,0.0,0.0,0.0,0.0,0.0,0.0,0.0,-1.6301,-1.6633,-1.6805,-1.6789,-1.6789,-1.6789,-1.6837,0.0,0.0,0.0,0.0,0.0,0.0,0.0,0.0,0.0,0.0,0.0,0.0,0.0,0.0,0.0,0.0,0.0,0.0,0.0,0.0,0.0,0.0,-3.745,-4.3856,-4.5152,-5.026,-5.5033,-5.4167,-5.1031,-4.7028,0.0,0.0,-3.3506,-3.0929,-3.0398,-3.0398,-3.0398,-3.0398,-3.0698,-3.1583,-3.3833,0.0,-4.0046,0.0,0.0,0.0,0.0,-5.3972,-5.905,-6.3493,-6.607,-6.607,-6.5474,-6.5493,-6.6365,-6.4757,-6.4059,-6.4609,-6.4609,-6.4185,-6.332,-6.2512,-6.2108,-6.2089,-6.1223,-6.08,-6.08,-6.0935,-6.0993,-6.0993,-6.0993,-6.0123,-5.8754,-5.9499,-5.9364,-5.8761,-5.9653,-5.9903,-5.9784,-5.9784,-5.9149,-5.8165,0.0,0.0,0.0,0.0,0.0,0.0,0.0,0.0,0.0,0.0,0.0,0.0,0.0,0.0,0.0,0.0,0.0,0.0,0.0,0.0,0.0,0.0,0.0,0.0,0.0,0.0,0.0,-1.6301,-1.6633,-1.6789,-1.6789,-1.6789,-1.6926,-1.7158,-1.7668,-1.8604,0.0,0.0,0.0,0.0,0.0,0.0,0.0,0.0,0.0,0.0,0.0,0.0,0.0,0.0,0.0,0.0,0.0,0.0,0.0,0.0,0.0,0.0,-3.9985,-4.3582,-4.6382,-4.6115,-4.4359,-4.1875,-3.8812,0.0,-3.2541,-3.0538,-3.0022,-2.9912,-2.9912,-3.0032,-3.0978,-3.3593,-3.4846,0.0,0.0,0.0,0.0,-5.1048,-5.5876,-5.9492,-6.1108,-6.3171,-6.4402,-6.4397,-6.4271,-6.4333,-6.4607,-6.4103,-6.4135,-6.4916,-6.3705,-6.2954,-6.2757,-6.182,-6.1439,-6.1555,-6.1285,-6.0823,-6.0265,-6.092,-6.0881,-6.0327,-6.0809,-6.0403,-5.9412,-5.9051,-5.8375,-5.7511,-5.7302,-5.7167,-5.7129,-5.7129,-5.7008,-5.6813,0.0,0.0,0.0,0.0,0.0,0.0,0.0,0.0,0.0,0.0,0.0,0.0,0.0,0.0,0.0,0.0,0.0,0.0,0.0,0.0,0.0,0.0,0.0,0.0,0.0,0.0,0.0,-1.6474,-1.706,-1.7327,-1.7327,-1.7743,-1.8023,-1.8257,-1.8692,-1.9521,0.0,0.0,0.0,0.0,0.0,0.0,-2.3093,0.0,0.0,0.0,0.0,0.0,0.0,0.0,0.0,0.0,0.0,0.0,0.0,0.0,-2.6879,0.0,0.0,-3.7867,-4.0318,-4.0299,-3.899,0.0,0.0,0.0,-3.0438,-2.941,-2.9346,-2.9467,-2.9467,-2.9837,-3.0838,-3.2977,-3.4553,0.0,0.0,0.0,0.0,-5.0933,0.0,-6.0685,-6.0746,-6.2517,-6.3705,-6.3776,-6.3604,-6.3642,-6.3962,-6.3366,-6.341,-6.4289,-6.3051,-6.2253,-6.205,-6.1425,-6.1176,-6.1292,-6.1292,-6.1021,-6.0499,-6.0759,-6.0766,-6.0561,-6.0254,-5.9874,0.0,-5.8356,-5.7584,-5.703,-5.6569,-5.6376,-5.6436,-5.6811,-5.6828,-5.6635,0.0,0.0,0.0,0.0,0.0,0.0,0.0,0.0,0.0,0.0,0.0,0.0,0.0,0.0,0.0,0.0,0.0,0.0,0.0,0.0,0.0,0.0,0.0,0.0,0.0,-1.5355,-1.6064,-1.6735,-1.7726,-1.8243,-1.8312,-1.9321,-1.9832,-1.9901,-2.0403,0.0,0.0,0.0,0.0,0.0,0.0,0.0,0.0,0.0,0.0,0.0,0.0,0.0,0.0,0.0,0.0,0.0,0.0,0.0,0.0,0.0,0.0,0.0,0.0,0.0,0.0,0.0,0.0,0.0,0.0,0.0,0.0,-2.7827,-2.8503,-2.9079,-2.9125,-2.9829,-3.0444,-3.0694,-3.3455,0.0,0.0,-4.1604,0.0,0.0,-5.5434,-5.8492,-5.8418,-6.1651,-6.3782,-6.3905,-6.3341,-6.3341,-6.4087,-6.2585,-6.2067,-6.2877,-6.2605,-6.209,-6.1343,-6.1326,-6.1272,-6.1214,-6.1281,-6.1262,-6.1097,-6.05,-6.0622,-6.1235,-5.9469,-5.8765,-5.8792,-5.7536,-5.7069,-5.7184,-5.7126,-5.7126,-5.7268,-5.8202,-5.8037,-5.732,0.0,0.0,0.0,0.0,0.0,0.0,0.0,0.0,0.0,0.0,0.0,0.0,0.0,0.0,0.0,0.0,0.0,0.0,0.0,0.0,0.0,0.0,0.0,0.0,0.0,-1.4428,-1.5356,-1.6032,-1.7478,-1.8523,-1.9121,-1.9585,-2.0116,-2.0741,-2.1414,0.0,0.0,0.0,0.0,0.0,0.0,0.0,0.0,0.0,0.0,0.0,-2.3855,-2.3946,0.0,0.0,0.0,0.0,0.0,0.0,0.0,0.0,-2.4737,-2.4885,-2.5818,0.0,-2.8295,-2.8114,-2.839,-2.865,0.0,0.0,0.0,0.0,0.0,0.0,0.0,0.0,0.0,0.0,0.0,0.0,-4.0219,0.0,0.0,-5.3507,-5.7758,-5.9819,-5.7847,-6.0916,-6.2791,-6.2147,-6.2658,-6.2791,-6.2348,-6.1919,-6.1782,-6.1997,-6.1938,-6.1791,-6.1607,-6.15,-6.1117,-6.0461,-6.1241,-6.0796,-5.934,-6.003,-6.0044,-5.9488,-5.8939,-5.8707,-5.8657,-5.7475,-5.7069,-5.7126,-5.6472,-5.6379,-5.6631,-5.685,-5.6881,-5.6756,0.0,0.0,0.0,0.0,0.0,0.0,0.0,0.0,0.0,0.0,0.0,0.0,0.0,0.0,0.0,0.0,0.0,0.0,0.0,0.0,0.0,0.0,0.0,0.0,0.0,0.0,-1.5344,-1.6475,-1.7757,-1.8796,-1.9612,-2.0365,-2.1149,-2.1944,-2.2575,0.0,0.0,0.0,0.0,0.0,-2.2972,0.0,0.0,0.0,0.0,0.0,-2.3914,-2.3951,0.0,-2.4315,-2.4297,-2.4144,0.0,0.0,0.0,0.0,-2.5031,-2.5,-2.4923,-2.5077,-2.5358,-2.5611,-2.5895,-2.6216,0.0,0.0,0.0,0.0,0.0,0.0,0.0,0.0,0.0,0.0,-3.6243,0.0,0.0,0.0,-5.2454,-5.4506,-5.7559,-5.9302,-5.8758,-6.0819,-6.2045,-6.1616,-6.211,-6.2207,-6.1738,-6.1699,-6.1699,-6.1699,-6.1699,-6.1699,-6.1699,-6.1634,-6.1132,-6.0203,-6.1214,-6.0672,-5.8807,-5.9415,-5.9424,-5.8832,-5.7865,-5.7656,-5.7923,-5.684,-5.6472,-5.6571,-5.619,-5.6135,-5.6321,-5.6379,-5.6413,-5.6395,0.0,0.0,0.0,0.0,0.0,0.0,0.0,0.0,0.0,0.0,0.0,0.0,0.0,0.0,0.0,0.0,0.0,0.0,0.0,0.0,0.0,0.0,0.0,0.0,0.0,0.0,0.0,0.0,-1.8266,-1.9227,-2.0069,-2.1371,-2.2409,-2.3198,-2.342,0.0,0.0,0.0,-2.2748,-2.2917,-2.2648,0.0,0.0,0.0,0.0,0.0,0.0,0.0,0.0,-2.4238,-2.4166,-2.3863,-2.4758,0.0,0.0,0.0,0.0,0.0,-2.5088,-2.5051,-2.5196,-2.5687,-2.5309,-2.5059,0.0,0.0,0.0,0.0,0.0,0.0,0.0,0.0,0.0,0.0,0.0,0.0,-4.7163,-4.9579,-5.1831,-5.4783,-5.6872,-5.8525,-5.9727,-6.0867,-6.158,-6.1698,-6.1699,-6.1699,-6.1699,-6.1562,-6.1504,-6.1504,-6.1387,-6.1328,-6.1328,-6.1562,-6.1127,-6.0014,-6.1021,-6.0507,-5.8668,-5.87,-5.8695,-5.8561,-5.6727,-5.6321,-5.6939,-5.6071,-5.578,-5.592,-5.6082,-5.6175,-5.6212,-5.6344,-5.6304,-5.6181,0.0,0.0,0.0,0.0,0.0,0.0,0.0,0.0,0.0,0.0,0.0,0.0,0.0,0.0,0.0,0.0,0.0,0.0,0.0,0.0,0.0,0.0,0.0,0.0,0.0,0.0,0.0,0.0,0.0,0.0,-2.1166,-2.2301,-2.3254,-2.3988,-2.3151,-2.2738,-2.2659,-2.2322,-2.2072,-2.1857,-2.1809,0.0,0.0,0.0,0.0,0.0,0.0,0.0,0.0,-2.4586,-2.4681,-2.4671,-2.5122,0.0,0.0,0.0,0.0,0.0,-2.5264,-2.5781,-2.6117,-2.521,-2.4972,-2.5012,0.0,0.0,0.0,0.0,0.0,0.0,0.0,0.0,0.0,0.0,0.0,-4.555,0.0,0.0,-5.5574,-5.6097,-5.9055,-6.0303,-5.8437,-6.0331,-6.1687,-6.1699,-6.1699,-6.1699,-6.1699,-6.0996,-6.0605,-6.0605,-5.9941,-5.957,-5.957,-6.0996,-6.0818,-5.912,-6.0127,-5.9552,-5.7639,-5.7814,-5.7788,-5.7576,-5.6398,-5.5994,-5.609,-5.5799,-5.578,-5.5899,-5.5939,-5.6045,-5.6201,-5.6213,-5.6209,-5.6174,0.0,0.0,0.0,0.0,0.0,0.0,0.0,0.0,0.0,0.0,0.0,0.0,0.0,0.0,0.0,0.0,0.0,0.0,0.0,0.0,0.0,0.0,0.0,0.0,0.0,0.0,0.0,0.0,0.0,-2.0711,-2.2055,-2.2684,-2.3199,-2.3492,0.0,-2.1947,-2.1927,-2.1436,-2.1144,-2.098,0.0,0.0,0.0,0.0,0.0,0.0,0.0,0.0,0.0,0.0,-2.4804,-2.4861,-2.5182,0.0,0.0,0.0,0.0,0.0,-2.5303,-2.5591,-2.5994,-2.6388,-2.6515,-2.6803,0.0,0.0,0.0,0.0,0.0,0.0,0.0,0.0,-3.7472,-4.0868,0.0,-4.8652,-5.146,-5.3325,-5.4749,-5.5687,-5.8074,-5.9531,-5.9277,-6.0312,-6.0996,-6.0996,-6.0586,-6.0351,-6.0351,-5.9961,-5.9746,-5.9746,-5.9394,-5.9199,-5.9199,-5.9961,-5.9648,-5.8262,-5.9274,-5.8745,-5.6881,-5.7324,-5.7247,-5.6727,-5.6071,-5.578,-5.578,-5.5722,-5.578,-5.5898,-5.5904,-5.5956,-5.6029,-5.5961,-5.5915,-5.5915,0.0,0.0,0.0,0.0,0.0,0.0,0.0,0.0,0.0,0.0,0.0,0.0,0.0,0.0,0.0,0.0,0.0,0.0,0.0,0.0,0.0,0.0,0.0,0.0,0.0,0.0,-1.8139,-2.018,-2.0371,-2.1242,-2.2696,-2.2886,-2.2905,-2.2667,0.0,-2.102,-2.1,-2.0363,-2.0131,-2.0084,0.0,0.0,0.0,0.0,0.0,0.0,0.0,0.0,0.0,0.0,0.0,0.0,0.0,0.0,0.0,-2.5303,-2.5303,-2.5303,-2.5303,-2.5437,-2.5928,-2.7255,0.0,-2.7948,-3.0429,0.0,0.0,0.0,0.0,0.0,0.0,-3.6623,0.0,-4.56,-4.8743,-5.0918,-5.2148,-5.3242,-5.4492,-5.6035,-5.7383,-5.8711,-5.998,-6.0117,-6.0117,-6.0117,-5.9551,-5.9199,-5.9199,-5.9004,-5.8906,-5.8906,-5.8691,-5.8594,-5.8594,-5.8594,-5.8301,-5.7754,-5.8535,-5.8025,-5.6411,-5.693,-5.6809,-5.6186,-5.5915,-5.578,-5.5742,-5.5742,-5.578,-5.5838,-5.5838,-5.5838,-5.5838,-5.5742,-5.5703,-5.5703,0.0,0.0,0.0,0.0,0.0,0.0,0.0,0.0,0.0,0.0,0.0,0.0,0.0,0.0,0.0,0.0,0.0,0.0,0.0,0.0,0.0,0.0,0.0,0.0,0.0,-1.8327,-1.9393,-2.1295,-2.1295,-2.1879,-2.296,-2.2997,-2.2611,-2.184,0.0,-1.9923,-1.9883,-1.9269,-1.9026,-1.9009,-1.9002,0.0,0.0,0.0,0.0,0.0,0.0,0.0,0.0,0.0,0.0,0.0,0.0,0.0,-2.5303,-2.5303,-2.5303,-2.5303,-2.5303,-2.589,-2.6544,-2.6659,0.0,0.0,-3.1602,0.0,0.0,0.0,0.0,0.0,0.0,-3.9135,-4.2343,-4.6775,-4.9648,-5.2187,-5.4668,-5.6465,-5.7871,-5.8808,-5.9023,-5.914,-5.9277,-5.9297,-5.9297,-5.9297,-5.9238,-5.9199,-5.9199,-5.8437,-5.7988,-5.7988,-5.7207,-5.6797,-5.6797,-5.6797,-5.7168,-5.789,-5.7969,-5.7421,-5.6401,-5.644,-5.6377,-5.6205,-5.6167,-5.6071,-5.5876,-5.5876,-5.5818,-5.5703,-5.5703,-5.5703,-5.5703,-5.5703,-5.5703,-5.5703,0.0,0.0,0.0,0.0,0.0,0.0,0.0,0.0,0.0,0.0,0.0,0.0,0.0,0.0,0.0,0.0,0.0,0.0,0.0,0.0,0.0,0.0,0.0,-1.8401,-1.9215,-1.8983,-1.9506,-2.0841,-2.1388,-2.1862,-2.2226,-2.1828,0.0,0.0,0.0,-1.9397,-1.929,-1.8871,-1.8708,-1.876,-1.9255,-1.9685,0.0,0.0,0.0,0.0,0.0,0.0,0.0,0.0,-2.4828,0.0,0.0,0.0,-2.5303,-2.5303,-2.5303,-2.5303,-2.5303,-2.5947,-2.6736,-2.7274,0.0,0.0,0.0,0.0,0.0,0.0,0.0,0.0,0.0,0.0,-4.4453,-4.7168,-5.0195,-5.293,-5.5019,-5.6797,-5.8027,-5.8359,-5.8867,-5.9199,-5.9199,-5.8711,-5.8398,-5.8398,-5.789,-5.7344,-5.6797,-5.6465,-5.6035,-5.5488,-5.5683,-5.5781,-5.5781,-5.5781,-5.5957,-5.6289,-5.6836,-5.6894,-5.6523,-5.6445,-5.637,-5.6316,-5.6233,-5.58,-5.5142,-5.5152,-5.4762,-5.4145,-5.4145,-5.4145,-5.4145,-5.4145,-5.4145,-5.4145,0.0,0.0,0.0,0.0,0.0,0.0,0.0,0.0,0.0,0.0,0.0,0.0,0.0,0.0,0.0,0.0,0.0,0.0,0.0,0.0,0.0,0.0,0.0,-1.8813,-1.9519,-1.9183,-1.9628,-2.0923,-2.151,-2.169,-2.1463,0.0,0.0,0.0,0.0,-1.917,-1.9111,-1.9093,-1.9093,-1.9201,-2.0047,-2.0514,0.0,0.0,0.0,0.0,0.0,0.0,0.0,0.0,0.0,0.0,0.0,0.0,0.0,0.0,-2.5303,-2.5303,-2.5303,-2.5736,-2.6409,0.0,0.0,0.0,0.0,0.0,0.0,0.0,-4.3214,0.0,0.0,0.0,0.0,-4.7266,-5.0039,-5.2617,-5.4609,-5.5918,-5.6875,-5.7422,-5.7773,-5.7969,-5.7969,-5.7422,-5.6973,-5.6699,-5.6113,-5.5527,-5.4922,-5.4883,-5.4629,-5.4023,-5.457,-5.4883,-5.4883,-5.4883,-5.4883,-5.4902,-5.5488,-5.5918,-5.6172,-5.5801,-5.5948,-5.6426,-5.573,-5.5178,-5.4744,-5.4418,-5.3858,-5.3203,-5.3203,-5.3203,-5.3203,-5.3203,-5.3203,-5.3203,0.0,0.0,0.0,0.0,0.0,0.0,0.0,0.0,0.0,0.0,0.0,0.0,0.0,0.0,0.0,0.0,0.0,0.0,0.0,0.0,0.0,0.0,0.0,-1.845,-1.8966,-1.9002,-1.9918,-2.1784,-2.1784,-2.1443,-2.0792,-2.0792,0.0,0.0,0.0,0.0,-1.9452,-1.9923,-2.02,-2.0415,-2.1274,-2.2125,-2.2902,0.0,0.0,0.0,0.0,0.0,0.0,0.0,0.0,0.0,0.0,0.0,0.0,0.0,-2.5303,-2.5303,-2.5303,-2.5303,0.0,0.0,0.0,0.0,0.0,0.0,0.0,0.0,0.0,-4.5273,-4.6113,-4.4883,-4.459,-4.7168,-4.9062,-5.1094,-5.3633,-5.3984,-5.4648,-5.6367,-5.5801,-5.5293,-5.5293,-5.5293,-5.4922,-5.4043,-5.4004,-5.3984,-5.3984,-5.3984,-5.3984,-5.3984,-5.3984,-5.3984,-5.3984,-5.3984,-5.3984,-5.3984,-5.3984,-5.4433,-5.5254,-5.4394,-5.4936,-5.6464,-5.4612,-5.4204,-5.4791,-5.3795,-5.33,-5.3183,-5.3183,-5.3183,-5.3183,-5.3183,-5.3183,-5.3183,0.0,0.0,0.0,0.0,0.0,0.0,0.0,0.0,0.0,0.0,0.0,0.0,0.0,0.0,0.0,0.0,0.0,0.0,0.0,0.0,0.0,0.0,0.0,0.0,0.0,0.0,-1.9338,-2.0039,-2.0039,-2.0003,0.0,0.0,0.0,-2.0701,0.0,0.0,-2.145,-2.1582,-2.1662,-2.1779,-2.2605,-2.2755,-2.2595,0.0,0.0,0.0,0.0,0.0,0.0,0.0,0.0,0.0,0.0,0.0,0.0,0.0,-2.5303,-2.5303,-2.5303,-2.5755,0.0,0.0,0.0,0.0,0.0,0.0,0.0,0.0,-4.6031,-4.623,-4.4746,-4.6055,-4.7207,-4.6758,-4.9141,-5.1523,-5.2891,-5.3613,-5.4199,-5.4707,-5.4531,-5.4394,-5.4394,-5.4394,-5.4023,-5.3144,-5.3652,-5.3457,-5.2246,-5.2754,-5.2793,-5.2187,-5.2773,-5.3086,-5.3086,-5.3086,-5.3086,-5.3086,-5.2461,-5.2949,-5.4375,-5.412,-5.4223,-5.4593,-5.4034,-5.3473,-5.2865,-5.1914,-5.1491,-5.1433,-5.1433,-5.1433,-5.1433,-5.1433,-5.1433,-5.1433,0.0,0.0,0.0,0.0,0.0,0.0,0.0,0.0,0.0,0.0,0.0,0.0,0.0,0.0,0.0,0.0,0.0,0.0,0.0,0.0,0.0,0.0,0.0,0.0,0.0,-1.886,-1.9182,0.0,0.0,0.0,0.0,0.0,0.0,-2.1259,0.0,-2.1757,-2.2517,-2.2783,-2.2928,-2.3099,-2.3888,-2.389,-2.3468,0.0,0.0,0.0,0.0,0.0,0.0,0.0,0.0,0.0,0.0,0.0,0.0,-2.5233,-2.5303,-2.5303,-2.5303,0.0,0.0,0.0,0.0,0.0,0.0,0.0,0.0,0.0,0.0,-4.6601,-4.5469,-4.6406,-4.7226,-4.6875,-4.8848,-5.082,-5.2012,-5.2637,-5.3223,-5.3926,-5.3398,-5.2969,-5.2969,-5.2676,-5.2129,-5.1269,-5.1992,-5.1875,-5.0488,-5.1543,-5.1641,-5.0449,-5.1562,-5.2031,-5.1719,-5.2012,-5.2187,-5.2187,-5.1641,-5.1953,-5.2968,-5.2964,-5.3263,-5.3764,-5.2974,-5.1819,-5.0491,-5.0279,-4.9971,-4.9702,-5.0048,-4.9971,-4.9663,-4.9663,-4.9894,-5.0125,0.0,0.0,0.0,0.0,0.0,0.0,0.0,0.0,0.0,0.0,0.0,0.0,0.0,0.0,0.0,0.0,0.0,0.0,0.0,0.0,0.0,0.0,0.0,0.0,0.0,0.0,0.0,0.0,0.0,0.0,0.0,0.0,-2.0709,-2.1727,0.0,-2.2096,-2.3081,-2.3686,-2.4032,-2.4264,-2.5005,-2.5203,-2.5022,-2.501,0.0,0.0,0.0,0.0,0.0,0.0,0.0,0.0,0.0,0.0,0.0,-2.5212,-2.5303,-2.5303,0.0,0.0,0.0,0.0,0.0,0.0,0.0,0.0,0.0,-4.7066,0.0,-4.6617,-4.7344,-4.6328,-4.5859,-4.7363,-4.832,-4.9433,-5.0957,-5.1172,-5.1758,-5.3359,-5.2148,-5.1172,-5.1172,-5.0508,-4.9726,-4.8848,-4.959,-4.9707,-4.8828,-5.0293,-5.0469,-4.8945,-5.0371,-5.082,-5.0098,-5.0818,-5.1166,-5.1146,-5.1146,-5.1149,-5.1149,-5.1217,-5.2011,-5.3205,-5.1414,-4.9682,-4.8163,-4.8952,-4.8817,-4.8182,-4.8971,-4.8798,-4.8105,-4.8105,-4.8606,-4.9163,0.0,0.0,0.0,0.0,0.0,0.0,0.0,0.0,0.0,0.0,0.0,0.0,0.0,0.0,0.0,0.0,0.0,0.0,0.0,0.0,0.0,0.0,0.0,0.0,0.0,0.0,0.0,0.0,0.0,0.0,0.0,0.0,0.0,-2.3552,0.0,-2.3967,-2.4764,-2.4918,-2.4995,-2.5063,-2.5226,-2.5274,-2.5214,-2.5046,-2.4962,0.0,0.0,0.0,0.0,0.0,0.0,0.0,0.0,-2.4814,-2.4874,-2.5212,-2.5341,-2.539,0.0,0.0,0.0,0.0,0.0,0.0,0.0,0.0,-4.5796,-4.4757,-4.5948,-4.7045,-4.6653,-4.7383,-4.7969,-4.7656,-4.832,-4.9023,-4.9394,-4.9433,-4.957,-4.9941,-4.9668,-4.9433,-4.9433,-4.9277,-4.8828,-4.7949,-4.8691,-4.8808,-4.793,-4.8867,-4.9277,-4.8906,-4.9258,-4.9355,-4.918,-4.9352,-4.9387,-4.929,-4.929,-4.9221,-4.9152,-4.9926,-5.0007,-4.945,-4.8932,-4.8471,-4.8105,-4.8298,-4.8279,-4.8125,-4.8317,-4.8279,-4.8105,-4.8105,-4.8221,-4.8355,0.0,0.0,0.0,0.0,0.0,0.0,0.0,0.0,0.0,0.0,0.0,0.0,0.0,0.0,0.0,0.0,0.0,0.0,0.0,0.0,0.0,0.0,0.0,0.0,-1.8585,-1.8948,-1.9408,0.0,0.0,0.0,0.0,0.0,0.0,-2.411,0.0,-2.4543,-2.5303,-2.5303,-2.5303,-2.5303,-2.5303,-2.5303,-2.5303,-2.5173,-2.5088,-2.4986,-2.4804,0.0,0.0,0.0,0.0,0.0,0.0,0.0,-2.4861,-2.5096,-2.5243,-2.5341,0.0,0.0,0.0,0.0,0.0,0.0,0.0,0.0,-4.4708,-4.3872,-4.5397,-4.6761,-4.6364,-4.7031,-4.7519,-4.7051,-4.7715,-4.8281,-4.8281,-4.8633,-4.8906,-4.8906,-4.8535,-4.8281,-4.8281,-4.7891,-4.7461,-4.7012,-4.7793,-4.7891,-4.7012,-4.8203,-4.8516,-4.7676,-4.8457,-4.8694,-4.8288,-4.8634,-4.8754,-4.8696,-4.8619,-4.833,-4.785,-4.8762,-4.8659,-4.7719,-4.7585,-4.7298,-4.6932,-4.7355,-4.7278,-4.6932,-4.7355,-4.7278,-4.6894,-4.6894,-4.7163,-4.7471,0.0,0.0,0.0,0.0,0.0,0.0,0.0,0.0,0.0,0.0,0.0,0.0,0.0,0.0,0.0,0.0,0.0,0.0,0.0,0.0,0.0,0.0,-1.8735,-1.903,-1.9069,-1.9499,-2.0163,0.0,0.0,0.0,0.0,0.0,0.0,-2.4322,0.0,-2.4678,-2.5322,-2.5303,-2.5303,-2.5322,-2.5303,-2.5303,-2.5303,-2.5303,-2.5203,-2.5046,-2.5022,-2.4943,-2.4828,-2.4818,0.0,0.0,0.0,0.0,-2.4869,-2.5018,-2.5182,-2.5322,0.0,0.0,0.0,0.0,0.0,0.0,0.0,0.0,-4.3463,-4.3466,-4.4863,-4.6074,-4.6074,-4.6191,-4.6308,-4.6308,-4.6914,-4.7383,-4.7383,-4.8008,-4.8457,-4.8457,-4.7812,-4.7383,-4.7383,-4.6719,-4.6308,-4.6308,-4.6973,-4.7051,-4.6348,-4.7649,-4.7754,-4.6306,-4.7666,-4.8061,-4.7314,-4.7923,-4.8234,-4.8214,-4.8062,-4.76,-4.6852,-4.7526,-4.7468,-4.6833,-4.6719,-4.6278,-4.5663,-4.6374,-4.624,-4.5663,-4.6394,-4.622,-4.5586,-4.5586,-4.6067,-4.6567,0.0,0.0,0.0,0.0,0.0,0.0,0.0,0.0,0.0,0.0,0.0,0.0,0.0,0.0,0.0,0.0,0.0,0.0,-1.81,0.0,0.0,-2.0044,-2.0394,-2.071,-2.0927,-2.1279,-2.1668,0.0,0.0,0.0,0.0,0.0,0.0,-2.5139,0.0,0.0,-2.539,-2.5322,-2.5322,-2.539,-2.5322,-2.5303,-2.5303,-2.5303,-2.5274,-2.5243,-2.5057,-2.4998,-2.4949,-2.4842,-2.479,0.0,0.0,0.0,-2.501,-2.5203,-2.5312,-2.539,0.0,0.0,0.0,0.0,0.0,0.0,0.0,0.0,-4.2492,0.0,-4.3965,-4.5176,-4.5176,-4.5781,-4.6308,-4.6308,-4.6406,-4.6465,-4.6465,-4.6562,-4.6641,-4.6641,-4.6543,-4.6465,-4.6465,-4.6367,-4.6308,-4.6308,-4.6406,-4.6426,-4.6308,-4.6416,-4.6379,-4.6128,-4.6348,-4.6364,-4.6124,-4.6336,-4.6371,-4.618,-4.6046,-4.593,-4.5796,-4.5911,-4.5911,-4.5796,-4.5778,-4.5701,-4.5605,-4.572,-4.5701,-4.5605,-4.572,-4.5701,-4.5586,-4.5586,-4.5663,-4.5759,0.0,0.0,0.0,0.0,0.0,0.0,0.0,0.0,0.0,0.0,0.0,0.0,0.0,0.0,0.0,-1.7176,-1.7743,-1.842,-1.9235,-1.9906,-2.0336,-2.0454,-2.0909,-2.1251,-2.1348,-2.1643,0.0,0.0,0.0,0.0,0.0,-2.4774,-2.4986,0.0,0.0,0.0,0.0,0.0,0.0,-2.5341,-2.5303,-2.5303,0.0,-2.5303,-2.5303,-2.5303,-2.5203,-2.5163,-2.5152,-2.5103,-2.5012,-2.4911,-2.4986,0.0,0.0,0.0,-2.5252,0.0,0.0,0.0,0.0,0.0,0.0,0.0,0.0,0.0,-3.9609,-4.0156,-4.166,-4.3164,-4.4101,-4.457,-4.5,-4.5488,-4.5566,-4.5742,-4.623,-4.6308,-4.6308,-4.6308,-4.6308,-4.6308,-4.6308,-4.6308,-4.6308,-4.6308,-4.6308,-4.627,-4.6183,-4.6139,-4.6065,-4.5988,-4.5993,-4.5956,-4.5899,-4.5926,-4.5853,-4.5699,-4.5624,-4.5586,-4.5586,-4.5586,-4.5586,-4.5586,-4.5586,-4.5586,-4.5586,-4.5586,-4.5586,-4.5586,-4.5586,-4.5586,-4.5586,-4.5586,-4.5586,-4.5586,0.0,0.0,0.0,0.0,0.0,0.0,0.0,0.0,0.0,0.0,0.0,0.0,0.0,0.0,0.0,0.0,-1.9044,-1.9777,-2.0365,-2.0897,-2.1197,-2.1197,-2.1682,-2.1982,-2.1982,0.0,0.0,0.0,0.0,0.0,-2.5303,-2.5303,-2.5341,0.0,-2.5553,0.0,0.0,0.0,0.0,0.0,0.0,0.0,0.0,0.0,-2.5437,-2.5591,-2.538,-2.5601,-2.5928,-2.5466,-2.5521,-2.5704,-2.526,-2.5313,0.0,0.0,0.0,0.0,0.0,0.0,0.0,0.0,0.0,0.0,0.0,0.0,-3.6772,-3.7656,-3.9277,-4.0918,-4.2168,-4.3105,-4.3906,-4.4551,-4.4863,-4.5234,-4.5879,-4.5976,-4.6055,-4.6269,-4.5918,-4.5723,-4.5957,-4.5748,-4.5609,-4.5609,-4.5782,-4.576,-4.5428,-4.5806,-4.5873,-4.5545,-4.5757,-4.5866,-4.582,-4.5538,-4.5259,-4.497,-4.5163,-4.5163,-4.497,-4.5182,-4.5163,-4.497,-4.5182,-4.5393,-4.5566,-4.5355,-4.5393,-4.5586,-4.5586,-4.5586,-4.5586,-4.5586,-4.5586,-4.5586,0.0,0.0,0.0,0.0,0.0,0.0,0.0,0.0,0.0,0.0,0.0,0.0,-1.8221,-1.8699,-1.907,-1.9388,-1.9475,-2.0066,-2.1433,-2.2487,-2.3059,-2.3059,-2.3396,0.0,-2.3566,-2.4082,0.0,0.0,0.0,0.0,-2.5303,-2.5303,-2.5341,-2.5428,-2.6197,-2.612,-2.5447,0.0,0.0,0.0,0.0,0.0,0.0,0.0,-2.5813,-2.6428,-2.5591,-2.64,-2.7603,-2.5947,-2.6535,-2.7653,-2.5996,-2.6053,-2.6554,0.0,0.0,0.0,0.0,0.0,0.0,0.0,0.0,0.0,0.0,0.0,-3.4842,-3.5603,-3.7344,-3.8769,-3.8848,-4.1504,-4.3711,-4.3769,-4.4453,-4.5019,-4.5058,-4.5078,-4.5371,-4.6191,-4.4844,-4.416,-4.498,-4.4267,-4.3743,-4.3743,-4.4402,-4.4428,-4.3583,-4.4979,-4.543,-4.4583,-4.5372,-4.5738,-4.562,-4.4795,-4.3989,-4.3239,-4.3989,-4.397,-4.3258,-4.4028,-4.3951,-4.3278,-4.4047,-4.4836,-4.5528,-4.4701,-4.4855,-4.5586,-4.5586,-4.5586,-4.5586,-4.5586,-4.5586,-4.5586,0.0,0.0,0.0,0.0,0.0,0.0,0.0,0.0,0.0,0.0,0.0,0.0,0.0,-1.9882,-2.0518,-2.0824,-2.1487,-2.2084,-2.2599,-2.3186,-2.3522,-2.3522,-2.3837,-2.4077,-2.4211,-2.4391,0.0,0.0,0.0,-2.5099,-2.5303,-2.5303,-2.5341,-2.5409,-2.5659,-2.564,-2.5428,-2.5659,0.0,0.0,0.0,0.0,0.0,0.0,-2.6361,-2.6698,-2.69,-2.743,-2.7961,-2.7295,-2.7533,-2.7984,-2.7375,-2.7036,-2.6696,-2.5814,-2.5535,-2.5485,0.0,0.0,0.0,0.0,0.0,0.0,-2.9429,-3.0559,-3.1622,-3.3057,-3.4824,-3.6269,-3.6836,-3.9297,-4.1445,-4.1992,-4.2793,-4.3535,-4.4082,-4.418,-4.4277,-4.459,-4.4082,-4.3828,-4.4141,-4.3811,-4.3605,-4.3605,-4.3099,-4.2919,-4.3247,-4.3167,-4.3253,-4.3585,-4.3893,-4.4028,-4.3989,-4.3682,-4.3393,-4.3104,-4.3393,-4.3643,-4.3855,-4.3624,-4.3643,-4.3835,-4.3047,-4.3489,-4.4739,-4.4432,-4.4797,-4.5586,-4.5586,-4.5586,-4.5568,-4.5362,-4.5419,-4.5568,0.0,0.0,0.0,0.0,0.0,0.0,0.0,0.0,0.0,0.0,0.0,0.0,0.0,0.0,-2.1935,-2.2122,-2.2962,-2.3472,-2.3472,-2.3848,-2.408,-2.408,-2.4284,-2.4461,-2.4591,-2.4651,0.0,0.0,0.0,0.0,0.0,-2.5322,-2.537,-2.5409,-2.5322,-2.5341,0.0,0.0,0.0,-2.6246,0.0,0.0,-2.6698,-2.665,-2.7006,-2.7585,-2.7855,-2.8396,-2.8876,-2.8238,-2.848,-2.8928,-2.832,-2.7785,-2.7257,-2.6654,-2.625,-2.6004,-2.5984,0.0,0.0,0.0,0.0,-2.6636,-2.7798,-2.8533,-2.9308,-3.0455,-3.2371,-3.4043,-3.4629,-3.6589,-3.8606,-4.0097,-4.1016,-4.1758,-4.2344,-4.2676,-4.2969,-4.3223,-4.2985,-4.2905,-4.3197,-4.2862,-4.263,-4.263,-4.2065,-4.1895,-4.2274,-4.216,-4.241,-4.3085,-4.3104,-4.2816,-4.222,-4.222,-4.2085,-4.1835,-4.2104,-4.2508,-4.3008,-4.2777,-4.2797,-4.2951,-4.1854,-4.2335,-4.3874,-4.3585,-4.4124,-4.5143,-4.5035,-4.517,-4.54,-4.5052,-4.5055,-4.5243,0.0,0.0,0.0,0.0,0.0,0.0,0.0,0.0,0.0,-2.0941,0.0,0.0,0.0,0.0,0.0,-2.3212,-2.371,-2.4007,-2.4007,-2.45,-2.4804,-2.4804,-2.4804,-2.4804,-2.4804,-2.4924,0.0,0.0,0.0,0.0,0.0,0.0,-2.539,-2.5409,-2.5322,-2.539,-2.5601,0.0,-2.6245,-2.5563,0.0,-2.5967,-2.6764,-2.6775,-2.7787,-2.9117,-2.8424,-2.9261,-3.0441,-2.8747,-2.9401,-3.0586,-2.8808,-2.8281,-2.832,-2.8203,-2.7617,-2.6984,0.0,0.0,0.0,0.0,0.0,0.0,-2.5263,-2.6718,-2.8057,-2.7899,-3.0122,-3.209,-3.2129,-3.344,-3.5378,-3.7981,-3.9199,-3.9804,-3.9804,-4.0566,-4.1406,-4.2187,-4.147,-4.1247,-4.211,-4.1232,-4.0639,-4.0639,-4.1258,-4.1296,-4.0469,-4.2047,-4.2989,-4.2951,-4.297,-4.2162,-4.0431,-4.0431,-4.0027,-3.9258,-4.0046,-4.045,-4.0527,-4.1354,-4.1296,-4.0527,-4.0508,-4.1434,-4.2934,-4.2126,-4.2777,-4.4241,-4.3903,-4.4315,-4.5014,-4.4669,-4.4561,-4.4599,0.0,0.0,0.0,0.0,0.0,0.0,0.0,0.0,0.0,0.0,0.0,0.0,-2.287,-2.3282,-2.3566,-2.3566,-2.4042,-2.4353,-2.4353,-2.4636,-2.4804,-2.4804,-2.4804,-2.4842,-2.4937,-2.4986,0.0,0.0,0.0,0.0,0.0,0.0,0.0,0.0,-2.5341,-2.5726,-2.6408,-2.5956,0.0,-2.7245,-2.6609,-2.7215,-2.8506,-2.8516,-2.8801,-2.9264,-2.9745,-3.0231,-3.0548,-3.0064,-3.0288,-3.0571,-2.9539,-2.9238,-2.8984,-2.7715,-2.7168,-2.6855,-2.621,0.0,0.0,0.0,0.0,0.0,-2.5448,-2.5855,-2.6404,-2.6986,-2.8248,-2.9448,-3.0121,-3.1557,-3.2897,-3.363,-3.6028,-3.7805,-3.7805,-3.8546,-3.9175,-3.9409,-3.9206,-3.9148,-3.9379,-3.908,-3.8888,-3.8888,-3.823,-3.8063,-3.8661,-3.9738,-4.0065,-3.9431,-4.0027,-3.9815,-3.87,-3.8681,-3.8584,-3.8354,-3.8584,-3.9335,-4.0489,-4.0142,-4.0389,-4.1055,-4.0462,-4.0348,-4.0625,-4.1451,-4.245,-4.3395,-4.3063,-4.3418,-4.4097,-4.3525,-4.3866,-4.4553,0.0,0.0,0.0,0.0,0.0,0.0,0.0,0.0,0.0,0.0,0.0,0.0,-2.3588,-2.4085,-2.4304,-2.4077,-2.4705,-2.5011,-2.4727,-2.5232,-2.5381,-2.5019,-2.5361,-2.5411,-2.513,-2.5141,0.0,0.0,0.0,0.0,0.0,0.0,0.0,0.0,0.0,0.0,0.0,0.0,0.0,0.0,-2.7108,-2.7779,-2.9333,-2.9327,-2.9535,-2.991,-3.0449,-3.064,-3.0623,-3.0582,-3.0604,-3.0574,-3.0143,-3.0072,-2.9922,-2.8867,-2.8066,-2.7422,-2.6914,-2.625,0.0,-2.5703,0.0,0.0,-2.5583,-2.5564,-2.5684,-2.6229,-2.7009,-2.7769,-2.8309,-2.9726,-3.0817,-3.0793,-3.3021,-3.4943,-3.5368,-3.6473,-3.7259,-3.7259,-3.7531,-3.7857,-3.8224,-3.8176,-3.8118,-3.8118,-3.7421,-3.729,-3.7969,-3.8469,-3.8527,-3.8027,-3.8488,-3.8334,-3.7469,-3.7469,-3.7469,-3.7469,-3.7469,-3.8161,-3.945,-3.9202,-3.9331,-3.9776,-3.9848,-3.9399,-3.8701,-4.0252,-4.1399,-4.2144,-4.1772,-4.2148,-4.2869,-4.2656,-4.3032,-4.3658,0.0,0.0,0.0,0.0,0.0,0.0,0.0,0.0,0.0,0.0,-2.3566,-2.3894,-2.4299,-2.498,-2.5225,-2.4794,-2.5592,-2.5887,-2.5323,-2.62,-2.6409,-2.561,-2.6332,-2.639,-2.561,-2.5591,0.0,0.0,0.0,0.0,0.0,0.0,0.0,0.0,0.0,0.0,0.0,0.0,0.0,-2.8114,-2.728,-2.8018,-2.9624,-2.962,-3.0064,-3.0675,-3.0691,-3.0679,-3.0641,-3.0544,-3.053,-3.0581,-3.0617,-3.0723,-3.0835,-3.0644,-2.9569,0.0,0.0,0.0,0.0,-2.5723,-2.5703,0.0,-2.5684,-2.5639,-2.5609,-2.5684,-2.6252,-2.6759,-2.6761,-2.7994,-2.9003,-2.893,-3.0333,-3.177,-3.2748,-3.4385,-3.5445,-3.5366,-3.6001,-3.6766,-3.7541,-3.7502,-3.743,-3.743,-3.743,-3.7488,-3.7565,-3.7647,-3.7632,-3.7536,-3.7598,-3.7256,-3.6492,-3.6392,-3.6392,-3.6536,-3.6536,-3.6978,-3.7828,-3.8303,-3.8137,-3.7566,-3.8761,-3.8441,-3.7216,-3.8733,-3.9854,-4.058,-4.0296,-4.0701,-4.1491,-4.1899,-4.2084,-4.2268,-2.1984,0.0,0.0,0.0,0.0,0.0,0.0,0.0,0.0,0.0,-2.4074,-2.437,-2.5089,-2.5311,-2.5667,-2.6376,-2.6754,-2.6995,-2.709,-2.7428,-2.7563,-2.739,-2.7563,-2.7563,-2.739,-2.739,0.0,0.0,0.0,0.0,0.0,0.0,0.0,0.0,0.0,0.0,0.0,0.0,0.0,-2.8025,-2.7894,-2.8878,-3.0397,-3.0462,-3.05,-3.0548,-3.0659,-3.0602,-3.0467,-3.0487,-3.0502,-3.055,-3.0648,-3.0716,-3.0629,-3.0007,-2.9557,-2.8966,-2.7626,-2.6973,-2.6504,-2.5859,-2.5703,0.0,-2.5625,-2.5602,-2.5605,-2.5622,-2.5699,-2.5792,-2.5839,-2.6637,-2.7265,-2.7201,-2.8585,-2.9976,-3.0833,-3.2403,-3.3231,-3.2583,-3.3199,-3.375,-3.391,-3.391,-3.3891,-3.3891,-3.3891,-3.4199,-3.4891,-3.54,-3.5343,-3.4636,-3.5094,-3.5249,-3.5097,-3.4396,-3.4504,-3.542,-3.542,-3.584,-3.6642,-3.6742,-3.6823,-3.6897,-3.7143,-3.6987,-3.6555,-3.7507,-3.8287,-3.892,-3.9238,-3.9844,-4.0551,-4.0406,-4.0781,-4.1368,-2.2583,0.0,0.0,0.0,0.0,0.0,0.0,0.0,0.0,0.0,-2.5144,-2.5548,-2.5952,-2.6355,-2.6682,-2.6879,-2.7448,-2.7736,-2.7559,-2.8157,-2.8313,-2.7909,-2.8275,-2.8313,-2.7909,-2.789,0.0,0.0,0.0,0.0,0.0,0.0,0.0,0.0,0.0,0.0,0.0,0.0,-2.7727,-2.8578,-2.8227,-2.8882,-3.0111,-3.0608,-3.0728,-3.0598,-3.0637,-3.0544,-3.0398,-3.0448,-3.0467,-3.0513,-3.0547,-3.0598,-3.0571,-3.0171,-2.9745,-2.9124,-2.7892,-2.7237,-2.6699,-2.5859,-2.5684,0.0,0.0,-2.5508,-2.552,-2.593,-2.5554,-2.5303,-2.5847,-2.6305,-2.6604,-2.6638,-2.7634,-2.8386,-2.8368,-2.9882,-3.0852,-3.0448,-3.0756,-3.1179,-3.1621,-3.2045,-3.2468,-3.2872,-3.2891,-3.3083,-3.3526,-3.3834,-3.3765,-3.3214,-3.3496,-3.3771,-3.4054,-3.362,-3.3904,-3.4908,-3.4908,-3.5116,-3.5515,-3.5775,-3.5732,-3.5485,-3.62,-3.5965,-3.5183,-3.6817,-3.7433,-3.7459,-3.8498,-3.9153,-3.9531,-3.981,-4.0157,-4.0561,-2.3189,0.0,0.0,0.0,0.0,0.0,0.0,0.0,0.0,0.0,-2.6062,-2.6484,-2.6796,-2.7273,-2.7582,-2.7604,-2.8221,-2.8468,-2.816,-2.8817,-2.8943,-2.8326,-2.8921,-2.8991,-2.839,-2.8371,-2.8371,0.0,0.0,0.0,0.0,0.0,0.0,0.0,0.0,0.0,0.0,0.0,0.0,-2.8916,-2.848,-2.8868,-2.9793,-3.0552,-3.0775,-3.0641,-3.0583,-3.0487,-3.0398,-3.0398,-3.0448,-3.0487,-3.0448,-3.0501,-3.0579,-3.0543,-3.0056,-2.9365,-2.855,-2.7867,-2.7118,-2.6093,-2.5898,-2.5886,0.0,0.0,0.0,-2.5967,-2.5316,-2.4922,-2.5793,-2.6,-2.6091,-2.6219,-2.6702,-2.6824,-2.6104,-2.7318,-2.8341,-2.8483,-2.8648,-2.9078,-2.996,-3.0714,-3.1488,-3.2352,-3.2256,-3.2314,-3.2641,-3.2576,-3.2441,-3.2289,-3.2188,-3.2428,-3.3009,-3.2859,-3.3236,-3.4143,-3.4292,-3.4367,-3.4386,-3.4988,-3.4846,-3.4173,-3.5339,-3.5055,-3.3972,-3.6303,-3.689,-3.645,-3.8065,-3.8707,-3.8781,-3.9423,-3.9662,-3.9753,-2.3628,-2.3917,0.0,0.0,0.0,0.0,0.0,0.0,0.0,0.0,-2.5915,-2.6082,-2.7512,-2.7108,-2.7656,-2.9986,-2.9638,-2.9644,-3.0468,-2.9973,-2.9674,-2.9761,-2.9851,-2.9958,-3.011,-3.0121,-3.0121,-3.0121,0.0,0.0,0.0,0.0,0.0,0.0,-2.8121,0.0,0.0,0.0,-2.7332,-2.8112,-2.8799,-2.9636,-3.0486,-3.0587,-3.0595,-3.0506,-3.0448,-3.0398,-3.0398,-3.0398,-3.0398,-3.0417,-3.0544,-3.0548,-3.0532,-3.0637,-3.0521,-3.0194,-2.9387,-2.9107,-2.8656,-2.7139,-2.6797,-2.6628,-2.5796,0.0,-2.4923,-2.4987,0.0,-2.4213,-2.4635,0.0,0.0,-2.4982,-2.5066,-2.5081,-2.4969,-2.5163,-2.5556,-2.6275,-2.7028,-2.7805,-2.8638,-2.8965,-2.9557,-3.0609,-2.9967,-3.0198,-3.1756,-3.1397,-3.1126,-3.109,-3.0695,-3.0854,-3.1617,-3.0917,-3.1098,-3.2144,-3.2851,-3.3183,-3.322,-3.3999,-3.4161,-3.3842,-3.4017,-3.3972,-3.3935,-3.5697,-3.6376,-3.645,-3.8065,-3.8707,-3.8707,-3.8799,-3.8836,-3.8854,-2.3937,-2.4094,0.0,0.0,0.0,0.0,0.0,0.0,0.0,0.0,-2.7824,-2.8429,-2.9108,-2.931,-2.9834,-3.0969,-3.0479,-3.0292,-3.0692,-3.0076,-3.0023,-3.0723,-3.028,-3.0366,-3.1129,-3.066,-3.0398,-3.0398,-3.0398,0.0,0.0,0.0,0.0,0.0,-2.8544,0.0,-2.9121,0.0,-2.9775,-3.014,-3.0506,-3.0893,-3.1197,-3.0752,-3.0548,-3.0487,-3.0417,-3.0398,-3.0398,-3.0398,-3.0737,-3.116,-3.1218,-3.1218,-3.1218,-3.1256,-3.091,-3.0333,-2.9475,-2.9648,-2.955,-2.7388,-2.7595,-2.7936,-2.6354,-2.6005,-2.6069,-2.6336,0.0,0.0,0.0,0.0,0.0,0.0,-2.5563,-2.5283,-2.4714,-2.4528,-2.4657,-2.5246,-2.563,-2.6223,-2.7139,-2.7201,-2.7618,-2.8702,-2.8758,-2.9126,-2.9979,-3.0236,-3.0373,-3.0373,-3.0204,-3.0414,-3.1094,-3.0777,-3.1241,-3.2482,-3.2352,-3.2706,-3.3462,-3.3333,-3.346,-3.3807,-3.3807,-3.3807,-3.388,-3.5073,-3.5569,-3.5716,-3.7349,-3.8285,-3.8707,-3.8707,-3.8707,-3.8707,-2.4526,0.0,0.0,0.0,0.0,0.0,0.0,0.0,-2.8209,-2.8429,-2.9274,-3.0044,-3.0485,-3.1035,-3.1568,-3.2008,-3.1486,-3.1162,-3.1162,-3.0597,-3.0449,-3.0836,-3.0765,-3.1016,-3.1698,-3.1295,-3.0987,-3.0756,0.0,0.0,0.0,0.0,0.0,0.0,0.0,-2.9217,-2.9525,0.0,-3.1121,-3.1352,-3.1352,-3.1352,-3.1295,-3.0756,-3.0506,-3.0467,-3.0417,-3.0398,-3.0398,-3.0398,-3.0833,-3.1391,-3.1648,-3.1705,-3.1756,-3.1994,-3.1628,-3.0968,-3.0121,-3.0394,-3.0367,-2.8035,-2.8348,-2.8772,-2.7056,-2.6693,-2.683,-2.7221,-2.6617,0.0,0.0,0.0,-2.6902,-2.6276,0.0,-2.5587,-2.4622,-2.4339,-2.4303,-2.4591,-2.4829,-2.5186,-2.5749,-2.588,-2.6257,-2.7086,-2.7559,-2.8074,-2.8694,-2.9269,-2.9677,-2.9905,-2.9924,-3.013,-3.0582,-3.0509,-3.0993,-3.2013,-3.1778,-3.2212,-3.3128,-3.2999,-3.3256,-3.3807,-3.3807,-3.3807,-3.388,-3.4945,-3.5367,-3.5532,-3.7184,-3.8193,-3.8707,-3.8707,-3.8707,-3.8707,-2.5455,-2.5135,0.0,0.0,0.0,0.0,0.0,-2.8448,-2.9232,-3.0026,-2.9494,-2.9641,-3.1182,-3.1366,-3.2027,-3.3587,-3.2999,-3.254,-3.254,-3.2034,-3.1141,-2.9827,-3.1521,-3.2254,-3.1718,-3.2449,-3.2449,-3.166,0.0,0.0,0.0,0.0,0.0,0.0,0.0,-2.9563,-3.0314,-2.9525,-2.9679,-3.0436,-3.0436,-3.0436,-3.0436,-3.0417,-3.0398,-3.0398,-3.0398,-3.0398,-3.0398,-3.0398,-3.0417,-3.0609,-3.1514,-3.1757,-3.1872,-3.2712,-3.2897,-3.2641,-3.1833,-3.169,-3.1349,-2.956,-2.9065,-2.8752,-2.7778,-2.7004,-2.6566,-2.6785,-2.6445,-2.6276,-2.6829,-2.6934,-2.6666,-2.5937,-2.5772,0.0,0.0,-2.4339,-2.419,-2.4209,-2.4908,-2.5152,-2.4607,-2.5259,-2.5792,-2.6031,-2.6069,-2.6801,-2.8423,-2.8537,-2.8917,-2.9695,-2.9713,-2.9732,-2.9734,-2.9551,-2.9468,-2.9522,-3.0817,-3.1446,-3.1513,-3.3054,-3.377,-3.3807,-3.3807,-3.3807,-3.3935,-3.5569,-3.6266,-3.6413,-3.8028,-3.8689,-3.8707,-3.8707,-3.8707,-3.8707,0.0,0.0,0.0,0.0,0.0,0.0,-2.8484,-2.9292,-3.0283,-3.1623,-3.2485,-3.3605,-3.5257,-3.5899,-3.6229,-3.6248,-3.5991,-3.5367,-3.4257,-3.3508,-3.2747,-3.1925,-3.2009,-3.2145,-3.2292,-3.2522,-3.2598,-3.2487,-3.1968,0.0,0.0,0.0,0.0,0.0,0.0,-3.0887,0.0,0.0,0.0,-3.1011,-3.1011,-3.1098,-3.1198,-3.0609,-3.0398,-3.0398,-3.0398,-3.0398,-3.0398,-3.0398,-3.0794,-3.1333,-3.1616,-3.209,-3.2449,-3.2205,-3.2167,-3.2109,-3.1834,-3.178,-3.1529,-3.034,-3.0289,-3.0098,-2.8496,-2.8185,-2.822,-2.8195,-2.8627,-2.8956,-2.8722,-2.9228,-2.9225,-2.7811,-2.6965,-2.6172,0.0,-2.4578,-2.419,-2.419,-2.4428,-2.4579,-2.4515,-2.4634,-2.4782,-2.5003,-2.5171,-2.5612,-2.634,-2.7511,-2.8383,-2.8836,-2.9698,-3.0155,-3.0155,-3.0085,-3.0449,-3.1203,-3.1104,-3.1745,-3.2981,-3.2999,-3.3311,-3.3807,-3.3807,-3.3807,-3.3844,-3.4412,-3.4963,-3.5569,-3.667,-3.7441,-3.7955,-3.8505,-3.8707,-3.8854,-2.5609,0.0,0.0,0.0,-2.7488,-2.8328,-2.9287,-3.0356,-3.1641,-3.323,-3.489,-3.6413,-3.7771,-3.8634,-3.8909,-3.8395,-3.8083,-3.7221,-3.5587,-3.5073,-3.4271,-3.3059,-3.2892,-3.2973,-3.3292,-3.3073,-3.3001,-3.3085,-3.2749,-3.2641,0.0,0.0,0.0,0.0,0.0,-3.1733,-3.1306,-3.1389,-3.1153,-3.0725,-3.0725,-3.0822,-3.0939,-3.0352,-3.0393,-3.0689,-3.0369,-3.0215,-3.0142,-3.0142,-3.0519,-3.1068,-3.1443,-3.2127,-3.2697,-3.2263,-3.2391,-3.2513,-3.193,-3.1981,-3.1994,-3.1141,-3.1339,-3.1352,-2.9788,-2.9623,-2.9732,-2.9637,-2.995,-3.0208,-3.0128,-3.0297,-3.0019,-2.8651,-2.7699,-2.6745,0.0,-2.4763,-2.4247,-2.4036,-2.4132,-2.4266,-2.4375,-2.4266,-2.4247,-2.4393,-2.4433,-2.4686,-2.5134,-2.6692,-2.7771,-2.8228,-2.9658,-3.0398,-3.0398,-3.0311,-3.0585,-3.1242,-3.1223,-3.1834,-3.2944,-3.2999,-3.3311,-3.3807,-3.3807,-3.3807,-3.3844,-3.4431,-3.4816,-3.5137,-3.6597,-3.7294,-3.7588,-3.8395,-3.8707,-3.8927,-2.6725,-2.7382,-2.7635,-2.6597,-2.7575,-2.8891,-3.0088,-3.1659,-3.3311,-3.4899,-3.6615,-3.7991,-3.8854,-3.9625,-4.0047,-4.001,-3.935,-3.8248,-3.6633,-3.6776,-3.5801,-3.3348,-3.4258,-3.4745,-3.4574,-3.4128,-3.3747,-3.3466,-3.3961,0.0,0.0,0.0,0.0,0.0,-3.2688,0.0,-3.1283,-3.1011,-3.045,-2.9696,-2.9696,-2.9715,-2.9753,-2.9715,-3.0343,-3.1161,-3.0289,-2.9861,-2.9696,-2.9696,-2.9696,-2.988,-3.0906,-3.1821,-3.2573,-3.2724,-3.3391,-3.3718,-3.2122,-3.2237,-3.2602,-3.1929,-3.2158,-3.2317,-3.1535,-3.1225,-3.1052,-3.0979,-3.0421,-3.0136,-3.0861,-3.0094,-2.9118,-2.8445,-2.7882,-2.7068,-2.5658,-2.4931,-2.4377,-2.3865,-2.4049,-2.4188,-2.417,-2.419,-2.419,-2.419,-2.3896,-2.4017,-2.4793,-2.6077,-2.7157,-2.7923,-2.9518,-3.0405,-3.0456,-3.0142,-2.995,-2.9903,-3.1194,-3.1691,-3.1568,-3.3091,-3.3807,-3.3807,-3.3807,-3.3807,-3.3917,-3.5514,-3.5716,-3.5229,-3.7643,-3.8157,-3.7643,-3.8414,-3.8726,-3.8982,-2.7147,-2.8045,-2.8877,-2.913,-2.9496,-3.0039,-3.0962,-3.2981,-3.5,-3.6633,-3.8799,-4.0708,-4.2103,-4.2451,-4.2341,-4.1735,-4.2029,-4.157,-3.9974,-3.9926,-3.8884,-3.6435,-3.6639,-3.6003,-3.4348,-3.4795,-3.483,-3.4373,-3.4063,0.0,-3.4131,0.0,0.0,0.0,0.0,0.0,-3.1291,-3.0997,-3.045,-2.9696,-2.9551,-2.9945,-3.0581,-2.9776,-3.0019,-3.0697,-3.0014,-2.9729,-2.9696,-2.9696,-2.9696,-2.9767,-3.0186,-3.0929,-3.1565,-3.1168,-3.166,-3.2256,-3.1814,-3.1391,-3.1295,-3.2333,-3.2105,-3.1745,-3.2165,-3.2079,-3.1902,-3.1918,-3.1787,-3.1525,-3.1072,-3.045,-2.9678,-2.8815,-2.7682,-2.6788,-2.6347,-2.5697,-2.5285,-2.5396,-2.4735,-2.4167,-2.385,-2.4036,-2.419,-2.419,-2.3896,-2.3783,-2.3999,-2.5638,-2.6729,-2.7101,-2.8917,-3.0357,-3.1371,-3.0312,-3.0673,-3.243,-3.1998,-3.2284,-3.3201,-3.3605,-3.3807,-3.3807,-3.3807,-3.3807,-3.3825,-3.4266,-3.4669,-3.5119,-3.6413,-3.7514,-3.8414,-3.8615,-3.9074,-3.9643,-2.7889,-2.9236,-3.0574,-3.1137,-3.2155,-3.2889,-3.2963,-3.4137,-3.5724,-3.7753,-3.9827,-4.1442,-4.2359,-4.3075,-4.3314,-4.2855,-4.291,-4.2433,-4.1185,-4.0781,-3.9808,-3.8102,-3.7349,-3.6205,-3.4585,-3.4463,-3.4204,-3.3784,-3.3677,0.0,-3.4467,0.0,0.0,0.0,0.0,-3.2741,-3.1433,-3.0646,-3.0283,-3.0113,-2.9484,-2.9795,0.0,-2.9585,-2.9502,-2.986,-2.9524,-2.9397,-2.9397,-2.9397,-2.9475,-2.9607,-2.9796,-3.0529,-3.1183,-3.0592,-3.1025,-3.1621,-3.1237,-3.1064,-3.1275,-3.2583,-3.273,-3.267,-3.3039,-3.302,-3.2826,-3.266,-3.2334,-3.2011,-3.176,-3.0741,-2.9618,-2.8562,-2.7564,-2.6834,-2.667,-2.5895,-2.5243,-2.5098,-2.4545,-2.3929,-2.3335,-2.3692,-2.4036,-2.419,-2.3896,-2.3692,-2.3692,-2.5484,-2.6477,-2.6405,-2.839,-2.9792,-3.0551,-2.9664,-3.0203,-3.2177,-3.1749,-3.2164,-3.3293,-3.3642,-3.3807,-3.3807,-3.3807,-3.3807,-3.3825,-3.4192,-3.4394,-3.4614,-3.5826,-3.7074,-3.8212,-3.8579,-3.9001,-3.9478,-2.9134,-3.0999,-3.2674,-3.2745,-3.4816,-3.6266,-3.5724,-3.5724,-3.6549,-3.8744,-4.0432,-4.1423,-4.1423,-4.2653,-4.3497,-4.3497,-4.2855,-4.2158,-4.1479,-4.0653,-3.9863,-3.9056,-3.7477,-3.6156,-3.5174,-3.3815,-3.2982,-3.2761,-3.3141,0.0,0.0,0.0,0.0,0.0,0.0,0.0,0.0,-3.0296,-3.0152,-3.0785,-2.9734,-2.9732,-3.0283,-2.9586,-2.9255,-2.914,-2.914,-2.9085,-2.8994,-2.8994,-2.9178,-2.9434,-2.9607,-3.0324,-3.0986,-3.0497,-3.0873,-3.1328,-3.059,-3.0948,-3.1718,-3.2545,-3.3378,-3.3958,-3.3837,-3.3834,-3.3733,-3.3243,-3.2493,-3.2048,-3.2569,-3.1089,-2.9404,-2.8144,-2.7611,-2.7245,-2.6924,-2.6027,-2.5111,-2.4423,-2.4313,0.0,-2.3224,-2.3454,-2.3774,-2.4113,-2.3858,-2.3768,-2.3919,-2.5515,-2.6322,-2.6136,-2.7985,-2.9145,-2.9412,-2.8854,-2.9406,-3.1067,-3.1133,-3.1719,-3.2797,-3.3476,-3.3807,-3.3807,-3.3807,-3.3807,-3.3844,-3.4559,-3.4578,-3.4284,-3.5844,-3.6945,-3.7734,-3.8432,-3.8781,-3.9056,-3.1783,-3.3862,-3.5145,-3.3825,-3.5624,-3.7679,-3.8854,-3.9625,-4.0212,-4.0634,-4.2084,-4.3075,-4.3075,-4.3314,-4.3497,-4.3497,-4.3369,-4.3222,-4.3075,-4.2323,-4.1515,-4.0726,-3.9148,-3.7588,-3.6101,-3.4485,-3.364,-3.3587,-3.325,-3.3348,0.0,0.0,0.0,0.0,0.0,0.0,-3.2354,-3.0765,-3.0564,-3.129,-3.1047,-3.1054,-3.1164,-3.1017,-3.0577,-2.9989,-2.9989,-2.9567,-2.8994,-2.8994,-2.9178,-2.9412,-2.9434,-2.9701,-2.9986,-3.0056,-3.019,-3.0314,-3.0381,-3.0513,-3.0833,-3.1698,-3.2368,-3.2962,-3.3636,-3.396,-3.4091,-3.3995,-3.3185,-3.2564,-3.2873,-3.1874,-3.038,-2.8466,-2.8216,-2.8145,-2.7745,-2.7221,-2.6871,-2.6727,-2.6196,-2.5736,-2.5512,-2.4163,-2.3414,-2.3774,-2.3735,-2.4106,-2.5065,-2.5732,-2.6454,-2.7281,-2.8088,-2.9355,-3.115,-2.9368,-3.0149,-3.3543,-3.1777,-3.1874,-3.3587,-3.3733,-3.3807,-3.3807,-3.3807,-3.3807,-3.3807,-3.3954,-3.4743,-3.5954,-3.6909,-3.7771,-3.8505,-3.8652,-3.9129,-3.9735,-3.5095,-3.6163,-3.6798,-3.6413,-3.8028,-3.9625,-4.0396,-4.1919,-4.2525,-4.1277,-4.1772,-4.2268,-4.2268,-4.3002,-4.3497,-4.3497,-4.3497,-4.3497,-4.3497,-4.2745,-4.1937,-4.1148,-3.957,-3.7753,-3.5679,-3.4027,-3.3183,-3.3183,-3.2515,-3.2711,0.0,0.0,0.0,0.0,0.0,-3.2919,0.0,-3.1554,-3.1611,-3.2274,-3.1638,-3.1641,-3.1971,-3.1549,-3.1146,-3.076,-3.0356,-2.9953,-2.9567,-2.9122,-2.9455,-2.9932,-2.9543,-2.9832,-3.0261,-2.9945,-2.9845,-2.9893,-3.0122,-3.0196,-3.0502,-3.1785,-3.2325,-3.2754,-3.379,-3.4124,-3.4171,-3.4018,-3.3697,-3.3369,-3.3243,-3.2433,-3.1384,-3.0203,-2.9413,-2.8794,-2.845,-2.7848,-2.723,-2.6779,-2.6269,-2.5877,-2.5617,-2.4731,-2.4378,-2.4874,-2.4897,-2.5127,-2.5677,-2.6284,-2.679,-2.7108,-2.8183,-2.9322,-3.0564,-2.9782,-3.0713,-3.3358,-3.2119,-3.2338,-3.3807,-3.3807,-3.3807,-3.3807,-3.3807,-3.3807,-3.3825,-3.4266,-3.4908,-3.5752,-3.7,-3.7734,-3.812,-3.856,-3.9203,-3.9955,-3.7936,-3.8389,-3.8734,-3.9209,-4.0588,-4.1625,-4.1625,-4.3222,-4.3773,-4.1864,-4.1625,-4.1625,-4.1625,-4.2745,-4.3497,-4.3497,-4.3497,-4.3497,-4.3497,-4.2598,-4.1772,-4.1148,-3.9386,-3.7459,-3.5302,-3.3697,-3.2871,-3.2871,-3.2045,-3.2394,-3.3807,0.0,0.0,0.0,-3.2745,-3.2616,-3.2755,-3.2397,-3.2683,-3.3252,-3.229,-3.2284,-3.2797,-3.2155,-3.1696,-3.1311,-3.0687,-3.0356,-3.0099,-2.9475,-2.9732,-3.0248,-2.972,-3.0034,-3.0471,-2.9813,-2.9644,-2.9716,-3.0086,-3.0072,-3.0338,-3.1996,-3.2381,-3.2637,-3.3713,-3.4017,-3.4068,-3.3842,-3.4068,-3.4139,-3.3582,-3.3072,-3.241,-3.1451,-3.0289,-2.9247,-2.8517,-2.7871,-2.7198,-2.6519,-2.6241,-2.5967,-2.5616,-2.549,-2.5729,-2.6348,-2.6092,-2.6039,-2.638,-2.6657,-2.6798,-2.6719,-2.7858,-2.8809,-2.9494,-2.9886,-3.0995,-3.2852,-3.2346,-3.2702,-3.3807,-3.3807,-3.3807,-3.3807,-3.3807,-3.3899,-3.4119,-3.4945,-3.5385,-3.5697,-3.7165,-3.7753,-3.7826,-3.8469,-3.9203,-3.9992,-3.9164,-4.0817,-4.1991,-4.1286,-4.2322,-4.3277,-4.3277,-4.3461,-4.3516,-4.3296,-4.3277,-4.3277,-4.3277,-4.3406,-4.3497,-4.3497,-4.3497,-4.3497,-4.3497,-4.2066,-4.1185,-4.1111,-3.8854,-3.7147,-3.6193,-3.4541,-3.3697,-3.3697,-3.2889,-3.2944,-3.3807,-3.3807,-3.378,-3.3707,-3.2872,-3.2934,-3.3662,-3.3259,-3.3335,-3.3716,-3.3623,-3.3623,-3.3678,-3.3605,-3.2669,-3.1384,-3.1311,-3.0815,-3.0191,-3.0118,-2.9824,-2.9574,-2.9996,-2.9872,-2.9526,-2.9433,-2.9414,-2.9623,-3.0565,-3.0278,-3.0127,-3.1732,-3.2009,-3.2083,-3.2906,-3.3487,-3.3815,-3.3807,-3.4255,-3.447,-3.3875,-3.415,-3.3477,-3.0479,-3.0116,-2.9427,-2.7212,-2.7132,-2.7282,-2.7199,-2.7174,-2.7152,-2.7078,-2.6749,-2.6877,-2.7667,-2.6375,-2.6175,-2.7555,-2.6368,-2.602,-2.6774,-2.658,-2.7356,-2.9233,-2.9218,-3.0725,-3.3678,-3.2601,-3.2702,-3.3807,-3.3807,-3.3807,-3.3807,-3.3807,-3.4211,-3.4935,-3.5826,-3.6597,-3.7331,-3.823,-3.8597,-3.8597,-3.867,-3.9203,-3.99,-4.2141,-4.2417,-4.293,-4.3924,-4.4163,-4.4253,-4.4378,-4.473,-4.4638,-4.3777,-4.3578,-4.3497,-4.3497,-4.3497,-4.3497,-4.3497,-4.3497,-4.3497,-4.3497,-4.2892,-4.2121,-4.1148,-3.9717,-3.8102,-3.634,-3.4651,-3.3807,-3.3807,-3.2999,-3.3018,-3.3807,-3.3807,-3.3807,-3.3788,-3.3447,-3.3476,-3.3788,-3.3625,-3.3634,-3.3752,-3.3275,-3.3091,-3.3091,-3.3091,-3.2687,-3.2063,-3.1568,-3.1182,-3.0907,-3.0907,-3.109,-3.1181,-3.0436,-3.0722,-3.1131,-3.0153,-3.0231,-3.0724,-3.1283,-3.1216,-3.1235,-3.2374,-3.2586,-3.2692,-3.334,-3.3647,-3.3807,-3.3807,-3.4117,-3.4395,-3.4339,-3.4112,-3.3573,-3.2511,-3.1858,-3.1088,-2.9928,-2.9757,-2.9475,-2.8774,-2.8494,-2.8259,-2.7982,-2.7422,-2.7378,-2.8139,-2.7433,-2.7299,-2.8124,-2.8026,-2.7896,-2.7745,-2.8351,-2.9265,-3.0521,-3.0774,-3.189,-3.3788,-3.3323,-3.3369,-3.3807,-3.3807,-3.4064,-3.4559,-3.5073,-3.5477,-3.5844,-3.667,-3.7202,-3.7599,-3.8395,-3.8707,-3.8707,-3.8707,-3.9203,-3.9827,-4.3777,-4.3625,-4.3958,-4.5733,-4.5547,-4.5108,-4.5025,-4.504,-4.4587,-4.3396,-4.3228,-4.3321,-4.3479,-4.3497,-4.3497,-4.3497,-4.3497,-4.3387,-4.3149,-4.2928,-4.2176,-4.0818,-3.9974,-3.8634,-3.6688,-3.5257,-3.4412,-3.4156,-3.3348,-3.3238,-3.3807,-3.3807,-3.3807,-3.3807,-3.3807,-3.3807,-3.3807,-3.3807,-3.3807,-3.3733,-3.2926,-3.2614,-3.2614,-3.2614,-3.2467,-3.2173,-3.1586,-3.1549,-3.1715,-3.1476,-3.2082,-3.2724,-3.1347,-3.1531,-3.2027,-3.0889,-3.0962,-3.1489,-3.1927,-3.1862,-3.1918,-3.2969,-3.3062,-3.3032,-3.3658,-3.3807,-3.3815,-3.3902,-3.4068,-3.4292,-3.4632,-3.4122,-3.3618,-3.3571,-3.282,-3.2029,-3.143,-3.1189,-3.067,-2.9574,-2.9244,-2.8874,-2.8309,-2.7988,-2.7994,-2.8368,-2.8398,-2.8389,-2.8394,-2.8648,-2.8452,-2.7763,-2.8517,-2.9503,-3.0727,-3.1299,-3.2317,-3.3807,-3.3807,-3.3807,-3.3807,-3.4045,-3.4468,-3.5045,-3.5917,-3.6431,-3.6688,-3.7257,-3.7624,-3.79,-3.8487,-3.8707,-3.8707,-3.8707,-3.9056,-3.946,-4.325,-4.4399,-4.5521,-4.6253,-4.6292,-4.5941,-4.5188,-4.3864,-4.2678,-4.1917,-4.2342,-4.2902,-4.3444,-4.3497,-4.3497,-4.3497,-4.3497,-4.3149,-4.2378,-4.1589,-4.0781,-3.9937,-3.9148,-3.8322,-3.7507,-3.6688,-3.5862,-3.4972,-3.4192,-3.3788,-3.3807,-3.3807,-3.3807,-3.3807,-3.3807,-3.3807,-3.3807,-3.3807,-3.3807,-3.3733,-3.2926,-3.2614,-3.2614,-3.2614,-3.2118,-3.1403,-3.1384,-3.1916,-3.2467,-3.1659,-3.2449,-3.3642,-3.2834,-3.2045,-3.1403,-3.1384,-3.1384,-3.1568,-3.2375,-3.2008,-3.1795,-3.3385,-3.3183,-3.2816,-3.3623,-3.3807,-3.3895,-3.4147,-3.42,-3.4292,-3.4632,-3.4423,-3.3807,-3.2705,-3.2292,-3.1683,-3.0493,-3.0325,-3.0024,-2.9195,-2.9089,-2.8805,-2.7996,-2.8617,-2.8895,-2.8448,-2.9124,-2.9232,-2.8456,-2.7388,-2.6644,-2.6254,-2.588,-2.6816,-2.9205,-2.9947,-3.148,-3.3807,-3.3807,-3.3807,-3.3825,-3.4633,-3.499,-3.5045,-3.5917,-3.6743,-3.7477,-3.7507,-3.7955,-3.8689,-3.8707,-3.8707,-3.8707,-3.8707,-3.8707,-3.8707,-4.3838,-4.3984,-4.4283,-4.5446,-4.5605,-4.5196,-4.4025,-4.3782,-4.3457,-4.2634,-4.2624,-4.2902,-4.3444,-4.3497,-4.3497,-4.3497,-4.3002,-4.2561,-4.2323,-4.1552,-4.0744,-3.9937,-3.9643,-3.8615,-3.6707,-3.6964,-3.6138,-3.4192,-3.4486,-3.4339,-3.3807,-3.3807,-3.3807,-3.3807,-3.3807,-3.3807,-3.3807,-3.3807,-3.3476,-3.2963,-3.2706,-3.2284,-3.1843,-3.2394,-3.2449,-3.2228,-3.2228,-3.2394,-3.2577,-3.2302,-3.2559,-3.3036,-3.333,-3.3238,-3.2926,-3.2375,-3.2614,-3.3091,-3.3348,-3.322,-3.3164,-3.366,-3.3605,-3.3495,-3.3733,-3.3807,-3.3815,-3.3902,-3.3928,-3.3961,-3.4062,-3.3986,-3.3713,-3.3093,-3.3149,-3.3021,-3.2373,-3.184,-3.1229,-3.0409,-3.0101,-2.9703,-2.9125,-2.9572,-2.9848,-2.9648,-2.9624,-2.9616,-2.9618,-2.9824,-2.9886,-2.9745,-2.9937,-3.0514,-3.1501,-3.1534,-3.2299,-3.3807,-3.3807,-3.41,-3.4688,-3.6064,-3.6688,-3.6743,-3.7588,-3.8083,-3.8322,-3.8322,-3.8469,-3.8707,-3.8707,-3.8707,-3.8707,-3.8707,-3.8707,-3.8707,-4.3837,-4.3836,-4.3993,-4.4817,-4.4753,-4.4173,-4.3075,-4.3126,-4.3061,-4.2254,-4.2465,-4.2826,-4.3178,-4.3375,-4.3497,-4.3497,-4.3039,-4.2488,-4.1901,-4.1387,-4.0616,-3.9496,-3.9441,-3.8744,-3.7221,-3.7386,-3.6578,-3.4743,-3.4614,-3.4302,-3.3807,-3.3807,-3.3807,-3.3807,-3.3807,-3.3807,-3.3807,-3.3807,-3.3513,-3.3036,-3.2724,-3.2302,-3.1916,-3.2412,-3.2614,-3.2614,-3.2614,-3.2797,-3.2999,-3.2706,-3.2816,-3.3146,-3.3642,-3.3807,-3.3697,-3.3201,-3.3421,-3.3807,-3.3807,-3.3807,-3.3807,-3.3807,-3.3807,-3.3807,-3.3807,-3.3807,-3.3807,-3.3807,-3.3807,-3.3807,-3.3807,-3.3807,-3.3707,-3.3465,-3.3396,-3.3268,-3.3011,-3.231,-3.1592,-3.0966,-3.0792,-3.0548,-3.0143,-3.0756,-3.1011,-3.0681,-3.0713,-3.0852,-3.1084,-3.0863,-3.0808,-3.0966,-3.1261,-3.1733,-3.2411,-3.22,-3.2655,-3.3807,-3.4119,-3.4523,-3.5045,-3.6743,-3.7507,-3.7533,-3.834,-3.8707,-3.8707,-3.8707,-3.8707,-3.8707,-3.8707,-3.8707,-3.8707,-3.8707,-3.8707,-3.8707,-4.325,-4.3682,-4.4143,-4.4195,-4.3623,-4.2913,-4.2168,-4.2098,-4.1838,-4.1053,-4.1979,-4.2711,-4.275,-4.3214,-4.3497,-4.3497,-4.3442,-4.2782,-4.1295,-4.1093,-4.0359,-3.8854,-3.8726,-3.867,-3.8615,-3.7936,-3.7147,-3.6303,-3.4688,-3.3844,-3.3807,-3.3807,-3.3807,-3.3807,-3.3807,-3.3807,-3.3807,-3.3807,-3.377,-3.366,-3.2963,-3.2669,-3.2614,-3.2669,-3.2687,-3.2687,-3.2687,-3.3164,-3.3697,-3.2944,-3.3183,-3.3807,-3.3807,-3.3807,-3.3807,-3.3807,-3.3807,-3.3807,-3.3807,-3.3807,-3.3807,-3.3807,-3.3807,-3.3807,-3.3807,-3.3807,-3.3807,-3.3807,-3.3807,-3.3807,-3.3807,-3.3807,-3.3807,-3.3807,-3.3183,-3.2669,-3.2614,-3.1928,-3.1313,-3.0957,-3.1217,-3.1323,-3.1002,-3.2027,-3.2375,-3.1623,-3.221,-3.2632,-3.2687,-3.0919,-3.0088,-3.054,-3.0612,-3.1148,-3.2216,-3.2343,-3.2883,-3.3899,-3.4706,-3.5082,-3.5137,-3.6817,-3.7599,-3.7606,-3.8377,-3.8707,-3.8707,-3.8707,-3.8707,-3.8707,-3.8707,-3.8726,-3.8781,-3.8726,-3.8744,-3.8781,-4.161,-4.141,-4.1274,-4.1852,-4.1801,-4.1444,-4.0678,-4.1432,-4.198,-4.164,-4.2262,-4.2864,-4.325,-4.341,-4.3497,-4.3497,-4.2928,-4.2415,-4.2047,-4.0873,-4.001,-3.9625,-3.9038,-3.8414,-3.779,-3.8193,-3.7716,-3.6303,-3.5238,-3.4412,-3.3807,-3.3807,-3.3807,-3.3807,-3.3807,-3.3807,-3.3807,-3.3807,-3.3458,-3.2926,-3.3348,-3.3146,-3.2687,-3.3293,-3.3532,-3.3532,-3.3532,-3.3642,-3.377,-3.3587,-3.3642,-3.3807,-3.3807,-3.3807,-3.3807,-3.3807,-3.3807,-3.3807,-3.3807,-3.3807,-3.3807,-3.3807,-3.3807,-3.3807,-3.3807,-3.3807,-3.3807,-3.3807,-3.3807,-3.3807,-3.3807,-3.3807,-3.3807,-3.3807,-3.3642,-3.3311,-3.2706,-3.2219,-3.1664,-3.0984,-3.1492,-3.1882,-3.1815,-3.2849,-3.344,-3.3238,-3.2852,-3.2871,-3.3476,-3.3048,-3.2866,-3.2967,-3.3559,-3.3743,-3.3405,-3.4668,-3.5099,-3.4715,-3.5587,-3.5991,-3.6046,-3.7661,-3.8414,-3.8432,-3.8615,-3.8707,-3.8707,-3.8707,-3.8707,-3.8707,-3.8707,-3.9074,-3.9533,-3.8927,-3.9093,-3.9625,-4.1119,-4.0882,-4.073,-4.1136,-4.0916,-4.0544,-4.0138,-4.0906,-4.1499,-4.141,-4.2162,-4.2826,-4.3087,-4.3375,-4.3497,-4.3497,-4.3094,-4.269,-4.2323,-4.1148,-4.0286,-3.9918,-3.9129,-3.8505,-3.8046,-3.8487,-3.7918,-3.6303,-3.544,-3.4596,-3.3807,-3.3807,-3.3807,-3.3807,-3.3807,-3.3807,-3.3807,-3.3807,-3.355,-3.3201,-3.3623,-3.3532,-3.3201,-3.3623,-3.3807,-3.3807,-3.3807,-3.3807,-3.3807,-3.3807,-3.3807,-3.3807,-3.3807,-3.3807,-3.3807,-3.3807,-3.3807,-3.3807,-3.3807,-3.3807,-3.3807,-3.3807,-3.3807,-3.3807,-3.3807,-3.3807,-3.3807,-3.3807,-3.3807,-3.3807,-3.3807,-3.3807,-3.3807,-3.3807,-3.3183,-3.254,-3.2118,-3.1579,-3.1346,-3.1637,-3.2384,-3.3194,-3.396,-3.4586,-3.4945,-3.4945,-3.4541,-3.4486,-3.4908,-3.4945,-3.4761,-3.4376,-3.5165,-3.5385,-3.4945,-3.5844,-3.6064,-3.5605,-3.645,-3.6835,-3.689,-3.8138,-3.8707,-3.8707,-3.8707,-3.8707,-3.8707,-3.8707,-3.8927,-3.9203,-3.8836,-3.9423,-4.0359,-3.9551,-3.9753,-4.0451,-4.1035,-4.1035,-4.1035,-4.1035,-4.051,-4.007,-4.007,-4.0528,-4.0903,-4.0903,-4.1853,-4.2559,-4.2559,-4.2958,-4.3286,-4.3375,-4.3375,-4.3061,-4.2359,-4.1552,-4.0744,-3.9937,-3.9129,-3.8707,-3.8707,-3.8707,-3.7918,-3.6303,-3.5569,-3.4724,-3.3807,-3.3807,-3.3807,-3.3807,-3.3807,-3.3807,-3.3807,-3.3807,-3.3807,-3.3807,-3.3807,-3.3807,-3.3807,-3.3807,-3.3807,-3.3807,-3.3807,-3.3807,-3.3807,-3.3807,-3.3807,-3.3807,-3.3807,-3.3807,-3.3807,-3.3807,-3.3807,-3.3807,-3.3807,-3.3807,-3.3807,-3.3807,-3.3899,-3.3954,-3.3825,-3.399,-3.4137,-3.4009,-3.4082,-3.4137,-3.4009,-3.399,-3.3935,-3.3825,-3.254,-3.1568,-3.1568,-3.0999,-3.1109,-3.2614,-3.3495,-3.4596,-3.6156,-3.6413,-3.6523,-3.6652,-3.6652,-3.6707,-3.6835,-3.6725,-3.6321,-3.5559,-3.6156,-3.6541,-3.6652,-3.6413,-3.6358,-3.6486,-3.7165,-3.7507,-3.7544,-3.8322,-3.8707,-3.8707,-3.8836,-3.8891,-3.8891,-3.9019,-3.9386,-3.9827,-3.9148,-3.979,-4.1001,-4.0065,-4.0377,-4.1277,-4.0257,-4.0257,-4.0257,-4.0257,-4.0155,-4.007,-4.007,-4.0528,-4.0903,-4.0903,-4.149,-4.1937,-4.1937,-4.2021,-4.2284,-4.277,-4.2826,-4.2686,-4.2307,-4.1552,-4.0744,-3.9937,-3.9129,-3.8707,-3.8707,-3.8707,-3.7918,-3.6303,-3.6156,-3.5312,-3.3807,-3.3807,-3.3807,-3.3807,-3.3807,-3.3807,-3.3807,-3.3807,-3.3807,-3.3807,-3.3807,-3.3807,-3.3807,-3.3807,-3.3807,-3.3807,-3.3807,-3.3807,-3.3807,-3.3807,-3.3807,-3.3807,-3.3807,-3.3807,-3.3807,-3.3807,-3.3807,-3.3807,-3.3807,-3.3807,-3.3807,-3.3807,-3.4321,-3.4651,-3.3954,-3.489,-3.5697,-3.4981,-3.5404,-3.5697,-3.4963,-3.4807,-3.4596,-3.3917,-3.3018,-3.2412,-3.2412,-3.232,-3.2577,-3.3495,-3.4321,-3.522,-3.6193,-3.689,-3.7588,-3.8285,-3.834,-3.8615,-3.9294,-3.8707,-3.8267,-3.8138,-3.7588,-3.7624,-3.8322,-3.6982,-3.6633,-3.7312,-3.7452,-3.7507,-3.7544,-3.8322,-3.8707,-3.8744,-3.9423,-3.9698,-3.9772,-4.0451,-4.0414,-3.9882,-3.9753,-4.0286,-4.0928,-3.9441,-4.0267,-4.2029,-4.007,-4.007,-4.007,-4.007,-4.007,-4.007,-4.007,-4.0336,-4.0449,-4.0449,-4.0967,-4.1313,-4.1313,-4.1621,-4.2021,-4.2655,-4.2711,-4.2376,-4.1702,-4.1717,-4.1387,-4.0579,-3.9772,-3.9148,-3.8707,-3.8707,-3.7918,-3.6303,-3.6303,-3.544,-3.3807,-3.3807,-3.3807,-3.3807,-3.3807,-3.3807,-3.3807,-3.3807,-3.3807,-3.3807,-3.3807,-3.3807,-3.3807,-3.3807,-3.3807,-3.3807,-3.3807,-3.3807,-3.3807,-3.3807,-3.3807,-3.3807,-3.3807,-3.3807,-3.3807,-3.3807,-3.3807,-3.3807,-3.3807,-3.3807,-3.3807,-3.3807,-3.4412,-3.4899,-3.4541,-3.5422,-3.6193,-3.5789,-3.6028,-3.6028,-3.5155,-3.499,-3.4862,-3.4523,-3.3421,-3.2908,-3.3762,-3.3532,-3.3715,-3.5,-3.5862,-3.6853,-3.812,-3.856,-3.9129,-3.9937,-3.9992,-3.9991,-4.0068,-4.0028,-3.9644,-3.8904,-3.84,-3.8322,-3.8707,-3.7955,-3.7771,-3.8138,-3.8138,-3.8138,-3.8157,-3.8524,-3.8707,-3.8744,-3.9551,-3.99,-3.9918,-4.0304,-4.0744,-4.1111,-4.023,-4.091,-4.2249,-4.1075,-4.1625,-4.2892,-4.007,-4.007,-4.007,-4.007,-4.007,-4.007,-4.007,-4.007,-4.007,-4.007,-4.0449,-4.0685,-4.0685,-4.115,-4.1639,-4.2203,-4.2302,-4.1998,-4.1304,-4.1684,-4.1606,-4.084,-4.023,-3.9515,-3.8726,-3.8707,-3.7918,-3.6303,-3.6303,-3.544,-3.3807,-3.3807,-3.3807,-3.3807,-3.3707,-3.3652,-3.3652,-3.3652,-3.3652,-3.368,-3.3762,-3.3807,-3.3807,-3.3807,-3.3807,-3.3807,-3.3807,-3.3807,-3.3807,-3.3807,-3.3807,-3.3807,-3.3807,-3.3807,-3.3807,-3.3807,-3.3935,-3.4045,-3.3844,-3.3935,-3.4082,-3.4082,-3.4853,-3.555,-3.532,-3.6119,-3.6798,-3.6615,-3.6725,-3.6597,-3.5752,-3.5587,-3.5532,-3.5349,-3.4119,-3.3678,-3.5082,-3.4614,-3.4706,-3.6376,-3.711,-3.812,-3.9735,-4.0065,-4.0506,-4.1332,-4.1452,-4.1336,-4.0981,-4.1101,-4.0628,-3.9532,-3.8976,-3.8719,-3.8771,-3.8902,-3.8982,-3.8982,-3.9166,-3.9166,-3.9001,-3.9166,-3.9056,-3.8781,-3.9955,-4.0341,-4.0212,-4.0579,-4.135,-4.2176,-4.0811,-4.1452,-4.3112,-4.215,-4.2514,-4.3461,-4.007,-4.007,-4.007,-4.007,-4.007,-4.007,-4.007,-4.007,-4.007,-4.007,-4.0121,-4.0171,-4.0171,-4.0221,-4.0466,-4.0995,-4.1041,-4.1261,-4.1718,-4.1161,-4.0576,-4.0015,-3.9918,-3.9515,-3.8726,-3.8707,-3.7918,-3.6303,-3.6303,-3.544,-3.3807,-3.3807,-3.3807,-3.3762,-3.339,-3.3243,-3.3243,-3.3243,-3.3243,-3.3273,-3.3652,-3.3807,-3.3807,-3.3807,-3.3807,-3.3807,-3.3807,-3.3807,-3.3807,-3.3807,-3.3807,-3.3807,-3.3807,-3.3807,-3.3807,-3.3807,-3.4339,-3.4734,-3.4009,-3.4357,-3.4899,-3.4899,-3.6119,-3.711,-3.6376,-3.7404,-3.8303,-3.7551,-3.7991,-3.8285,-3.7459,-3.7312,-3.7055,-3.6321,-3.544,-3.5137,-3.6064,-3.5477,-3.5532,-3.7202,-3.7441,-3.812,-3.9735,-4.0579,-4.1368,-4.2158,-4.2432,-4.2758,-4.3226,-4.2069,-4.1234,-4.0954,-3.9483,-3.878,-3.8976,-3.9509,-3.9808,-3.9808,-4.0579,-4.0543,-3.9827,-4.0579,-4.012,-3.8836,-4.113,-4.1699,-4.1148,-4.2616,-4.2855,-4.2234,-4.1542,-4.1741,-4.22,-4.0854,-4.1686,-4.3387,-4.007,-4.007,-4.007,-4.007,-4.007,-4.007,-4.007,-4.007,-4.007,-4.007,-4.007,-4.007,-4.007,-4.007,-4.0336,-4.0856,-4.0903,-4.0924,-4.1036,-4.0359,-3.9792,-3.94,-3.8925,-3.8692,-3.8707,-3.8382,-3.7453,-3.5884,-3.6002,-3.5141,-3.3437,-3.3916,-3.3996,-3.3762,-3.3361,-3.3332,-3.355,-3.3302,-3.3332,-3.3578,-3.3734,-3.3807,-3.3807,-3.3807,-3.3807,-3.3807,-3.3807,-3.3807,-3.3807,-3.3807,-3.3807,-3.3807,-3.3807,-3.3807,-3.3807,-3.3807,-3.4376,-3.4917,-3.4633,-3.5165,-3.5807,-3.5807,-3.6652,-3.7434,-3.7092,-3.79,-3.8615,-3.8303,-3.8487,-3.845,-3.7643,-3.7507,-3.7551,-3.7753,-3.6407,-3.595,-3.7798,-3.703,-3.6717,-3.7864,-3.8384,-3.9101,-4.0233,-4.0908,-4.1488,-4.1962,-4.274,-4.2995,-4.2483,-4.1787,-4.1613,-4.2087,-4.0836,-4.0225,-4.0315,-4.0142,-4.0263,-4.0653,-4.0965,-4.0946,-4.0653,-4.0965,-4.0781,-4.0286,-4.1699,-4.2139,-4.1849,-4.2103,-4.2359,-4.2431,-4.1321,-4.1582,-4.2486,-4.1937,-4.2468,-4.3442,-4.007,-4.007,-4.007,-4.007,-4.007,-4.007,-4.007,-4.007,-4.007,-4.007,-4.007,-4.007,-4.007,-4.007,-4.0254,-4.0625,-4.0655,-4.0573,-4.0463,-3.9547,-3.883,-3.8528,-3.8205,-3.8182,-3.8433,-3.7946,-3.7108,-3.5959,-3.5687,-3.4799,-3.3342,-3.3615,-3.3597,-3.3372,-3.2965,-3.2916,-3.316,-3.3027,-3.3136,-3.3419,-3.3707,-3.3807,-3.3807,-3.3807,-3.3807,-3.3807,-3.3807,-3.3807,-3.3807,-3.3807,-3.3807,-3.3807,-3.3807,-3.3707,-3.3689,-3.4073,-3.4659,-3.5297,-3.5687,-3.6413,-3.6982,-3.6725,-3.7276,-3.7863,-3.7863,-3.8303,-3.8707,-3.8707,-3.8909,-3.8909,-3.834,-3.829,-3.8524,-3.909,-3.7783,-3.7291,-3.894,-3.8409,-3.8033,-3.8563,-3.9093,-3.9711,-4.0506,-4.0927,-4.1328,-4.1782,-4.2505,-4.2696,-4.2103,-4.2078,-4.2322,-4.2921,-4.2085,-4.159,-4.159,-4.1105,-4.0978,-4.1188,-4.165,-4.1735,-4.1497,-4.1549,-4.1316,-4.0878,-4.1955,-4.2282,-4.201,-4.205,-4.2395,-4.2847,-4.1712,-4.1956,-4.2939,-4.275,-4.305,-4.3497,-4.007,-4.007,-4.007,-4.007,-4.007,-4.007,-4.007,-4.007,-4.007,-4.007,-4.007,-4.007,-4.007,-4.007,-4.007,-4.007,-4.007,-4.007,-4.007,-3.8717,-3.7665,-3.7223,-3.7972,-3.8235,-3.7911,-3.7433,-3.7022,-3.6705,-3.542,-3.4376,-3.3564,-3.2855,-3.2502,-3.2484,-3.1986,-3.1808,-3.1861,-3.2316,-3.2517,-3.2601,-3.3465,-3.3825,-3.3825,-3.3807,-3.3807,-3.3807,-3.3807,-3.3807,-3.3807,-3.3807,-3.3807,-3.3807,-3.3825,-3.3541,-3.3454,-3.4668,-3.5289,-3.5874,-3.7149,-3.8083,-3.8505,-3.7698,-3.8102,-3.8707,-3.8707,-3.8707,-3.8707,-3.8707,-3.935,-3.99,-3.99,-4.0051,-4.0184,-4.0184,-3.9768,-3.9411,-3.9411,-3.9411,-3.9411,-3.9411,-3.9411,-3.9729,-4.0524,-4.0594,-4.0937,-4.1757,-4.1793,-4.208,-4.2655,-4.3214,-4.3497,-4.3497,-4.2976,-4.2693,-4.2711,-4.2429,-4.201,-4.1448,-4.2848,-4.3075,-4.2307,-4.2576,-4.1771,-4.0329,-4.199,-4.2224,-4.154,-4.2938,-4.3479,-4.3444,-4.2902,-4.3014,-4.341,-4.2902,-4.3014,-4.3497,-4.007,-4.007,-4.007,-4.007,-4.007,-4.007,-4.007,-4.007,-4.007,-4.007,-4.007,-4.007,-4.007,-4.007,-4.007,-4.007,-4.007,-3.9868,-3.9343,-3.843,-3.7589,-3.6955,-3.696,-3.711,-3.7396,-3.6904,-3.6357,-3.5723,-3.5486,-3.4628,-3.3171,-3.3485,-3.323,-3.2484,-3.1986,-3.2161,-3.2813,-3.3184,-3.3695,-3.4309,-3.5209,-3.555,-3.5495,-3.4871,-3.4651,-3.4578,-3.4009,-3.3807,-3.3807,-3.3807,-3.4192,-3.4761,-3.5367,-3.5587,-3.5684,-3.5857,-3.586,-3.604,-3.7186,-3.7393,-3.7471,-3.8187,-3.8524,-3.8707,-3.8707,-3.9148,-3.9533,-3.9533,-3.9859,-4.011,-4.011,-3.9837,-3.9811,-4.0379,-3.954,-3.9042,-3.9582,-3.9347,-3.9123,-3.9123,-3.9568,-3.998,-4.0203,-4.0591,-4.077,-4.0625,-4.1331,-4.2226,-4.3214,-4.341,-4.3497,-4.3497,-4.3321,-4.3087,-4.2693,-4.2189,-4.2045,-4.2332,-4.2737,-4.2812,-4.2595,-4.268,-4.221,-4.1385,-4.2304,-4.2549,-4.2332,-4.2755,-4.2939,-4.2902,-4.2284,-4.2144,-4.2306,-4.2103,-4.2185,-4.2306,-4.007,-4.007,-4.007,-4.007,-4.007,-4.007,-4.007,-4.007,-4.007,-4.007,-4.007,-4.007,-4.007,-4.007,-4.007,-4.007,-4.007,-3.9884,-3.9445,-3.8464,-3.7838,-3.7669,-3.6631,-3.6471,-3.7321,-3.653,-3.6096,-3.6156,-3.5522,-3.4644,-3.3608,-3.3739,-3.3468,-3.2837,-3.2468,-3.2774,-3.3624,-3.3883,-3.4456,-3.5312,-3.6007,-3.6303,-3.6229,-3.5716,-3.5381,-3.5126,-3.4634,-3.4345,-3.4178,-3.4178,-3.4613,-3.5289,-3.583,-3.61,-3.6298,-3.6412,-3.6209,-3.6149,-3.7117,-3.7275,-3.735,-3.8172,-3.8546,-3.8781,-3.9093,-3.9551,-3.9942,-4.0002,-4.0382,-4.0597,-4.0387,-4.0182,-4.0157,-4.0648,-3.9863,-3.9375,-3.9838,-3.9623,-3.9428,-3.9428,-3.9817,-4.007,-4.007,-4.0417,-4.0625,-4.0767,-4.1639,-4.2541,-4.3444,-4.3497,-4.3497,-4.3497,-4.3497,-4.325,-4.2711,-4.2342,-4.2342,-4.2693,-4.2902,-4.3014,-4.3014,-4.2788,-4.248,-4.2162,-4.2519,-4.2711,-4.2711,-4.2939,-4.3014,-4.2976,-4.26,-4.2346,-4.2162,-4.2162,-4.1979,-4.181,-4.007,-4.007,-4.007,-4.007,-4.007,-4.007,-4.007,-4.007,-4.007,-4.007,-4.007,-4.007,-4.007,-4.007,-4.007,-4.007,-4.007,-4.007,-4.007,-3.8717,-3.821,-3.887,-3.6857,-3.6297,-3.7568,-3.6376,-3.6297,-3.7456,-3.5598,-3.4624,-3.4472,-3.3812,-3.3457,-3.3372,-3.3205,-3.3526,-3.4248,-3.4521,-3.5069,-3.5802,-3.6314,-3.6476,-3.6428,-3.6355,-3.5994,-3.5522,-3.545,-3.5113,-3.473,-3.4783,-3.5151,-3.5624,-3.5696,-3.5714,-3.5858,-3.6597,-3.6416,-3.616,-3.6978,-3.747,-3.7808,-3.7915,-3.8343,-3.892,-3.9635,-3.9873,-3.9981,-4.0203,-4.0811,-4.1214,-4.0707,-4.0725,-4.0827,-4.0827,-4.0417,-4.007,-4.007,-4.007,-4.007,-4.007,-4.007,-4.0121,-4.0171,-4.0204,-4.0672,-4.181,-4.2382,-4.2939,-4.3479,-4.3497,-4.3497,-4.3497,-4.3497,-4.325,-4.2788,-4.2788,-4.275,-4.2711,-4.3214,-4.341,-4.341,-4.2939,-4.2655,-4.2616,-4.2673,-4.2711,-4.275,-4.3286,-4.3497,-4.3497,-4.3497,-4.3178,-4.2693,-4.2655,-4.2244,-4.1707,-4.007,-4.007,-4.007,-4.007,-4.007,-4.007,-4.007,-4.007,-4.007,-4.007,-4.007,-4.007,-4.007,-4.007,-4.007,-4.007,-4.007,-4.007,-4.007,-3.8717,-3.7973,-3.8142,-3.711,-3.7143,-3.8434,-3.716,-3.6695,-3.6968,-3.6525,-3.5673,-3.4489,-3.4336,-3.3947,-3.3406,-3.3795,-3.4222,-3.4729,-3.5818,-3.6585,-3.7149,-3.7888,-3.7935,-3.7486,-3.687,-3.6283,-3.5741,-3.5084,-3.4783,-3.4818,-3.5419,-3.5989,-3.6543,-3.719,-3.7147,-3.697,-3.7502,-3.67,-3.5916,-3.6929,-3.6981,-3.6965,-3.7972,-3.8618,-3.9059,-3.9188,-3.9678,-4.0203,-4.0437,-4.0785,-4.0961,-4.0844,-4.0521,-4.0286,-4.0286,-4.0171,-4.007,-4.007,-4.007,-4.007,-4.007,-4.007,-4.0254,-4.0703,-4.115,-4.1725,-4.244,-4.2616,-4.2939,-4.3479,-4.3497,-4.3497,-4.3497,-4.3497,-4.3444,-4.3339,-4.3339,-4.3142,-4.2711,-4.2826,-4.2864,-4.2864,-4.2732,-4.244,-4.2021,-4.248,-4.2711,-4.275,-4.3286,-4.3497,-4.3497,-4.3497,-4.3178,-4.2655,-4.2162,-4.1621,-4.1041,-4.007,-4.007,-4.007,-4.007,-4.007,-4.007,-4.007,-4.007,-4.007,-4.007,-4.007,-4.007,-4.007,-4.007,-4.007,-4.007,-4.007,-4.007,-4.007,-3.9039,-3.8582,-3.892,-3.755,-3.7449,-3.8814,-3.75,-3.7109,-3.7734,-3.7109,-3.618,-3.503,-3.503,-3.4827,-3.4455,-3.4616,-3.513,-3.597,-3.6534,-3.7253,-3.8102,-3.825,-3.815,-3.7823,-3.7201,-3.659,-3.6081,-3.5661,-3.5327,-3.5198,-3.5613,-3.6134,-3.6642,-3.7031,-3.721,-3.719,-3.721,-3.6626,-3.614,-3.6824,-3.6693,-3.6735,-3.8122,-3.8589,-3.8901,-3.9613,-4.0287,-4.0751,-4.0778,-4.0809,-4.0827,-4.0577,-4.0286,-4.007,-4.007,-4.007,-4.007,-4.007,-4.007,-4.007,-4.007,-4.0336,-4.0703,-4.1268,-4.1895,-4.2342,-4.2673,-4.2939,-4.3214,-4.3497,-4.3497,-4.3375,-4.3142,-4.3142,-4.3142,-4.3142,-4.3142,-4.3105,-4.3087,-4.3087,-4.3087,-4.3087,-4.3087,-4.2921,-4.2639,-4.2958,-4.3087,-4.3087,-4.3375,-4.3497,-4.3497,-4.3497,-4.2995,-4.2203,-4.1895,-4.1241,-4.0497,-4.007,-4.007,-4.007,-4.007,-4.007,-4.007,-4.007,-4.007,-4.007,-4.007,-4.007,-4.007,-4.007,-4.007,-4.007,-4.007,-4.007,-4.007,-4.007,-3.9394,-3.9259,-3.9868,-3.8142,-3.7767,-3.9132,-3.7984,-3.7746,-3.858,-3.7507,-3.6654,-3.6011,-3.5876,-3.5825,-3.5774,-3.5538,-3.6011,-3.7061,-3.6845,-3.7453,-3.8401,-3.7964,-3.772,-3.7614,-3.7352,-3.6829,-3.6284,-3.6422,-3.6087,-3.5622,-3.5622,-3.6027,-3.6547,-3.6468,-3.6858,-3.7312,-3.6765,-3.6627,-3.6715,-3.6927,-3.683,-3.6991,-3.8336,-3.8589,-3.8919,-4.02,-4.0795,-4.1024,-4.0793,-4.078,-4.0607,-4.0154,-4.007,-4.007,-4.007,-4.007,-4.007,-4.007,-4.0154,-4.0254,-4.0254,-4.0797,-4.1455,-4.2115,-4.2699,-4.3025,-4.3025,-4.3451,-4.3644,-4.3497,-4.3497,-4.325,-4.2711,-4.2711,-4.2655,-4.2537,-4.2537,-4.277,-4.3196,-4.3196,-4.3321,-4.3497,-4.3497,-4.3497,-4.3497,-4.3497,-4.3497,-4.3497,-4.3497,-4.3444,-4.3356,-4.3356,-4.2734,-4.181,-4.1664,-4.0984,-4.007,-4.007,-4.007,-4.007,-4.007,-4.007,-4.007,-4.007,-4.007,-4.007,-4.007,-4.007,-4.007,-4.007,-4.007,-4.007,-4.007,-4.007,-4.007,-4.007,-3.9394,-3.9039,-3.914,-3.8853,-3.9024,-3.9675,-3.9654,-3.9105,-3.8014,-3.7851,-3.7702,-3.7584,-3.6924,-3.662,-3.6632,-3.6346,-3.6312,-3.6522,-3.6953,-3.7234,-3.7414,-3.7323,-3.702,-3.6673,-3.7252,-3.6732,-3.5779,-3.6503,-3.6271,-3.5622,-3.5622,-3.6368,-3.7222,-3.6582,-3.7342,-3.8244,-3.7577,-3.7511,-3.7712,-3.7719,-3.7716,-3.7882,-3.8761,-3.9284,-3.968,-4.0075,-4.0048,-3.9956,-4.0182,-4.0204,-4.0221,-4.0121,-4.007,-4.007,-4.007,-4.007,-4.007,-4.007,-4.0497,-4.078,-4.078,-4.1768,-4.2749,-4.3552,-4.4125,-4.4418,-4.4418,-4.4508,-4.4232,-4.3534,-4.3497,-4.325,-4.2711,-4.2711,-4.244,-4.1937,-4.1937,-4.1979,-4.2021,-4.2021,-4.2562,-4.3497,-4.3497,-4.3497,-4.3497,-4.3497,-4.3497,-4.3497,-4.3497,-4.3214,-4.2826,-4.2826,-4.2382,-4.1768,-4.1206,-4.0625,-4.007,-4.007,-4.007,-4.007,-4.007,-4.007,-4.007,-4.007,-4.007,-4.007,-4.007,-4.007,-4.007,-4.007,-4.007,-4.007,-4.007,-4.007,-4.007,-4.007,-3.9783,-3.9597,-3.9597,-3.9208,-3.9117,-3.9354,-3.9033,-3.8751,-3.8514,-3.8514,-3.8311,-3.7889,-3.7144,-3.6772,-3.6801,-3.6212,-3.6139,-3.6416,-3.6643,-3.6921,-3.7173,-3.6865,-3.6864,-3.7032,-3.7065,-3.7019,-3.6941,-3.7297,-3.7195,-3.6891,-3.6891,-3.7279,-3.765,-3.7325,-3.7902,-3.8581,-3.8252,-3.8232,-3.8448,-3.8831,-3.8461,-3.8176,-3.9326,-3.9504,-3.9464,-4.0001,-3.9999,-3.9976,-4.0053,-4.007,-4.007,-4.007,-4.007,-4.007,-4.007,-4.007,-4.007,-4.007,-4.0577,-4.1133,-4.1853,-4.24,-4.2953,-4.3615,-4.3905,-4.403,-4.403,-4.403,-4.3864,-4.3516,-4.3597,-4.3204,-4.2221,-4.2314,-4.2009,-4.1313,-4.1313,-4.149,-4.181,-4.181,-4.2062,-4.2562,-4.2884,-4.305,-4.305,-4.3375,-4.3497,-4.3497,-4.3497,-4.3178,-4.2711,-4.2711,-4.2121,-4.1223,-4.0672,-4.0286,-4.007]}]]